<?xml version="1.0" encoding="UTF-8" standalone="no" ?>
<gpx xmlns="http://www.topografix.com/GPX/1/1" xmlns:xsi="http://www.w3.org/2001/XMLSchema-instance" xsi:schemaLocation="http://www.topografix.com/GPX/1/1 http://www.topografix.com/GPX/1/1/gpx.xsd" version="1.1" creator="VisuGPX - https://www.visugpx.com">
  <metadata>
    <name>Rando VTT du 04-05-2014</name>
    <desc><![CDATA[Christian, Francis et Jacques-Georges de Périgueux]]></desc>
  </metadata>
  <trk>
    <name><![CDATA[2014-05-04]]></name>
    <trkseg>
      <trkpt lat="45.19152" lon="0.69438">
        <ele>101</ele>
        <time>2014-05-04T06:37:44Z</time>
      </trkpt>
      <trkpt lat="45.19152" lon="0.69438">
        <ele>101</ele>
        <time>2014-05-04T06:38:30Z</time>
      </trkpt>
      <trkpt lat="45.19183" lon="0.69449">
        <ele>100</ele>
        <time>2014-05-04T06:38:35Z</time>
      </trkpt>
      <trkpt lat="45.192" lon="0.69448">
        <ele>99</ele>
        <time>2014-05-04T06:38:38Z</time>
      </trkpt>
      <trkpt lat="45.19219" lon="0.69443">
        <ele>98</ele>
        <time>2014-05-04T06:38:41Z</time>
      </trkpt>
      <trkpt lat="45.19235" lon="0.6945">
        <ele>98</ele>
        <time>2014-05-04T06:38:45Z</time>
      </trkpt>
      <trkpt lat="45.19254" lon="0.6948">
        <ele>97</ele>
        <time>2014-05-04T06:38:51Z</time>
      </trkpt>
      <trkpt lat="45.1927" lon="0.69502">
        <ele>97</ele>
        <time>2014-05-04T06:38:56Z</time>
      </trkpt>
      <trkpt lat="45.19283" lon="0.69525">
        <ele>96</ele>
        <time>2014-05-04T06:39:02Z</time>
      </trkpt>
      <trkpt lat="45.19314" lon="0.69523">
        <ele>96</ele>
        <time>2014-05-04T06:39:08Z</time>
      </trkpt>
      <trkpt lat="45.1933" lon="0.69516">
        <ele>95</ele>
        <time>2014-05-04T06:39:11Z</time>
      </trkpt>
      <trkpt lat="45.19356" lon="0.695">
        <ele>95</ele>
        <time>2014-05-04T06:39:16Z</time>
      </trkpt>
      <trkpt lat="45.19372" lon="0.69489">
        <ele>94</ele>
        <time>2014-05-04T06:39:19Z</time>
      </trkpt>
      <trkpt lat="45.19387" lon="0.69478">
        <ele>94</ele>
        <time>2014-05-04T06:39:22Z</time>
      </trkpt>
      <trkpt lat="45.19417" lon="0.69456">
        <ele>93</ele>
        <time>2014-05-04T06:39:27Z</time>
      </trkpt>
      <trkpt lat="45.19433" lon="0.69447">
        <ele>93</ele>
        <time>2014-05-04T06:39:31Z</time>
      </trkpt>
      <trkpt lat="45.19461" lon="0.69423">
        <ele>92</ele>
        <time>2014-05-04T06:39:36Z</time>
      </trkpt>
      <trkpt lat="45.19486" lon="0.694">
        <ele>91</ele>
        <time>2014-05-04T06:39:41Z</time>
      </trkpt>
      <trkpt lat="45.1951" lon="0.69378">
        <ele>90</ele>
        <time>2014-05-04T06:39:46Z</time>
      </trkpt>
      <trkpt lat="45.19536" lon="0.69364">
        <ele>89</ele>
        <time>2014-05-04T06:39:51Z</time>
      </trkpt>
      <trkpt lat="45.19562" lon="0.69354">
        <ele>88</ele>
        <time>2014-05-04T06:39:56Z</time>
      </trkpt>
      <trkpt lat="45.19578" lon="0.69348">
        <ele>88</ele>
        <time>2014-05-04T06:39:59Z</time>
      </trkpt>
      <trkpt lat="45.19593" lon="0.69346">
        <ele>87</ele>
        <time>2014-05-04T06:40:02Z</time>
      </trkpt>
      <trkpt lat="45.19607" lon="0.69355">
        <ele>87</ele>
        <time>2014-05-04T06:40:16Z</time>
      </trkpt>
      <trkpt lat="45.19608" lon="0.69374">
        <ele>86</ele>
        <time>2014-05-04T06:40:20Z</time>
      </trkpt>
      <trkpt lat="45.19608" lon="0.69395">
        <ele>86</ele>
        <time>2014-05-04T06:40:23Z</time>
      </trkpt>
      <trkpt lat="45.1961" lon="0.69445">
        <ele>84</ele>
        <time>2014-05-04T06:40:30Z</time>
      </trkpt>
      <trkpt lat="45.19611" lon="0.69491">
        <ele>82</ele>
        <time>2014-05-04T06:40:36Z</time>
      </trkpt>
      <trkpt lat="45.19612" lon="0.69522">
        <ele>81</ele>
        <time>2014-05-04T06:40:40Z</time>
      </trkpt>
      <trkpt lat="45.19612" lon="0.69568">
        <ele>81</ele>
        <time>2014-05-04T06:40:46Z</time>
      </trkpt>
      <trkpt lat="45.1961" lon="0.69606">
        <ele>81</ele>
        <time>2014-05-04T06:40:52Z</time>
      </trkpt>
      <trkpt lat="45.1961" lon="0.69648">
        <ele>81</ele>
        <time>2014-05-04T06:40:58Z</time>
      </trkpt>
      <trkpt lat="45.19611" lon="0.69669">
        <ele>81</ele>
        <time>2014-05-04T06:41:01Z</time>
      </trkpt>
      <trkpt lat="45.19615" lon="0.69712">
        <ele>82</ele>
        <time>2014-05-04T06:41:07Z</time>
      </trkpt>
      <trkpt lat="45.19619" lon="0.69735">
        <ele>82</ele>
        <time>2014-05-04T06:41:09Z</time>
      </trkpt>
      <trkpt lat="45.19624" lon="0.69756">
        <ele>83</ele>
        <time>2014-05-04T06:41:13Z</time>
      </trkpt>
      <trkpt lat="45.19635" lon="0.69792">
        <ele>84</ele>
        <time>2014-05-04T06:41:18Z</time>
      </trkpt>
      <trkpt lat="45.19655" lon="0.69829">
        <ele>85</ele>
        <time>2014-05-04T06:41:24Z</time>
      </trkpt>
      <trkpt lat="45.19677" lon="0.69853">
        <ele>85</ele>
        <time>2014-05-04T06:41:29Z</time>
      </trkpt>
      <trkpt lat="45.19699" lon="0.6987">
        <ele>84</ele>
        <time>2014-05-04T06:41:34Z</time>
      </trkpt>
      <trkpt lat="45.19722" lon="0.69872">
        <ele>84</ele>
        <time>2014-05-04T06:41:40Z</time>
      </trkpt>
      <trkpt lat="45.19741" lon="0.69881">
        <ele>84</ele>
        <time>2014-05-04T06:41:47Z</time>
      </trkpt>
      <trkpt lat="45.19711" lon="0.6992">
        <ele>83</ele>
        <time>2014-05-04T06:41:54Z</time>
      </trkpt>
      <trkpt lat="45.1972" lon="0.69975">
        <ele>84</ele>
        <time>2014-05-04T06:42:01Z</time>
      </trkpt>
      <trkpt lat="45.19735" lon="0.70009">
        <ele>84</ele>
        <time>2014-05-04T06:42:07Z</time>
      </trkpt>
      <trkpt lat="45.19745" lon="0.7002">
        <ele>84</ele>
        <time>2014-05-04T06:42:14Z</time>
      </trkpt>
      <trkpt lat="45.19766" lon="0.69994">
        <ele>84</ele>
        <time>2014-05-04T06:42:20Z</time>
      </trkpt>
      <trkpt lat="45.19783" lon="0.69977">
        <ele>84</ele>
        <time>2014-05-04T06:42:25Z</time>
      </trkpt>
      <trkpt lat="45.19802" lon="0.69959">
        <ele>83</ele>
        <time>2014-05-04T06:42:31Z</time>
      </trkpt>
      <trkpt lat="45.19814" lon="0.69948">
        <ele>84</ele>
        <time>2014-05-04T06:42:34Z</time>
      </trkpt>
      <trkpt lat="45.19838" lon="0.69927">
        <ele>84</ele>
        <time>2014-05-04T06:42:40Z</time>
      </trkpt>
      <trkpt lat="45.19857" lon="0.6991">
        <ele>84</ele>
        <time>2014-05-04T06:42:46Z</time>
      </trkpt>
      <trkpt lat="45.19878" lon="0.69889">
        <ele>85</ele>
        <time>2014-05-04T06:42:52Z</time>
      </trkpt>
      <trkpt lat="45.19901" lon="0.69867">
        <ele>85</ele>
        <time>2014-05-04T06:42:58Z</time>
      </trkpt>
      <trkpt lat="45.19923" lon="0.69847">
        <ele>85</ele>
        <time>2014-05-04T06:43:04Z</time>
      </trkpt>
      <trkpt lat="45.1994" lon="0.69825">
        <ele>85</ele>
        <time>2014-05-04T06:43:10Z</time>
      </trkpt>
      <trkpt lat="45.19952" lon="0.69813">
        <ele>85</ele>
        <time>2014-05-04T06:43:15Z</time>
      </trkpt>
      <trkpt lat="45.19969" lon="0.69819">
        <ele>86</ele>
        <time>2014-05-04T06:43:25Z</time>
      </trkpt>
      <trkpt lat="45.1998" lon="0.69813">
        <ele>86</ele>
        <time>2014-05-04T06:43:31Z</time>
      </trkpt>
      <trkpt lat="45.1998" lon="0.69813">
        <ele>86</ele>
        <time>2014-05-04T06:43:39Z</time>
      </trkpt>
      <trkpt lat="45.1998" lon="0.69813">
        <ele>86</ele>
        <time>2014-05-04T06:54:51Z</time>
      </trkpt>
      <trkpt lat="45.19992" lon="0.69834">
        <ele>87</ele>
        <time>2014-05-04T06:54:51Z</time>
      </trkpt>
      <trkpt lat="45.20008" lon="0.69852">
        <ele>90</ele>
        <time>2014-05-04T06:54:58Z</time>
      </trkpt>
      <trkpt lat="45.20014" lon="0.69858">
        <ele>91</ele>
        <time>2014-05-04T06:55:01Z</time>
      </trkpt>
      <trkpt lat="45.20037" lon="0.69849">
        <ele>89</ele>
        <time>2014-05-04T06:55:09Z</time>
      </trkpt>
      <trkpt lat="45.20055" lon="0.6983">
        <ele>86</ele>
        <time>2014-05-04T06:55:15Z</time>
      </trkpt>
      <trkpt lat="45.20078" lon="0.69807">
        <ele>85</ele>
        <time>2014-05-04T06:55:21Z</time>
      </trkpt>
      <trkpt lat="45.20089" lon="0.69779">
        <ele>85</ele>
        <time>2014-05-04T06:55:27Z</time>
      </trkpt>
      <trkpt lat="45.20107" lon="0.69778">
        <ele>86</ele>
        <time>2014-05-04T06:55:34Z</time>
      </trkpt>
      <trkpt lat="45.20131" lon="0.69797">
        <ele>87</ele>
        <time>2014-05-04T06:55:39Z</time>
      </trkpt>
      <trkpt lat="45.20155" lon="0.69814">
        <ele>87</ele>
        <time>2014-05-04T06:55:45Z</time>
      </trkpt>
      <trkpt lat="45.20175" lon="0.69827">
        <ele>87</ele>
        <time>2014-05-04T06:55:50Z</time>
      </trkpt>
      <trkpt lat="45.202" lon="0.69841">
        <ele>88</ele>
        <time>2014-05-04T06:55:56Z</time>
      </trkpt>
      <trkpt lat="45.20222" lon="0.69852">
        <ele>89</ele>
        <time>2014-05-04T06:56:01Z</time>
      </trkpt>
      <trkpt lat="45.20245" lon="0.69862">
        <ele>90</ele>
        <time>2014-05-04T06:56:07Z</time>
      </trkpt>
      <trkpt lat="45.20272" lon="0.69867">
        <ele>90</ele>
        <time>2014-05-04T06:56:13Z</time>
      </trkpt>
      <trkpt lat="45.20287" lon="0.69869">
        <ele>90</ele>
        <time>2014-05-04T06:56:16Z</time>
      </trkpt>
      <trkpt lat="45.20312" lon="0.69886">
        <ele>90</ele>
        <time>2014-05-04T06:56:22Z</time>
      </trkpt>
      <trkpt lat="45.20332" lon="0.69901">
        <ele>90</ele>
        <time>2014-05-04T06:56:27Z</time>
      </trkpt>
      <trkpt lat="45.20352" lon="0.69919">
        <ele>90</ele>
        <time>2014-05-04T06:56:33Z</time>
      </trkpt>
      <trkpt lat="45.20365" lon="0.69931">
        <ele>93</ele>
        <time>2014-05-04T06:56:37Z</time>
      </trkpt>
      <trkpt lat="45.20385" lon="0.69952">
        <ele>95</ele>
        <time>2014-05-04T06:56:44Z</time>
      </trkpt>
      <trkpt lat="45.20403" lon="0.69966">
        <ele>97</ele>
        <time>2014-05-04T06:56:51Z</time>
      </trkpt>
      <trkpt lat="45.20419" lon="0.69982">
        <ele>98</ele>
        <time>2014-05-04T06:56:58Z</time>
      </trkpt>
      <trkpt lat="45.20425" lon="0.69988">
        <ele>99</ele>
        <time>2014-05-04T06:57:01Z</time>
      </trkpt>
      <trkpt lat="45.20441" lon="0.70007">
        <ele>101</ele>
        <time>2014-05-04T06:57:09Z</time>
      </trkpt>
      <trkpt lat="45.20452" lon="0.7002">
        <ele>104</ele>
        <time>2014-05-04T06:57:14Z</time>
      </trkpt>
      <trkpt lat="45.2047" lon="0.70028">
        <ele>106</ele>
        <time>2014-05-04T06:57:21Z</time>
      </trkpt>
      <trkpt lat="45.20488" lon="0.7003">
        <ele>106</ele>
        <time>2014-05-04T06:57:29Z</time>
      </trkpt>
      <trkpt lat="45.20498" lon="0.70032">
        <ele>106</ele>
        <time>2014-05-04T06:57:35Z</time>
      </trkpt>
      <trkpt lat="45.20528" lon="0.70041">
        <ele>106</ele>
        <time>2014-05-04T06:57:48Z</time>
      </trkpt>
      <trkpt lat="45.20544" lon="0.70045">
        <ele>105</ele>
        <time>2014-05-04T06:57:55Z</time>
      </trkpt>
      <trkpt lat="45.20564" lon="0.7005">
        <ele>104</ele>
        <time>2014-05-04T06:58:04Z</time>
      </trkpt>
      <trkpt lat="45.20586" lon="0.70059">
        <ele>104</ele>
        <time>2014-05-04T06:58:15Z</time>
      </trkpt>
      <trkpt lat="45.20603" lon="0.70072">
        <ele>104</ele>
        <time>2014-05-04T06:58:25Z</time>
      </trkpt>
      <trkpt lat="45.20616" lon="0.70081">
        <ele>105</ele>
        <time>2014-05-04T06:58:31Z</time>
      </trkpt>
      <trkpt lat="45.20627" lon="0.70093">
        <ele>106</ele>
        <time>2014-05-04T06:58:41Z</time>
      </trkpt>
      <trkpt lat="45.20647" lon="0.7011">
        <ele>108</ele>
        <time>2014-05-04T06:58:51Z</time>
      </trkpt>
      <trkpt lat="45.20663" lon="0.70123">
        <ele>109</ele>
        <time>2014-05-04T06:59:01Z</time>
      </trkpt>
      <trkpt lat="45.20675" lon="0.70136">
        <ele>111</ele>
        <time>2014-05-04T06:59:10Z</time>
      </trkpt>
      <trkpt lat="45.20697" lon="0.70155">
        <ele>113</ele>
        <time>2014-05-04T06:59:23Z</time>
      </trkpt>
      <trkpt lat="45.20716" lon="0.70167">
        <ele>113</ele>
        <time>2014-05-04T06:59:32Z</time>
      </trkpt>
      <trkpt lat="45.20733" lon="0.70182">
        <ele>115</ele>
        <time>2014-05-04T06:59:41Z</time>
      </trkpt>
      <trkpt lat="45.20716" lon="0.70189">
        <ele>117</ele>
        <time>2014-05-04T06:59:55Z</time>
      </trkpt>
      <trkpt lat="45.20693" lon="0.70179">
        <ele>117</ele>
        <time>2014-05-04T07:00:06Z</time>
      </trkpt>
      <trkpt lat="45.20677" lon="0.70177">
        <ele>118</ele>
        <time>2014-05-04T07:00:13Z</time>
      </trkpt>
      <trkpt lat="45.20661" lon="0.70171">
        <ele>119</ele>
        <time>2014-05-04T07:00:22Z</time>
      </trkpt>
      <trkpt lat="45.2064" lon="0.7017">
        <ele>121</ele>
        <time>2014-05-04T07:00:32Z</time>
      </trkpt>
      <trkpt lat="45.20623" lon="0.7016">
        <ele>121</ele>
        <time>2014-05-04T07:00:41Z</time>
      </trkpt>
      <trkpt lat="45.20601" lon="0.70156">
        <ele>122</ele>
        <time>2014-05-04T07:00:51Z</time>
      </trkpt>
      <trkpt lat="45.20578" lon="0.70151">
        <ele>124</ele>
        <time>2014-05-04T07:01:01Z</time>
      </trkpt>
      <trkpt lat="45.20555" lon="0.70149">
        <ele>126</ele>
        <time>2014-05-04T07:01:11Z</time>
      </trkpt>
      <trkpt lat="45.20542" lon="0.7015">
        <ele>128</ele>
        <time>2014-05-04T07:01:18Z</time>
      </trkpt>
      <trkpt lat="45.20531" lon="0.70155">
        <ele>131</ele>
        <time>2014-05-04T07:01:23Z</time>
      </trkpt>
      <trkpt lat="45.2051" lon="0.70165">
        <ele>135</ele>
        <time>2014-05-04T07:01:32Z</time>
      </trkpt>
      <trkpt lat="45.2049" lon="0.70173">
        <ele>139</ele>
        <time>2014-05-04T07:01:41Z</time>
      </trkpt>
      <trkpt lat="45.20484" lon="0.70177">
        <ele>139</ele>
        <time>2014-05-04T07:01:44Z</time>
      </trkpt>
      <trkpt lat="45.20475" lon="0.70185">
        <ele>141</ele>
        <time>2014-05-04T07:01:48Z</time>
      </trkpt>
      <trkpt lat="45.20463" lon="0.70194">
        <ele>143</ele>
        <time>2014-05-04T07:01:56Z</time>
      </trkpt>
      <trkpt lat="45.20447" lon="0.7022">
        <ele>147</ele>
        <time>2014-05-04T07:02:06Z</time>
      </trkpt>
      <trkpt lat="45.20435" lon="0.70244">
        <ele>151</ele>
        <time>2014-05-04T07:02:15Z</time>
      </trkpt>
      <trkpt lat="45.20425" lon="0.70262">
        <ele>154</ele>
        <time>2014-05-04T07:02:25Z</time>
      </trkpt>
      <trkpt lat="45.20408" lon="0.70285">
        <ele>157</ele>
        <time>2014-05-04T07:02:35Z</time>
      </trkpt>
      <trkpt lat="45.20389" lon="0.7028">
        <ele>154</ele>
        <time>2014-05-04T07:02:43Z</time>
      </trkpt>
      <trkpt lat="45.20383" lon="0.70258">
        <ele>150</ele>
        <time>2014-05-04T07:02:51Z</time>
      </trkpt>
      <trkpt lat="45.20374" lon="0.70238">
        <ele>146</ele>
        <time>2014-05-04T07:03:00Z</time>
      </trkpt>
      <trkpt lat="45.20352" lon="0.70247">
        <ele>145</ele>
        <time>2014-05-04T07:03:12Z</time>
      </trkpt>
      <trkpt lat="45.20338" lon="0.70261">
        <ele>145</ele>
        <time>2014-05-04T07:03:24Z</time>
      </trkpt>
      <trkpt lat="45.20342" lon="0.70282">
        <ele>148</ele>
        <time>2014-05-04T07:03:35Z</time>
      </trkpt>
      <trkpt lat="45.20334" lon="0.70302">
        <ele>149</ele>
        <time>2014-05-04T07:03:45Z</time>
      </trkpt>
      <trkpt lat="45.2033" lon="0.70326">
        <ele>152</ele>
        <time>2014-05-04T07:03:54Z</time>
      </trkpt>
      <trkpt lat="45.20336" lon="0.70346">
        <ele>155</ele>
        <time>2014-05-04T07:04:05Z</time>
      </trkpt>
      <trkpt lat="45.20337" lon="0.7036">
        <ele>157</ele>
        <time>2014-05-04T07:04:15Z</time>
      </trkpt>
      <trkpt lat="45.20337" lon="0.70378">
        <ele>159</ele>
        <time>2014-05-04T07:04:26Z</time>
      </trkpt>
      <trkpt lat="45.2035" lon="0.70413">
        <ele>166</ele>
        <time>2014-05-04T07:04:40Z</time>
      </trkpt>
      <trkpt lat="45.20358" lon="0.70435">
        <ele>169</ele>
        <time>2014-05-04T07:04:49Z</time>
      </trkpt>
      <trkpt lat="45.20362" lon="0.70453">
        <ele>171</ele>
        <time>2014-05-04T07:04:56Z</time>
      </trkpt>
      <trkpt lat="45.2037" lon="0.70467">
        <ele>173</ele>
        <time>2014-05-04T07:05:02Z</time>
      </trkpt>
      <trkpt lat="45.20377" lon="0.70481">
        <ele>174</ele>
        <time>2014-05-04T07:05:09Z</time>
      </trkpt>
      <trkpt lat="45.20392" lon="0.70488">
        <ele>176</ele>
        <time>2014-05-04T07:05:20Z</time>
      </trkpt>
      <trkpt lat="45.20419" lon="0.70487">
        <ele>178</ele>
        <time>2014-05-04T07:05:33Z</time>
      </trkpt>
      <trkpt lat="45.20438" lon="0.70483">
        <ele>179</ele>
        <time>2014-05-04T07:05:45Z</time>
      </trkpt>
      <trkpt lat="45.20453" lon="0.70482">
        <ele>180</ele>
        <time>2014-05-04T07:05:53Z</time>
      </trkpt>
      <trkpt lat="45.20469" lon="0.70478">
        <ele>180</ele>
        <time>2014-05-04T07:06:03Z</time>
      </trkpt>
      <trkpt lat="45.20483" lon="0.70476">
        <ele>181</ele>
        <time>2014-05-04T07:06:10Z</time>
      </trkpt>
      <trkpt lat="45.205" lon="0.70475">
        <ele>181</ele>
        <time>2014-05-04T07:06:19Z</time>
      </trkpt>
      <trkpt lat="45.20524" lon="0.70471">
        <ele>181</ele>
        <time>2014-05-04T07:06:29Z</time>
      </trkpt>
      <trkpt lat="45.20545" lon="0.70465">
        <ele>181</ele>
        <time>2014-05-04T07:06:38Z</time>
      </trkpt>
      <trkpt lat="45.20562" lon="0.70461">
        <ele>181</ele>
        <time>2014-05-04T07:06:44Z</time>
      </trkpt>
      <trkpt lat="45.20582" lon="0.7046">
        <ele>181</ele>
        <time>2014-05-04T07:06:51Z</time>
      </trkpt>
      <trkpt lat="45.20599" lon="0.70476">
        <ele>180</ele>
        <time>2014-05-04T07:06:59Z</time>
      </trkpt>
      <trkpt lat="45.20606" lon="0.70497">
        <ele>180</ele>
        <time>2014-05-04T07:07:04Z</time>
      </trkpt>
      <trkpt lat="45.20615" lon="0.70533">
        <ele>180</ele>
        <time>2014-05-04T07:07:12Z</time>
      </trkpt>
      <trkpt lat="45.20628" lon="0.70564">
        <ele>180</ele>
        <time>2014-05-04T07:07:19Z</time>
      </trkpt>
      <trkpt lat="45.2064" lon="0.70584">
        <ele>179</ele>
        <time>2014-05-04T07:07:26Z</time>
      </trkpt>
      <trkpt lat="45.20647" lon="0.70594">
        <ele>179</ele>
        <time>2014-05-04T07:07:31Z</time>
      </trkpt>
      <trkpt lat="45.20655" lon="0.70608">
        <ele>179</ele>
        <time>2014-05-04T07:07:36Z</time>
      </trkpt>
      <trkpt lat="45.20667" lon="0.70633">
        <ele>179</ele>
        <time>2014-05-04T07:07:45Z</time>
      </trkpt>
      <trkpt lat="45.20677" lon="0.70658">
        <ele>180</ele>
        <time>2014-05-04T07:07:52Z</time>
      </trkpt>
      <trkpt lat="45.2069" lon="0.70685">
        <ele>181</ele>
        <time>2014-05-04T07:08:00Z</time>
      </trkpt>
      <trkpt lat="45.20703" lon="0.70712">
        <ele>183</ele>
        <time>2014-05-04T07:08:08Z</time>
      </trkpt>
      <trkpt lat="45.20711" lon="0.70727">
        <ele>183</ele>
        <time>2014-05-04T07:08:12Z</time>
      </trkpt>
      <trkpt lat="45.20728" lon="0.7075">
        <ele>185</ele>
        <time>2014-05-04T07:08:19Z</time>
      </trkpt>
      <trkpt lat="45.20743" lon="0.70772">
        <ele>186</ele>
        <time>2014-05-04T07:08:25Z</time>
      </trkpt>
      <trkpt lat="45.20754" lon="0.70798">
        <ele>188</ele>
        <time>2014-05-04T07:08:32Z</time>
      </trkpt>
      <trkpt lat="45.20764" lon="0.70823">
        <ele>189</ele>
        <time>2014-05-04T07:08:38Z</time>
      </trkpt>
      <trkpt lat="45.20769" lon="0.70834">
        <ele>190</ele>
        <time>2014-05-04T07:08:41Z</time>
      </trkpt>
      <trkpt lat="45.20774" lon="0.70844">
        <ele>189</ele>
        <time>2014-05-04T07:08:44Z</time>
      </trkpt>
      <trkpt lat="45.20782" lon="0.70864">
        <ele>189</ele>
        <time>2014-05-04T07:08:49Z</time>
      </trkpt>
      <trkpt lat="45.20792" lon="0.70887">
        <ele>188</ele>
        <time>2014-05-04T07:08:55Z</time>
      </trkpt>
      <trkpt lat="45.20798" lon="0.7092">
        <ele>188</ele>
        <time>2014-05-04T07:09:02Z</time>
      </trkpt>
      <trkpt lat="45.20799" lon="0.70938">
        <ele>187</ele>
        <time>2014-05-04T07:09:06Z</time>
      </trkpt>
      <trkpt lat="45.20797" lon="0.70967">
        <ele>187</ele>
        <time>2014-05-04T07:09:12Z</time>
      </trkpt>
      <trkpt lat="45.20795" lon="0.71006">
        <ele>187</ele>
        <time>2014-05-04T07:09:20Z</time>
      </trkpt>
      <trkpt lat="45.20792" lon="0.71039">
        <ele>187</ele>
        <time>2014-05-04T07:09:26Z</time>
      </trkpt>
      <trkpt lat="45.20787" lon="0.7107">
        <ele>188</ele>
        <time>2014-05-04T07:09:32Z</time>
      </trkpt>
      <trkpt lat="45.20782" lon="0.71104">
        <ele>187</ele>
        <time>2014-05-04T07:09:37Z</time>
      </trkpt>
      <trkpt lat="45.2078" lon="0.71138">
        <ele>184</ele>
        <time>2014-05-04T07:09:44Z</time>
      </trkpt>
      <trkpt lat="45.20777" lon="0.71182">
        <ele>181</ele>
        <time>2014-05-04T07:09:50Z</time>
      </trkpt>
      <trkpt lat="45.20775" lon="0.71231">
        <ele>177</ele>
        <time>2014-05-04T07:09:56Z</time>
      </trkpt>
      <trkpt lat="45.20773" lon="0.71271">
        <ele>176</ele>
        <time>2014-05-04T07:10:01Z</time>
      </trkpt>
      <trkpt lat="45.20772" lon="0.71302">
        <ele>176</ele>
        <time>2014-05-04T07:10:06Z</time>
      </trkpt>
      <trkpt lat="45.2077" lon="0.71335">
        <ele>177</ele>
        <time>2014-05-04T07:10:12Z</time>
      </trkpt>
      <trkpt lat="45.20772" lon="0.71371">
        <ele>179</ele>
        <time>2014-05-04T07:10:20Z</time>
      </trkpt>
      <trkpt lat="45.20788" lon="0.71395">
        <ele>179</ele>
        <time>2014-05-04T07:10:26Z</time>
      </trkpt>
      <trkpt lat="45.20805" lon="0.71419">
        <ele>179</ele>
        <time>2014-05-04T07:10:32Z</time>
      </trkpt>
      <trkpt lat="45.20824" lon="0.71444">
        <ele>179</ele>
        <time>2014-05-04T07:10:38Z</time>
      </trkpt>
      <trkpt lat="45.2084" lon="0.71471">
        <ele>180</ele>
        <time>2014-05-04T07:10:44Z</time>
      </trkpt>
      <trkpt lat="45.20838" lon="0.71509">
        <ele>182</ele>
        <time>2014-05-04T07:10:51Z</time>
      </trkpt>
      <trkpt lat="45.20822" lon="0.71533">
        <ele>184</ele>
        <time>2014-05-04T07:10:57Z</time>
      </trkpt>
      <trkpt lat="45.20809" lon="0.71549">
        <ele>185</ele>
        <time>2014-05-04T07:11:02Z</time>
      </trkpt>
      <trkpt lat="45.20801" lon="0.71569">
        <ele>186</ele>
        <time>2014-05-04T07:11:07Z</time>
      </trkpt>
      <trkpt lat="45.20794" lon="0.71598">
        <ele>188</ele>
        <time>2014-05-04T07:11:14Z</time>
      </trkpt>
      <trkpt lat="45.20825" lon="0.71621">
        <ele>189</ele>
        <time>2014-05-04T07:11:22Z</time>
      </trkpt>
      <trkpt lat="45.20852" lon="0.71625">
        <ele>189</ele>
        <time>2014-05-04T07:11:28Z</time>
      </trkpt>
      <trkpt lat="45.20873" lon="0.71626">
        <ele>190</ele>
        <time>2014-05-04T07:11:33Z</time>
      </trkpt>
      <trkpt lat="45.20889" lon="0.71627">
        <ele>190</ele>
        <time>2014-05-04T07:11:37Z</time>
      </trkpt>
      <trkpt lat="45.20908" lon="0.71641">
        <ele>191</ele>
        <time>2014-05-04T07:11:43Z</time>
      </trkpt>
      <trkpt lat="45.20927" lon="0.71659">
        <ele>192</ele>
        <time>2014-05-04T07:11:50Z</time>
      </trkpt>
      <trkpt lat="45.20943" lon="0.71683">
        <ele>193</ele>
        <time>2014-05-04T07:11:58Z</time>
      </trkpt>
      <trkpt lat="45.20965" lon="0.71698">
        <ele>194</ele>
        <time>2014-05-04T07:12:04Z</time>
      </trkpt>
      <trkpt lat="45.20988" lon="0.71716">
        <ele>195</ele>
        <time>2014-05-04T07:12:10Z</time>
      </trkpt>
      <trkpt lat="45.20999" lon="0.71727">
        <ele>195</ele>
        <time>2014-05-04T07:12:13Z</time>
      </trkpt>
      <trkpt lat="45.21016" lon="0.71743">
        <ele>196</ele>
        <time>2014-05-04T07:12:18Z</time>
      </trkpt>
      <trkpt lat="45.21038" lon="0.71758">
        <ele>198</ele>
        <time>2014-05-04T07:12:24Z</time>
      </trkpt>
      <trkpt lat="45.21062" lon="0.71766">
        <ele>200</ele>
        <time>2014-05-04T07:12:30Z</time>
      </trkpt>
      <trkpt lat="45.21082" lon="0.71768">
        <ele>202</ele>
        <time>2014-05-04T07:12:35Z</time>
      </trkpt>
      <trkpt lat="45.21101" lon="0.7177">
        <ele>202</ele>
        <time>2014-05-04T07:12:41Z</time>
      </trkpt>
      <trkpt lat="45.21121" lon="0.71779">
        <ele>202</ele>
        <time>2014-05-04T07:12:48Z</time>
      </trkpt>
      <trkpt lat="45.21136" lon="0.71785">
        <ele>202</ele>
        <time>2014-05-04T07:12:55Z</time>
      </trkpt>
      <trkpt lat="45.21158" lon="0.71809">
        <ele>203</ele>
        <time>2014-05-04T07:13:04Z</time>
      </trkpt>
      <trkpt lat="45.2117" lon="0.71838">
        <ele>204</ele>
        <time>2014-05-04T07:13:10Z</time>
      </trkpt>
      <trkpt lat="45.21176" lon="0.71858">
        <ele>203</ele>
        <time>2014-05-04T07:13:15Z</time>
      </trkpt>
      <trkpt lat="45.21188" lon="0.71893">
        <ele>203</ele>
        <time>2014-05-04T07:13:22Z</time>
      </trkpt>
      <trkpt lat="45.21195" lon="0.71922">
        <ele>202</ele>
        <time>2014-05-04T07:13:28Z</time>
      </trkpt>
      <trkpt lat="45.21202" lon="0.71951">
        <ele>202</ele>
        <time>2014-05-04T07:13:34Z</time>
      </trkpt>
      <trkpt lat="45.21207" lon="0.7199">
        <ele>202</ele>
        <time>2014-05-04T07:13:41Z</time>
      </trkpt>
      <trkpt lat="45.21203" lon="0.72027">
        <ele>201</ele>
        <time>2014-05-04T07:13:48Z</time>
      </trkpt>
      <trkpt lat="45.21202" lon="0.72058">
        <ele>201</ele>
        <time>2014-05-04T07:13:54Z</time>
      </trkpt>
      <trkpt lat="45.21201" lon="0.72089">
        <ele>201</ele>
        <time>2014-05-04T07:14:00Z</time>
      </trkpt>
      <trkpt lat="45.21207" lon="0.72124">
        <ele>201</ele>
        <time>2014-05-04T07:14:09Z</time>
      </trkpt>
      <trkpt lat="45.21225" lon="0.72129">
        <ele>201</ele>
        <time>2014-05-04T07:14:14Z</time>
      </trkpt>
      <trkpt lat="45.21244" lon="0.72146">
        <ele>202</ele>
        <time>2014-05-04T07:14:20Z</time>
      </trkpt>
      <trkpt lat="45.21252" lon="0.72155">
        <ele>202</ele>
        <time>2014-05-04T07:14:24Z</time>
      </trkpt>
      <trkpt lat="45.21273" lon="0.72167">
        <ele>203</ele>
        <time>2014-05-04T07:14:31Z</time>
      </trkpt>
      <trkpt lat="45.21295" lon="0.72178">
        <ele>203</ele>
        <time>2014-05-04T07:14:38Z</time>
      </trkpt>
      <trkpt lat="45.21309" lon="0.72186">
        <ele>203</ele>
        <time>2014-05-04T07:14:42Z</time>
      </trkpt>
      <trkpt lat="45.21337" lon="0.72201">
        <ele>203</ele>
        <time>2014-05-04T07:14:50Z</time>
      </trkpt>
      <trkpt lat="45.2136" lon="0.72218">
        <ele>203</ele>
        <time>2014-05-04T07:14:57Z</time>
      </trkpt>
      <trkpt lat="45.21379" lon="0.72236">
        <ele>203</ele>
        <time>2014-05-04T07:15:03Z</time>
      </trkpt>
      <trkpt lat="45.21388" lon="0.72246">
        <ele>203</ele>
        <time>2014-05-04T07:15:06Z</time>
      </trkpt>
      <trkpt lat="45.21405" lon="0.72262">
        <ele>203</ele>
        <time>2014-05-04T07:15:12Z</time>
      </trkpt>
      <trkpt lat="45.21426" lon="0.72281">
        <ele>203</ele>
        <time>2014-05-04T07:15:19Z</time>
      </trkpt>
      <trkpt lat="45.21451" lon="0.72301">
        <ele>201</ele>
        <time>2014-05-04T07:15:27Z</time>
      </trkpt>
      <trkpt lat="45.21475" lon="0.72317">
        <ele>198</ele>
        <time>2014-05-04T07:15:34Z</time>
      </trkpt>
      <trkpt lat="45.21494" lon="0.72332">
        <ele>197</ele>
        <time>2014-05-04T07:15:40Z</time>
      </trkpt>
      <trkpt lat="45.21507" lon="0.72364">
        <ele>195</ele>
        <time>2014-05-04T07:15:46Z</time>
      </trkpt>
      <trkpt lat="45.2152" lon="0.72401">
        <ele>195</ele>
        <time>2014-05-04T07:15:52Z</time>
      </trkpt>
      <trkpt lat="45.21522" lon="0.72434">
        <ele>196</ele>
        <time>2014-05-04T07:15:57Z</time>
      </trkpt>
      <trkpt lat="45.2152" lon="0.7247">
        <ele>198</ele>
        <time>2014-05-04T07:16:03Z</time>
      </trkpt>
      <trkpt lat="45.2152" lon="0.72498">
        <ele>199</ele>
        <time>2014-05-04T07:16:09Z</time>
      </trkpt>
      <trkpt lat="45.21521" lon="0.72517">
        <ele>200</ele>
        <time>2014-05-04T07:16:13Z</time>
      </trkpt>
      <trkpt lat="45.21521" lon="0.72535">
        <ele>201</ele>
        <time>2014-05-04T07:16:17Z</time>
      </trkpt>
      <trkpt lat="45.21522" lon="0.72568">
        <ele>202</ele>
        <time>2014-05-04T07:16:24Z</time>
      </trkpt>
      <trkpt lat="45.21521" lon="0.72595">
        <ele>203</ele>
        <time>2014-05-04T07:16:31Z</time>
      </trkpt>
      <trkpt lat="45.21529" lon="0.72625">
        <ele>202</ele>
        <time>2014-05-04T07:16:39Z</time>
      </trkpt>
      <trkpt lat="45.21544" lon="0.72636">
        <ele>202</ele>
        <time>2014-05-04T07:16:44Z</time>
      </trkpt>
      <trkpt lat="45.21556" lon="0.72644">
        <ele>201</ele>
        <time>2014-05-04T07:16:48Z</time>
      </trkpt>
      <trkpt lat="45.21573" lon="0.72653">
        <ele>201</ele>
        <time>2014-05-04T07:16:53Z</time>
      </trkpt>
      <trkpt lat="45.21584" lon="0.72658">
        <ele>201</ele>
        <time>2014-05-04T07:16:56Z</time>
      </trkpt>
      <trkpt lat="45.21607" lon="0.72672">
        <ele>199</ele>
        <time>2014-05-04T07:17:02Z</time>
      </trkpt>
      <trkpt lat="45.21629" lon="0.72692">
        <ele>198</ele>
        <time>2014-05-04T07:17:08Z</time>
      </trkpt>
      <trkpt lat="45.21652" lon="0.72716">
        <ele>196</ele>
        <time>2014-05-04T07:17:14Z</time>
      </trkpt>
      <trkpt lat="45.21674" lon="0.72737">
        <ele>196</ele>
        <time>2014-05-04T07:17:19Z</time>
      </trkpt>
      <trkpt lat="45.21695" lon="0.72757">
        <ele>195</ele>
        <time>2014-05-04T07:17:24Z</time>
      </trkpt>
      <trkpt lat="45.21717" lon="0.72779">
        <ele>194</ele>
        <time>2014-05-04T07:17:29Z</time>
      </trkpt>
      <trkpt lat="45.2174" lon="0.72812">
        <ele>193</ele>
        <time>2014-05-04T07:17:35Z</time>
      </trkpt>
      <trkpt lat="45.21736" lon="0.72857">
        <ele>191</ele>
        <time>2014-05-04T07:17:41Z</time>
      </trkpt>
      <trkpt lat="45.21728" lon="0.72906">
        <ele>188</ele>
        <time>2014-05-04T07:17:47Z</time>
      </trkpt>
      <trkpt lat="45.21735" lon="0.72951">
        <ele>186</ele>
        <time>2014-05-04T07:17:52Z</time>
      </trkpt>
      <trkpt lat="45.21765" lon="0.73004">
        <ele>183</ele>
        <time>2014-05-04T07:17:59Z</time>
      </trkpt>
      <trkpt lat="45.21792" lon="0.73038">
        <ele>180</ele>
        <time>2014-05-04T07:18:04Z</time>
      </trkpt>
      <trkpt lat="45.21821" lon="0.73084">
        <ele>177</ele>
        <time>2014-05-04T07:18:10Z</time>
      </trkpt>
      <trkpt lat="45.21835" lon="0.73126">
        <ele>179</ele>
        <time>2014-05-04T07:18:15Z</time>
      </trkpt>
      <trkpt lat="45.21837" lon="0.73148">
        <ele>181</ele>
        <time>2014-05-04T07:18:18Z</time>
      </trkpt>
      <trkpt lat="45.21841" lon="0.73166">
        <ele>182</ele>
        <time>2014-05-04T07:18:23Z</time>
      </trkpt>
      <trkpt lat="45.21869" lon="0.73179">
        <ele>183</ele>
        <time>2014-05-04T07:18:30Z</time>
      </trkpt>
      <trkpt lat="45.21899" lon="0.73202">
        <ele>185</ele>
        <time>2014-05-04T07:18:37Z</time>
      </trkpt>
      <trkpt lat="45.21926" lon="0.73222">
        <ele>187</ele>
        <time>2014-05-04T07:18:44Z</time>
      </trkpt>
      <trkpt lat="45.21951" lon="0.7324">
        <ele>189</ele>
        <time>2014-05-04T07:18:51Z</time>
      </trkpt>
      <trkpt lat="45.21972" lon="0.73254">
        <ele>191</ele>
        <time>2014-05-04T07:18:57Z</time>
      </trkpt>
      <trkpt lat="45.21997" lon="0.73268">
        <ele>193</ele>
        <time>2014-05-04T07:19:04Z</time>
      </trkpt>
      <trkpt lat="45.22015" lon="0.73279">
        <ele>192</ele>
        <time>2014-05-04T07:19:09Z</time>
      </trkpt>
      <trkpt lat="45.22033" lon="0.73289">
        <ele>192</ele>
        <time>2014-05-04T07:19:14Z</time>
      </trkpt>
      <trkpt lat="45.22056" lon="0.73304">
        <ele>191</ele>
        <time>2014-05-04T07:19:21Z</time>
      </trkpt>
      <trkpt lat="45.22076" lon="0.73317">
        <ele>189</ele>
        <time>2014-05-04T07:19:27Z</time>
      </trkpt>
      <trkpt lat="45.22094" lon="0.73328">
        <ele>187</ele>
        <time>2014-05-04T07:19:34Z</time>
      </trkpt>
      <trkpt lat="45.2211" lon="0.73338">
        <ele>183</ele>
        <time>2014-05-04T07:19:39Z</time>
      </trkpt>
      <trkpt lat="45.2213" lon="0.73349">
        <ele>179</ele>
        <time>2014-05-04T07:19:44Z</time>
      </trkpt>
      <trkpt lat="45.22156" lon="0.73362">
        <ele>174</ele>
        <time>2014-05-04T07:19:51Z</time>
      </trkpt>
      <trkpt lat="45.22178" lon="0.7337">
        <ele>170</ele>
        <time>2014-05-04T07:19:56Z</time>
      </trkpt>
      <trkpt lat="45.22211" lon="0.73386">
        <ele>168</ele>
        <time>2014-05-04T07:20:02Z</time>
      </trkpt>
      <trkpt lat="45.22242" lon="0.73418">
        <ele>166</ele>
        <time>2014-05-04T07:20:07Z</time>
      </trkpt>
      <trkpt lat="45.22266" lon="0.73456">
        <ele>169</ele>
        <time>2014-05-04T07:20:12Z</time>
      </trkpt>
      <trkpt lat="45.22296" lon="0.73499">
        <ele>175</ele>
        <time>2014-05-04T07:20:17Z</time>
      </trkpt>
      <trkpt lat="45.22324" lon="0.73499">
        <ele>179</ele>
        <time>2014-05-04T07:20:23Z</time>
      </trkpt>
      <trkpt lat="45.22348" lon="0.73494">
        <ele>180</ele>
        <time>2014-05-04T07:20:32Z</time>
      </trkpt>
      <trkpt lat="45.22367" lon="0.73487">
        <ele>181</ele>
        <time>2014-05-04T07:20:41Z</time>
      </trkpt>
      <trkpt lat="45.22385" lon="0.73482">
        <ele>182</ele>
        <time>2014-05-04T07:20:51Z</time>
      </trkpt>
      <trkpt lat="45.22397" lon="0.73477">
        <ele>183</ele>
        <time>2014-05-04T07:20:58Z</time>
      </trkpt>
      <trkpt lat="45.22409" lon="0.73474">
        <ele>183</ele>
        <time>2014-05-04T07:21:05Z</time>
      </trkpt>
      <trkpt lat="45.22422" lon="0.73468">
        <ele>183</ele>
        <time>2014-05-04T07:21:13Z</time>
      </trkpt>
      <trkpt lat="45.22444" lon="0.73461">
        <ele>183</ele>
        <time>2014-05-04T07:21:25Z</time>
      </trkpt>
      <trkpt lat="45.22464" lon="0.73453">
        <ele>182</ele>
        <time>2014-05-04T07:21:35Z</time>
      </trkpt>
      <trkpt lat="45.22484" lon="0.73447">
        <ele>182</ele>
        <time>2014-05-04T07:21:44Z</time>
      </trkpt>
      <trkpt lat="45.22496" lon="0.73443">
        <ele>182</ele>
        <time>2014-05-04T07:21:50Z</time>
      </trkpt>
      <trkpt lat="45.22519" lon="0.73438">
        <ele>182</ele>
        <time>2014-05-04T07:21:58Z</time>
      </trkpt>
      <trkpt lat="45.22545" lon="0.73431">
        <ele>184</ele>
        <time>2014-05-04T07:22:03Z</time>
      </trkpt>
      <trkpt lat="45.22571" lon="0.73425">
        <ele>185</ele>
        <time>2014-05-04T07:22:09Z</time>
      </trkpt>
      <trkpt lat="45.22593" lon="0.73421">
        <ele>187</ele>
        <time>2014-05-04T07:22:14Z</time>
      </trkpt>
      <trkpt lat="45.22616" lon="0.73413">
        <ele>189</ele>
        <time>2014-05-04T07:22:20Z</time>
      </trkpt>
      <trkpt lat="45.22639" lon="0.73398">
        <ele>190</ele>
        <time>2014-05-04T07:22:28Z</time>
      </trkpt>
      <trkpt lat="45.22657" lon="0.73392">
        <ele>192</ele>
        <time>2014-05-04T07:22:35Z</time>
      </trkpt>
      <trkpt lat="45.22667" lon="0.73389">
        <ele>192</ele>
        <time>2014-05-04T07:22:39Z</time>
      </trkpt>
      <trkpt lat="45.22684" lon="0.7339">
        <ele>192</ele>
        <time>2014-05-04T07:22:47Z</time>
      </trkpt>
      <trkpt lat="45.22691" lon="0.73391">
        <ele>192</ele>
        <time>2014-05-04T07:22:50Z</time>
      </trkpt>
      <trkpt lat="45.2271" lon="0.73392">
        <ele>192</ele>
        <time>2014-05-04T07:22:58Z</time>
      </trkpt>
      <trkpt lat="45.22718" lon="0.73392">
        <ele>192</ele>
        <time>2014-05-04T07:23:01Z</time>
      </trkpt>
      <trkpt lat="45.22734" lon="0.73384">
        <ele>192</ele>
        <time>2014-05-04T07:23:09Z</time>
      </trkpt>
      <trkpt lat="45.22744" lon="0.73366">
        <ele>190</ele>
        <time>2014-05-04T07:23:16Z</time>
      </trkpt>
      <trkpt lat="45.22751" lon="0.73344">
        <ele>189</ele>
        <time>2014-05-04T07:23:22Z</time>
      </trkpt>
      <trkpt lat="45.22755" lon="0.73333">
        <ele>188</ele>
        <time>2014-05-04T07:23:25Z</time>
      </trkpt>
      <trkpt lat="45.22758" lon="0.73321">
        <ele>188</ele>
        <time>2014-05-04T07:23:28Z</time>
      </trkpt>
      <trkpt lat="45.22762" lon="0.73309">
        <ele>187</ele>
        <time>2014-05-04T07:23:31Z</time>
      </trkpt>
      <trkpt lat="45.2277" lon="0.7328">
        <ele>186</ele>
        <time>2014-05-04T07:23:39Z</time>
      </trkpt>
      <trkpt lat="45.22779" lon="0.73255">
        <ele>186</ele>
        <time>2014-05-04T07:23:46Z</time>
      </trkpt>
      <trkpt lat="45.22788" lon="0.7323">
        <ele>186</ele>
        <time>2014-05-04T07:23:52Z</time>
      </trkpt>
      <trkpt lat="45.22801" lon="0.73201">
        <ele>187</ele>
        <time>2014-05-04T07:23:58Z</time>
      </trkpt>
      <trkpt lat="45.22823" lon="0.73174">
        <ele>187</ele>
        <time>2014-05-04T07:24:04Z</time>
      </trkpt>
      <trkpt lat="45.22844" lon="0.73151">
        <ele>185</ele>
        <time>2014-05-04T07:24:11Z</time>
      </trkpt>
      <trkpt lat="45.22867" lon="0.73145">
        <ele>184</ele>
        <time>2014-05-04T07:24:20Z</time>
      </trkpt>
      <trkpt lat="45.2289" lon="0.7316">
        <ele>183</ele>
        <time>2014-05-04T07:24:30Z</time>
      </trkpt>
      <trkpt lat="45.22916" lon="0.73179">
        <ele>182</ele>
        <time>2014-05-04T07:24:39Z</time>
      </trkpt>
      <trkpt lat="45.22925" lon="0.73201">
        <ele>181</ele>
        <time>2014-05-04T07:24:45Z</time>
      </trkpt>
      <trkpt lat="45.22929" lon="0.73233">
        <ele>180</ele>
        <time>2014-05-04T07:24:52Z</time>
      </trkpt>
      <trkpt lat="45.22925" lon="0.73262">
        <ele>180</ele>
        <time>2014-05-04T07:24:59Z</time>
      </trkpt>
      <trkpt lat="45.22925" lon="0.73281">
        <ele>181</ele>
        <time>2014-05-04T07:25:04Z</time>
      </trkpt>
      <trkpt lat="45.22926" lon="0.73292">
        <ele>181</ele>
        <time>2014-05-04T07:25:07Z</time>
      </trkpt>
      <trkpt lat="45.22923" lon="0.73311">
        <ele>181</ele>
        <time>2014-05-04T07:25:13Z</time>
      </trkpt>
      <trkpt lat="45.22919" lon="0.73332">
        <ele>182</ele>
        <time>2014-05-04T07:25:20Z</time>
      </trkpt>
      <trkpt lat="45.22916" lon="0.73353">
        <ele>181</ele>
        <time>2014-05-04T07:25:25Z</time>
      </trkpt>
      <trkpt lat="45.2291" lon="0.73368">
        <ele>181</ele>
        <time>2014-05-04T07:25:30Z</time>
      </trkpt>
      <trkpt lat="45.22901" lon="0.73381">
        <ele>181</ele>
        <time>2014-05-04T07:25:36Z</time>
      </trkpt>
      <trkpt lat="45.22887" lon="0.73409">
        <ele>183</ele>
        <time>2014-05-04T07:25:48Z</time>
      </trkpt>
      <trkpt lat="45.22872" lon="0.73424">
        <ele>185</ele>
        <time>2014-05-04T07:25:55Z</time>
      </trkpt>
      <trkpt lat="45.22858" lon="0.73437">
        <ele>187</ele>
        <time>2014-05-04T07:25:59Z</time>
      </trkpt>
      <trkpt lat="45.22846" lon="0.73455">
        <ele>189</ele>
        <time>2014-05-04T07:26:05Z</time>
      </trkpt>
      <trkpt lat="45.22834" lon="0.7348">
        <ele>190</ele>
        <time>2014-05-04T07:26:13Z</time>
      </trkpt>
      <trkpt lat="45.22827" lon="0.73497">
        <ele>191</ele>
        <time>2014-05-04T07:26:19Z</time>
      </trkpt>
      <trkpt lat="45.22815" lon="0.73523">
        <ele>189</ele>
        <time>2014-05-04T07:26:28Z</time>
      </trkpt>
      <trkpt lat="45.22808" lon="0.73536">
        <ele>189</ele>
        <time>2014-05-04T07:26:33Z</time>
      </trkpt>
      <trkpt lat="45.22792" lon="0.73569">
        <ele>188</ele>
        <time>2014-05-04T07:26:42Z</time>
      </trkpt>
      <trkpt lat="45.2277" lon="0.73599">
        <ele>188</ele>
        <time>2014-05-04T07:26:50Z</time>
      </trkpt>
      <trkpt lat="45.22753" lon="0.7362">
        <ele>188</ele>
        <time>2014-05-04T07:26:55Z</time>
      </trkpt>
      <trkpt lat="45.22736" lon="0.73638">
        <ele>187</ele>
        <time>2014-05-04T07:27:01Z</time>
      </trkpt>
      <trkpt lat="45.22717" lon="0.7365">
        <ele>187</ele>
        <time>2014-05-04T07:27:08Z</time>
      </trkpt>
      <trkpt lat="45.22699" lon="0.73659">
        <ele>188</ele>
        <time>2014-05-04T07:27:13Z</time>
      </trkpt>
      <trkpt lat="45.2268" lon="0.73669">
        <ele>188</ele>
        <time>2014-05-04T07:27:18Z</time>
      </trkpt>
      <trkpt lat="45.22665" lon="0.73675">
        <ele>188</ele>
        <time>2014-05-04T07:27:23Z</time>
      </trkpt>
      <trkpt lat="45.22645" lon="0.73685">
        <ele>187</ele>
        <time>2014-05-04T07:27:29Z</time>
      </trkpt>
      <trkpt lat="45.22626" lon="0.73698">
        <ele>187</ele>
        <time>2014-05-04T07:27:36Z</time>
      </trkpt>
      <trkpt lat="45.22601" lon="0.73703">
        <ele>187</ele>
        <time>2014-05-04T07:27:45Z</time>
      </trkpt>
      <trkpt lat="45.22584" lon="0.73705">
        <ele>188</ele>
        <time>2014-05-04T07:27:51Z</time>
      </trkpt>
      <trkpt lat="45.22567" lon="0.73702">
        <ele>189</ele>
        <time>2014-05-04T07:27:59Z</time>
      </trkpt>
      <trkpt lat="45.22555" lon="0.73702">
        <ele>190</ele>
        <time>2014-05-04T07:28:04Z</time>
      </trkpt>
      <trkpt lat="45.22545" lon="0.73708">
        <ele>190</ele>
        <time>2014-05-04T07:28:10Z</time>
      </trkpt>
      <trkpt lat="45.22545" lon="0.73708">
        <ele>190</ele>
        <time>2014-05-04T07:28:16Z</time>
      </trkpt>
      <trkpt lat="45.22545" lon="0.73708">
        <ele>190</ele>
        <time>2014-05-04T07:28:16Z</time>
      </trkpt>
      <trkpt lat="45.22545" lon="0.73708">
        <ele>190</ele>
        <time>2014-05-04T07:31:43Z</time>
      </trkpt>
      <trkpt lat="45.22571" lon="0.73701">
        <ele>189</ele>
        <time>2014-05-04T07:31:43Z</time>
      </trkpt>
      <trkpt lat="45.22603" lon="0.73702">
        <ele>187</ele>
        <time>2014-05-04T07:31:49Z</time>
      </trkpt>
      <trkpt lat="45.22624" lon="0.73696">
        <ele>187</ele>
        <time>2014-05-04T07:31:56Z</time>
      </trkpt>
      <trkpt lat="45.22634" lon="0.73722">
        <ele>183</ele>
        <time>2014-05-04T07:32:05Z</time>
      </trkpt>
      <trkpt lat="45.22642" lon="0.73765">
        <ele>179</ele>
        <time>2014-05-04T07:32:12Z</time>
      </trkpt>
      <trkpt lat="45.22653" lon="0.73805">
        <ele>175</ele>
        <time>2014-05-04T07:32:18Z</time>
      </trkpt>
      <trkpt lat="45.22658" lon="0.73829">
        <ele>174</ele>
        <time>2014-05-04T07:32:23Z</time>
      </trkpt>
      <trkpt lat="45.22674" lon="0.73852">
        <ele>174</ele>
        <time>2014-05-04T07:32:31Z</time>
      </trkpt>
      <trkpt lat="45.22686" lon="0.73869">
        <ele>175</ele>
        <time>2014-05-04T07:32:39Z</time>
      </trkpt>
      <trkpt lat="45.22691" lon="0.73874">
        <ele>175</ele>
        <time>2014-05-04T07:32:42Z</time>
      </trkpt>
      <trkpt lat="45.22702" lon="0.73886">
        <ele>175</ele>
        <time>2014-05-04T07:32:50Z</time>
      </trkpt>
      <trkpt lat="45.2271" lon="0.739">
        <ele>175</ele>
        <time>2014-05-04T07:32:57Z</time>
      </trkpt>
      <trkpt lat="45.22722" lon="0.73918">
        <ele>176</ele>
        <time>2014-05-04T07:33:07Z</time>
      </trkpt>
      <trkpt lat="45.22727" lon="0.73924">
        <ele>176</ele>
        <time>2014-05-04T07:33:10Z</time>
      </trkpt>
      <trkpt lat="45.22745" lon="0.73948">
        <ele>177</ele>
        <time>2014-05-04T07:33:19Z</time>
      </trkpt>
      <trkpt lat="45.22756" lon="0.73973">
        <ele>179</ele>
        <time>2014-05-04T07:33:26Z</time>
      </trkpt>
      <trkpt lat="45.22773" lon="0.73998">
        <ele>182</ele>
        <time>2014-05-04T07:33:34Z</time>
      </trkpt>
      <trkpt lat="45.2279" lon="0.74008">
        <ele>185</ele>
        <time>2014-05-04T07:33:43Z</time>
      </trkpt>
      <trkpt lat="45.22796" lon="0.74012">
        <ele>185</ele>
        <time>2014-05-04T07:33:47Z</time>
      </trkpt>
      <trkpt lat="45.22808" lon="0.74024">
        <ele>187</ele>
        <time>2014-05-04T07:33:59Z</time>
      </trkpt>
      <trkpt lat="45.22822" lon="0.74034">
        <ele>188</ele>
        <time>2014-05-04T07:34:15Z</time>
      </trkpt>
      <trkpt lat="45.22839" lon="0.74045">
        <ele>188</ele>
        <time>2014-05-04T07:34:32Z</time>
      </trkpt>
      <trkpt lat="45.22857" lon="0.74054">
        <ele>187</ele>
        <time>2014-05-04T07:34:48Z</time>
      </trkpt>
      <trkpt lat="45.22868" lon="0.74054">
        <ele>187</ele>
        <time>2014-05-04T07:34:59Z</time>
      </trkpt>
      <trkpt lat="45.22868" lon="0.74054">
        <ele>187</ele>
        <time>2014-05-04T07:35:07Z</time>
      </trkpt>
      <trkpt lat="45.22868" lon="0.74054">
        <ele>187</ele>
        <time>2014-05-04T07:35:16Z</time>
      </trkpt>
      <trkpt lat="45.22876" lon="0.74048">
        <ele>186</ele>
        <time>2014-05-04T07:35:16Z</time>
      </trkpt>
      <trkpt lat="45.22897" lon="0.7403">
        <ele>185</ele>
        <time>2014-05-04T07:35:43Z</time>
      </trkpt>
      <trkpt lat="45.22912" lon="0.74017">
        <ele>185</ele>
        <time>2014-05-04T07:35:47Z</time>
      </trkpt>
      <trkpt lat="45.22923" lon="0.74007">
        <ele>184</ele>
        <time>2014-05-04T07:35:50Z</time>
      </trkpt>
      <trkpt lat="45.22951" lon="0.73986">
        <ele>182</ele>
        <time>2014-05-04T07:35:56Z</time>
      </trkpt>
      <trkpt lat="45.2298" lon="0.73961">
        <ele>179</ele>
        <time>2014-05-04T07:36:02Z</time>
      </trkpt>
      <trkpt lat="45.22992" lon="0.73949">
        <ele>178</ele>
        <time>2014-05-04T07:36:05Z</time>
      </trkpt>
      <trkpt lat="45.23014" lon="0.7393">
        <ele>177</ele>
        <time>2014-05-04T07:36:10Z</time>
      </trkpt>
      <trkpt lat="45.23044" lon="0.73897">
        <ele>175</ele>
        <time>2014-05-04T07:36:16Z</time>
      </trkpt>
      <trkpt lat="45.23078" lon="0.73881">
        <ele>174</ele>
        <time>2014-05-04T07:36:21Z</time>
      </trkpt>
      <trkpt lat="45.23101" lon="0.73871">
        <ele>174</ele>
        <time>2014-05-04T07:36:24Z</time>
      </trkpt>
      <trkpt lat="45.23146" lon="0.73875">
        <ele>174</ele>
        <time>2014-05-04T07:36:30Z</time>
      </trkpt>
      <trkpt lat="45.23163" lon="0.73876">
        <ele>174</ele>
        <time>2014-05-04T07:36:33Z</time>
      </trkpt>
      <trkpt lat="45.2319" lon="0.7388">
        <ele>173</ele>
        <time>2014-05-04T07:36:38Z</time>
      </trkpt>
      <trkpt lat="45.23222" lon="0.73896">
        <ele>170</ele>
        <time>2014-05-04T07:36:44Z</time>
      </trkpt>
      <trkpt lat="45.23248" lon="0.73897">
        <ele>168</ele>
        <time>2014-05-04T07:36:49Z</time>
      </trkpt>
      <trkpt lat="45.23275" lon="0.739">
        <ele>165</ele>
        <time>2014-05-04T07:36:55Z</time>
      </trkpt>
      <trkpt lat="45.23296" lon="0.73895">
        <ele>163</ele>
        <time>2014-05-04T07:37:00Z</time>
      </trkpt>
      <trkpt lat="45.23322" lon="0.7387">
        <ele>161</ele>
        <time>2014-05-04T07:37:06Z</time>
      </trkpt>
      <trkpt lat="45.23348" lon="0.73842">
        <ele>158</ele>
        <time>2014-05-04T07:37:12Z</time>
      </trkpt>
      <trkpt lat="45.23367" lon="0.73816">
        <ele>156</ele>
        <time>2014-05-04T07:37:17Z</time>
      </trkpt>
      <trkpt lat="45.23389" lon="0.73797">
        <ele>153</ele>
        <time>2014-05-04T07:37:23Z</time>
      </trkpt>
      <trkpt lat="45.23402" lon="0.73766">
        <ele>151</ele>
        <time>2014-05-04T07:37:28Z</time>
      </trkpt>
      <trkpt lat="45.23411" lon="0.73729">
        <ele>149</ele>
        <time>2014-05-04T07:37:34Z</time>
      </trkpt>
      <trkpt lat="45.23413" lon="0.73701">
        <ele>146</ele>
        <time>2014-05-04T07:37:38Z</time>
      </trkpt>
      <trkpt lat="45.23411" lon="0.73664">
        <ele>144</ele>
        <time>2014-05-04T07:37:44Z</time>
      </trkpt>
      <trkpt lat="45.23408" lon="0.7363">
        <ele>142</ele>
        <time>2014-05-04T07:37:49Z</time>
      </trkpt>
      <trkpt lat="45.23396" lon="0.73566">
        <ele>140</ele>
        <time>2014-05-04T07:37:56Z</time>
      </trkpt>
      <trkpt lat="45.23384" lon="0.7352">
        <ele>140</ele>
        <time>2014-05-04T07:38:01Z</time>
      </trkpt>
      <trkpt lat="45.23376" lon="0.73493">
        <ele>140</ele>
        <time>2014-05-04T07:38:05Z</time>
      </trkpt>
      <trkpt lat="45.23377" lon="0.73441">
        <ele>138</ele>
        <time>2014-05-04T07:38:11Z</time>
      </trkpt>
      <trkpt lat="45.23376" lon="0.73395">
        <ele>137</ele>
        <time>2014-05-04T07:38:17Z</time>
      </trkpt>
      <trkpt lat="45.23387" lon="0.7335">
        <ele>133</ele>
        <time>2014-05-04T07:38:23Z</time>
      </trkpt>
      <trkpt lat="45.234" lon="0.73318">
        <ele>130</ele>
        <time>2014-05-04T07:38:28Z</time>
      </trkpt>
      <trkpt lat="45.23418" lon="0.73282">
        <ele>127</ele>
        <time>2014-05-04T07:38:33Z</time>
      </trkpt>
      <trkpt lat="45.23431" lon="0.73244">
        <ele>127</ele>
        <time>2014-05-04T07:38:39Z</time>
      </trkpt>
      <trkpt lat="45.23446" lon="0.7321">
        <ele>128</ele>
        <time>2014-05-04T07:38:45Z</time>
      </trkpt>
      <trkpt lat="45.23469" lon="0.73176">
        <ele>126</ele>
        <time>2014-05-04T07:38:52Z</time>
      </trkpt>
      <trkpt lat="45.23485" lon="0.73152">
        <ele>125</ele>
        <time>2014-05-04T07:38:57Z</time>
      </trkpt>
      <trkpt lat="45.2349" lon="0.73122">
        <ele>126</ele>
        <time>2014-05-04T07:39:02Z</time>
      </trkpt>
      <trkpt lat="45.23484" lon="0.73093">
        <ele>127</ele>
        <time>2014-05-04T07:39:08Z</time>
      </trkpt>
      <trkpt lat="45.23492" lon="0.731">
        <ele>127</ele>
        <time>2014-05-04T07:39:14Z</time>
      </trkpt>
      <trkpt lat="45.23502" lon="0.7312">
        <ele>126</ele>
        <time>2014-05-04T07:39:19Z</time>
      </trkpt>
      <trkpt lat="45.23514" lon="0.73141">
        <ele>127</ele>
        <time>2014-05-04T07:39:24Z</time>
      </trkpt>
      <trkpt lat="45.23521" lon="0.73156">
        <ele>128</ele>
        <time>2014-05-04T07:39:28Z</time>
      </trkpt>
      <trkpt lat="45.23541" lon="0.73193">
        <ele>132</ele>
        <time>2014-05-04T07:39:35Z</time>
      </trkpt>
      <trkpt lat="45.23562" lon="0.73215">
        <ele>136</ele>
        <time>2014-05-04T07:39:41Z</time>
      </trkpt>
      <trkpt lat="45.23573" lon="0.73223">
        <ele>137</ele>
        <time>2014-05-04T07:39:44Z</time>
      </trkpt>
      <trkpt lat="45.23582" lon="0.7323">
        <ele>138</ele>
        <time>2014-05-04T07:39:47Z</time>
      </trkpt>
      <trkpt lat="45.23589" lon="0.73236">
        <ele>139</ele>
        <time>2014-05-04T07:39:50Z</time>
      </trkpt>
      <trkpt lat="45.23603" lon="0.73253">
        <ele>141</ele>
        <time>2014-05-04T07:39:58Z</time>
      </trkpt>
      <trkpt lat="45.23615" lon="0.73267">
        <ele>143</ele>
        <time>2014-05-04T07:40:06Z</time>
      </trkpt>
      <trkpt lat="45.23619" lon="0.73272">
        <ele>144</ele>
        <time>2014-05-04T07:40:09Z</time>
      </trkpt>
      <trkpt lat="45.23636" lon="0.73294">
        <ele>145</ele>
        <time>2014-05-04T07:40:19Z</time>
      </trkpt>
      <trkpt lat="45.23656" lon="0.73309">
        <ele>146</ele>
        <time>2014-05-04T07:40:27Z</time>
      </trkpt>
      <trkpt lat="45.23679" lon="0.73322">
        <ele>147</ele>
        <time>2014-05-04T07:40:34Z</time>
      </trkpt>
      <trkpt lat="45.23695" lon="0.73323">
        <ele>148</ele>
        <time>2014-05-04T07:40:41Z</time>
      </trkpt>
      <trkpt lat="45.23715" lon="0.73313">
        <ele>151</ele>
        <time>2014-05-04T07:40:50Z</time>
      </trkpt>
      <trkpt lat="45.23736" lon="0.73312">
        <ele>152</ele>
        <time>2014-05-04T07:40:59Z</time>
      </trkpt>
      <trkpt lat="45.23755" lon="0.73326">
        <ele>153</ele>
        <time>2014-05-04T07:41:09Z</time>
      </trkpt>
      <trkpt lat="45.23773" lon="0.73338">
        <ele>155</ele>
        <time>2014-05-04T07:41:19Z</time>
      </trkpt>
      <trkpt lat="45.23785" lon="0.7335">
        <ele>156</ele>
        <time>2014-05-04T07:41:27Z</time>
      </trkpt>
      <trkpt lat="45.23804" lon="0.73369">
        <ele>158</ele>
        <time>2014-05-04T07:41:39Z</time>
      </trkpt>
      <trkpt lat="45.23823" lon="0.73393">
        <ele>159</ele>
        <time>2014-05-04T07:41:50Z</time>
      </trkpt>
      <trkpt lat="45.23835" lon="0.73415">
        <ele>159</ele>
        <time>2014-05-04T07:41:56Z</time>
      </trkpt>
      <trkpt lat="45.23849" lon="0.73445">
        <ele>158</ele>
        <time>2014-05-04T07:42:03Z</time>
      </trkpt>
      <trkpt lat="45.23859" lon="0.73461">
        <ele>158</ele>
        <time>2014-05-04T07:42:07Z</time>
      </trkpt>
      <trkpt lat="45.2387" lon="0.73484">
        <ele>157</ele>
        <time>2014-05-04T07:42:13Z</time>
      </trkpt>
      <trkpt lat="45.23875" lon="0.73514">
        <ele>155</ele>
        <time>2014-05-04T07:42:19Z</time>
      </trkpt>
      <trkpt lat="45.23875" lon="0.73532">
        <ele>155</ele>
        <time>2014-05-04T07:42:25Z</time>
      </trkpt>
      <trkpt lat="45.23881" lon="0.7356">
        <ele>156</ele>
        <time>2014-05-04T07:42:30Z</time>
      </trkpt>
      <trkpt lat="45.23885" lon="0.73583">
        <ele>156</ele>
        <time>2014-05-04T07:42:35Z</time>
      </trkpt>
      <trkpt lat="45.2389" lon="0.73606">
        <ele>159</ele>
        <time>2014-05-04T07:42:42Z</time>
      </trkpt>
      <trkpt lat="45.23897" lon="0.73647">
        <ele>163</ele>
        <time>2014-05-04T07:42:53Z</time>
      </trkpt>
      <trkpt lat="45.23898" lon="0.73681">
        <ele>165</ele>
        <time>2014-05-04T07:43:01Z</time>
      </trkpt>
      <trkpt lat="45.23899" lon="0.73703">
        <ele>166</ele>
        <time>2014-05-04T07:43:07Z</time>
      </trkpt>
      <trkpt lat="45.2391" lon="0.73734">
        <ele>168</ele>
        <time>2014-05-04T07:43:17Z</time>
      </trkpt>
      <trkpt lat="45.23919" lon="0.73754">
        <ele>169</ele>
        <time>2014-05-04T07:43:24Z</time>
      </trkpt>
      <trkpt lat="45.23927" lon="0.73781">
        <ele>169</ele>
        <time>2014-05-04T07:43:33Z</time>
      </trkpt>
      <trkpt lat="45.23934" lon="0.73808">
        <ele>169</ele>
        <time>2014-05-04T07:43:42Z</time>
      </trkpt>
      <trkpt lat="45.23955" lon="0.73846">
        <ele>169</ele>
        <time>2014-05-04T07:43:47Z</time>
      </trkpt>
      <trkpt lat="45.23964" lon="0.7386">
        <ele>169</ele>
        <time>2014-05-04T07:43:52Z</time>
      </trkpt>
      <trkpt lat="45.23986" lon="0.73879">
        <ele>170</ele>
        <time>2014-05-04T07:43:59Z</time>
      </trkpt>
      <trkpt lat="45.24004" lon="0.7389">
        <ele>170</ele>
        <time>2014-05-04T07:44:06Z</time>
      </trkpt>
      <trkpt lat="45.24018" lon="0.73895">
        <ele>171</ele>
        <time>2014-05-04T07:44:11Z</time>
      </trkpt>
      <trkpt lat="45.24039" lon="0.73903">
        <ele>173</ele>
        <time>2014-05-04T07:44:19Z</time>
      </trkpt>
      <trkpt lat="45.24057" lon="0.73903">
        <ele>176</ele>
        <time>2014-05-04T07:44:27Z</time>
      </trkpt>
      <trkpt lat="45.24073" lon="0.73909">
        <ele>177</ele>
        <time>2014-05-04T07:44:33Z</time>
      </trkpt>
      <trkpt lat="45.24092" lon="0.73917">
        <ele>179</ele>
        <time>2014-05-04T07:44:41Z</time>
      </trkpt>
      <trkpt lat="45.24114" lon="0.73933">
        <ele>178</ele>
        <time>2014-05-04T07:44:49Z</time>
      </trkpt>
      <trkpt lat="45.24119" lon="0.73955">
        <ele>177</ele>
        <time>2014-05-04T07:44:55Z</time>
      </trkpt>
      <trkpt lat="45.24128" lon="0.7398">
        <ele>175</ele>
        <time>2014-05-04T07:45:02Z</time>
      </trkpt>
      <trkpt lat="45.2415" lon="0.74006">
        <ele>173</ele>
        <time>2014-05-04T07:45:12Z</time>
      </trkpt>
      <trkpt lat="45.24152" lon="0.74017">
        <ele>173</ele>
        <time>2014-05-04T07:45:17Z</time>
      </trkpt>
      <trkpt lat="45.24177" lon="0.74045">
        <ele>173</ele>
        <time>2014-05-04T07:45:30Z</time>
      </trkpt>
      <trkpt lat="45.24189" lon="0.74066">
        <ele>174</ele>
        <time>2014-05-04T07:45:38Z</time>
      </trkpt>
      <trkpt lat="45.24213" lon="0.74089">
        <ele>177</ele>
        <time>2014-05-04T07:45:48Z</time>
      </trkpt>
      <trkpt lat="45.24225" lon="0.74118">
        <ele>178</ele>
        <time>2014-05-04T07:45:54Z</time>
      </trkpt>
      <trkpt lat="45.24229" lon="0.74136">
        <ele>178</ele>
        <time>2014-05-04T07:46:00Z</time>
      </trkpt>
      <trkpt lat="45.24242" lon="0.74165">
        <ele>178</ele>
        <time>2014-05-04T07:46:09Z</time>
      </trkpt>
      <trkpt lat="45.24246" lon="0.74187">
        <ele>179</ele>
        <time>2014-05-04T07:46:15Z</time>
      </trkpt>
      <trkpt lat="45.24251" lon="0.74206">
        <ele>180</ele>
        <time>2014-05-04T07:46:21Z</time>
      </trkpt>
      <trkpt lat="45.24257" lon="0.74228">
        <ele>181</ele>
        <time>2014-05-04T07:46:29Z</time>
      </trkpt>
      <trkpt lat="45.24259" lon="0.74254">
        <ele>181</ele>
        <time>2014-05-04T07:46:36Z</time>
      </trkpt>
      <trkpt lat="45.24269" lon="0.7429">
        <ele>183</ele>
        <time>2014-05-04T07:46:47Z</time>
      </trkpt>
      <trkpt lat="45.24281" lon="0.74318">
        <ele>185</ele>
        <time>2014-05-04T07:46:56Z</time>
      </trkpt>
      <trkpt lat="45.24283" lon="0.74336">
        <ele>185</ele>
        <time>2014-05-04T07:47:01Z</time>
      </trkpt>
      <trkpt lat="45.24285" lon="0.74358">
        <ele>185</ele>
        <time>2014-05-04T07:47:07Z</time>
      </trkpt>
      <trkpt lat="45.24291" lon="0.74391">
        <ele>185</ele>
        <time>2014-05-04T07:47:16Z</time>
      </trkpt>
      <trkpt lat="45.24299" lon="0.74406">
        <ele>185</ele>
        <time>2014-05-04T07:47:23Z</time>
      </trkpt>
      <trkpt lat="45.24316" lon="0.7442">
        <ele>187</ele>
        <time>2014-05-04T07:47:32Z</time>
      </trkpt>
      <trkpt lat="45.24337" lon="0.74433">
        <ele>188</ele>
        <time>2014-05-04T07:47:43Z</time>
      </trkpt>
      <trkpt lat="45.24351" lon="0.74445">
        <ele>189</ele>
        <time>2014-05-04T07:47:51Z</time>
      </trkpt>
      <trkpt lat="45.24369" lon="0.74447">
        <ele>190</ele>
        <time>2014-05-04T07:47:59Z</time>
      </trkpt>
      <trkpt lat="45.24378" lon="0.74447">
        <ele>191</ele>
        <time>2014-05-04T07:48:04Z</time>
      </trkpt>
      <trkpt lat="45.24391" lon="0.74439">
        <ele>193</ele>
        <time>2014-05-04T07:48:13Z</time>
      </trkpt>
      <trkpt lat="45.24406" lon="0.74444">
        <ele>194</ele>
        <time>2014-05-04T07:48:24Z</time>
      </trkpt>
      <trkpt lat="45.24422" lon="0.74447">
        <ele>195</ele>
        <time>2014-05-04T07:48:35Z</time>
      </trkpt>
      <trkpt lat="45.24424" lon="0.74447">
        <ele>195</ele>
        <time>2014-05-04T07:48:38Z</time>
      </trkpt>
      <trkpt lat="45.24424" lon="0.74447">
        <ele>195</ele>
        <time>2014-05-04T07:48:47Z</time>
      </trkpt>
      <trkpt lat="45.24424" lon="0.74447">
        <ele>195</ele>
        <time>2014-05-04T07:48:51Z</time>
      </trkpt>
      <trkpt lat="45.24436" lon="0.74446">
        <ele>196</ele>
        <time>2014-05-04T07:48:51Z</time>
      </trkpt>
      <trkpt lat="45.24436" lon="0.74446">
        <ele>196</ele>
        <time>2014-05-04T07:48:56Z</time>
      </trkpt>
      <trkpt lat="45.24436" lon="0.74446">
        <ele>196</ele>
        <time>2014-05-04T07:48:57Z</time>
      </trkpt>
      <trkpt lat="45.24436" lon="0.74446">
        <ele>196</ele>
        <time>2014-05-04T07:49:10Z</time>
      </trkpt>
      <trkpt lat="45.24451" lon="0.74438">
        <ele>197</ele>
        <time>2014-05-04T07:49:10Z</time>
      </trkpt>
      <trkpt lat="45.24472" lon="0.74429">
        <ele>199</ele>
        <time>2014-05-04T07:49:24Z</time>
      </trkpt>
      <trkpt lat="45.24472" lon="0.74429">
        <ele>199</ele>
        <time>2014-05-04T07:49:32Z</time>
      </trkpt>
      <trkpt lat="45.24472" lon="0.74429">
        <ele>199</ele>
        <time>2014-05-04T07:49:36Z</time>
      </trkpt>
      <trkpt lat="45.24477" lon="0.74426">
        <ele>199</ele>
        <time>2014-05-04T07:49:36Z</time>
      </trkpt>
      <trkpt lat="45.2449" lon="0.74431">
        <ele>200</ele>
        <time>2014-05-04T07:49:49Z</time>
      </trkpt>
      <trkpt lat="45.2449" lon="0.74431">
        <ele>200</ele>
        <time>2014-05-04T07:49:56Z</time>
      </trkpt>
      <trkpt lat="45.2449" lon="0.74431">
        <ele>200</ele>
        <time>2014-05-04T07:49:56Z</time>
      </trkpt>
      <trkpt lat="45.2449" lon="0.74431">
        <ele>200</ele>
        <time>2014-05-04T07:50:11Z</time>
      </trkpt>
      <trkpt lat="45.24497" lon="0.74452">
        <ele>199</ele>
        <time>2014-05-04T07:50:11Z</time>
      </trkpt>
      <trkpt lat="45.24503" lon="0.74473">
        <ele>198</ele>
        <time>2014-05-04T07:50:16Z</time>
      </trkpt>
      <trkpt lat="45.24508" lon="0.74498">
        <ele>197</ele>
        <time>2014-05-04T07:50:22Z</time>
      </trkpt>
      <trkpt lat="45.24513" lon="0.74535">
        <ele>195</ele>
        <time>2014-05-04T07:50:30Z</time>
      </trkpt>
      <trkpt lat="45.24524" lon="0.7456">
        <ele>194</ele>
        <time>2014-05-04T07:50:36Z</time>
      </trkpt>
      <trkpt lat="45.24534" lon="0.7459">
        <ele>192</ele>
        <time>2014-05-04T07:50:43Z</time>
      </trkpt>
      <trkpt lat="45.24538" lon="0.74622">
        <ele>192</ele>
        <time>2014-05-04T07:50:49Z</time>
      </trkpt>
      <trkpt lat="45.24547" lon="0.74648">
        <ele>191</ele>
        <time>2014-05-04T07:50:55Z</time>
      </trkpt>
      <trkpt lat="45.24551" lon="0.74672">
        <ele>191</ele>
        <time>2014-05-04T07:51:01Z</time>
      </trkpt>
      <trkpt lat="45.24557" lon="0.74695">
        <ele>191</ele>
        <time>2014-05-04T07:51:06Z</time>
      </trkpt>
      <trkpt lat="45.24566" lon="0.74713">
        <ele>192</ele>
        <time>2014-05-04T07:51:13Z</time>
      </trkpt>
      <trkpt lat="45.24572" lon="0.74729">
        <ele>192</ele>
        <time>2014-05-04T07:51:18Z</time>
      </trkpt>
      <trkpt lat="45.24584" lon="0.74759">
        <ele>193</ele>
        <time>2014-05-04T07:51:26Z</time>
      </trkpt>
      <trkpt lat="45.24589" lon="0.7482">
        <ele>195</ele>
        <time>2014-05-04T07:51:33Z</time>
      </trkpt>
      <trkpt lat="45.24595" lon="0.74846">
        <ele>196</ele>
        <time>2014-05-04T07:51:39Z</time>
      </trkpt>
      <trkpt lat="45.24601" lon="0.74871">
        <ele>196</ele>
        <time>2014-05-04T07:51:46Z</time>
      </trkpt>
      <trkpt lat="45.24611" lon="0.749">
        <ele>197</ele>
        <time>2014-05-04T07:51:53Z</time>
      </trkpt>
      <trkpt lat="45.2462" lon="0.74934">
        <ele>198</ele>
        <time>2014-05-04T07:52:00Z</time>
      </trkpt>
      <trkpt lat="45.24623" lon="0.74947">
        <ele>199</ele>
        <time>2014-05-04T07:52:03Z</time>
      </trkpt>
      <trkpt lat="45.24633" lon="0.74981">
        <ele>200</ele>
        <time>2014-05-04T07:52:11Z</time>
      </trkpt>
      <trkpt lat="45.24636" lon="0.75012">
        <ele>200</ele>
        <time>2014-05-04T07:52:19Z</time>
      </trkpt>
      <trkpt lat="45.24647" lon="0.75034">
        <ele>200</ele>
        <time>2014-05-04T07:52:29Z</time>
      </trkpt>
      <trkpt lat="45.24649" lon="0.75061">
        <ele>200</ele>
        <time>2014-05-04T07:52:36Z</time>
      </trkpt>
      <trkpt lat="45.24654" lon="0.751">
        <ele>201</ele>
        <time>2014-05-04T07:52:47Z</time>
      </trkpt>
      <trkpt lat="45.24658" lon="0.75132">
        <ele>202</ele>
        <time>2014-05-04T07:52:56Z</time>
      </trkpt>
      <trkpt lat="45.24671" lon="0.75151">
        <ele>203</ele>
        <time>2014-05-04T07:53:04Z</time>
      </trkpt>
      <trkpt lat="45.24689" lon="0.75178">
        <ele>204</ele>
        <time>2014-05-04T07:53:12Z</time>
      </trkpt>
      <trkpt lat="45.24703" lon="0.752">
        <ele>205</ele>
        <time>2014-05-04T07:53:17Z</time>
      </trkpt>
      <trkpt lat="45.24711" lon="0.75218">
        <ele>205</ele>
        <time>2014-05-04T07:53:23Z</time>
      </trkpt>
      <trkpt lat="45.24722" lon="0.75239">
        <ele>205</ele>
        <time>2014-05-04T07:53:32Z</time>
      </trkpt>
      <trkpt lat="45.24733" lon="0.75264">
        <ele>206</ele>
        <time>2014-05-04T07:53:43Z</time>
      </trkpt>
      <trkpt lat="45.24729" lon="0.75301">
        <ele>206</ele>
        <time>2014-05-04T07:53:55Z</time>
      </trkpt>
      <trkpt lat="45.24731" lon="0.75334">
        <ele>206</ele>
        <time>2014-05-04T07:54:06Z</time>
      </trkpt>
      <trkpt lat="45.24729" lon="0.75365">
        <ele>205</ele>
        <time>2014-05-04T07:54:15Z</time>
      </trkpt>
      <trkpt lat="45.24725" lon="0.75387">
        <ele>203</ele>
        <time>2014-05-04T07:54:22Z</time>
      </trkpt>
      <trkpt lat="45.24724" lon="0.75407">
        <ele>203</ele>
        <time>2014-05-04T07:54:31Z</time>
      </trkpt>
      <trkpt lat="45.24724" lon="0.75407">
        <ele>203</ele>
        <time>2014-05-04T07:54:38Z</time>
      </trkpt>
      <trkpt lat="45.24724" lon="0.75407">
        <ele>203</ele>
        <time>2014-05-04T07:54:38Z</time>
      </trkpt>
      <trkpt lat="45.24724" lon="0.75407">
        <ele>203</ele>
        <time>2014-05-04T07:57:37Z</time>
      </trkpt>
      <trkpt lat="45.24724" lon="0.75423">
        <ele>202</ele>
        <time>2014-05-04T07:57:37Z</time>
      </trkpt>
      <trkpt lat="45.24725" lon="0.75436">
        <ele>202</ele>
        <time>2014-05-04T07:57:40Z</time>
      </trkpt>
      <trkpt lat="45.24726" lon="0.7545">
        <ele>201</ele>
        <time>2014-05-04T07:57:43Z</time>
      </trkpt>
      <trkpt lat="45.24728" lon="0.75479">
        <ele>200</ele>
        <time>2014-05-04T07:57:49Z</time>
      </trkpt>
      <trkpt lat="45.24733" lon="0.75516">
        <ele>199</ele>
        <time>2014-05-04T07:57:57Z</time>
      </trkpt>
      <trkpt lat="45.24733" lon="0.75544">
        <ele>197</ele>
        <time>2014-05-04T07:58:03Z</time>
      </trkpt>
      <trkpt lat="45.24732" lon="0.75577">
        <ele>196</ele>
        <time>2014-05-04T07:58:08Z</time>
      </trkpt>
      <trkpt lat="45.24736" lon="0.75615">
        <ele>195</ele>
        <time>2014-05-04T07:58:14Z</time>
      </trkpt>
      <trkpt lat="45.24736" lon="0.75638">
        <ele>194</ele>
        <time>2014-05-04T07:58:16Z</time>
      </trkpt>
      <trkpt lat="45.24737" lon="0.75661">
        <ele>193</ele>
        <time>2014-05-04T07:58:19Z</time>
      </trkpt>
      <trkpt lat="45.24737" lon="0.75685">
        <ele>193</ele>
        <time>2014-05-04T07:58:23Z</time>
      </trkpt>
      <trkpt lat="45.24733" lon="0.75722">
        <ele>191</ele>
        <time>2014-05-04T07:58:28Z</time>
      </trkpt>
      <trkpt lat="45.24741" lon="0.75753">
        <ele>190</ele>
        <time>2014-05-04T07:58:33Z</time>
      </trkpt>
      <trkpt lat="45.24756" lon="0.75773">
        <ele>189</ele>
        <time>2014-05-04T07:58:37Z</time>
      </trkpt>
      <trkpt lat="45.24763" lon="0.75825">
        <ele>186</ele>
        <time>2014-05-04T07:58:44Z</time>
      </trkpt>
      <trkpt lat="45.24772" lon="0.75873">
        <ele>187</ele>
        <time>2014-05-04T07:58:49Z</time>
      </trkpt>
      <trkpt lat="45.24794" lon="0.75902">
        <ele>188</ele>
        <time>2014-05-04T07:58:55Z</time>
      </trkpt>
      <trkpt lat="45.24821" lon="0.75907">
        <ele>189</ele>
        <time>2014-05-04T07:59:02Z</time>
      </trkpt>
      <trkpt lat="45.24832" lon="0.75914">
        <ele>189</ele>
        <time>2014-05-04T07:59:08Z</time>
      </trkpt>
      <trkpt lat="45.24854" lon="0.75924">
        <ele>190</ele>
        <time>2014-05-04T07:59:20Z</time>
      </trkpt>
      <trkpt lat="45.2487" lon="0.7594">
        <ele>190</ele>
        <time>2014-05-04T07:59:31Z</time>
      </trkpt>
      <trkpt lat="45.2488" lon="0.75949">
        <ele>190</ele>
        <time>2014-05-04T07:59:39Z</time>
      </trkpt>
      <trkpt lat="45.24886" lon="0.75975">
        <ele>190</ele>
        <time>2014-05-04T07:59:49Z</time>
      </trkpt>
      <trkpt lat="45.24886" lon="0.75991">
        <ele>189</ele>
        <time>2014-05-04T07:59:57Z</time>
      </trkpt>
      <trkpt lat="45.24893" lon="0.76">
        <ele>189</ele>
        <time>2014-05-04T08:00:04Z</time>
      </trkpt>
      <trkpt lat="45.24918" lon="0.76012">
        <ele>190</ele>
        <time>2014-05-04T08:00:18Z</time>
      </trkpt>
      <trkpt lat="45.24911" lon="0.76021">
        <ele>190</ele>
        <time>2014-05-04T08:00:27Z</time>
      </trkpt>
      <trkpt lat="45.24873" lon="0.76032">
        <ele>191</ele>
        <time>2014-05-04T08:00:37Z</time>
      </trkpt>
      <trkpt lat="45.24848" lon="0.76048">
        <ele>192</ele>
        <time>2014-05-04T08:00:43Z</time>
      </trkpt>
      <trkpt lat="45.24818" lon="0.76067">
        <ele>193</ele>
        <time>2014-05-04T08:00:48Z</time>
      </trkpt>
      <trkpt lat="45.24788" lon="0.76085">
        <ele>192</ele>
        <time>2014-05-04T08:00:55Z</time>
      </trkpt>
      <trkpt lat="45.24765" lon="0.76099">
        <ele>192</ele>
        <time>2014-05-04T08:01:00Z</time>
      </trkpt>
      <trkpt lat="45.24741" lon="0.76113">
        <ele>191</ele>
        <time>2014-05-04T08:01:06Z</time>
      </trkpt>
      <trkpt lat="45.24719" lon="0.76129">
        <ele>191</ele>
        <time>2014-05-04T08:01:11Z</time>
      </trkpt>
      <trkpt lat="45.24708" lon="0.76138">
        <ele>191</ele>
        <time>2014-05-04T08:01:15Z</time>
      </trkpt>
      <trkpt lat="45.24708" lon="0.76138">
        <ele>191</ele>
        <time>2014-05-04T08:01:22Z</time>
      </trkpt>
      <trkpt lat="45.24708" lon="0.76138">
        <ele>191</ele>
        <time>2014-05-04T08:01:28Z</time>
      </trkpt>
      <trkpt lat="45.24725" lon="0.76145">
        <ele>191</ele>
        <time>2014-05-04T08:01:28Z</time>
      </trkpt>
      <trkpt lat="45.24739" lon="0.76148">
        <ele>192</ele>
        <time>2014-05-04T08:01:37Z</time>
      </trkpt>
      <trkpt lat="45.24751" lon="0.76152">
        <ele>193</ele>
        <time>2014-05-04T08:01:43Z</time>
      </trkpt>
      <trkpt lat="45.24769" lon="0.76159">
        <ele>194</ele>
        <time>2014-05-04T08:01:52Z</time>
      </trkpt>
      <trkpt lat="45.24775" lon="0.76162">
        <ele>194</ele>
        <time>2014-05-04T08:01:55Z</time>
      </trkpt>
      <trkpt lat="45.24798" lon="0.76167">
        <ele>195</ele>
        <time>2014-05-04T08:02:06Z</time>
      </trkpt>
      <trkpt lat="45.24813" lon="0.76186">
        <ele>196</ele>
        <time>2014-05-04T08:02:15Z</time>
      </trkpt>
      <trkpt lat="45.24819" lon="0.76217">
        <ele>196</ele>
        <time>2014-05-04T08:02:25Z</time>
      </trkpt>
      <trkpt lat="45.24821" lon="0.76226">
        <ele>196</ele>
        <time>2014-05-04T08:02:28Z</time>
      </trkpt>
      <trkpt lat="45.24824" lon="0.76245">
        <ele>197</ele>
        <time>2014-05-04T08:02:34Z</time>
      </trkpt>
      <trkpt lat="45.24828" lon="0.76266">
        <ele>196</ele>
        <time>2014-05-04T08:02:41Z</time>
      </trkpt>
      <trkpt lat="45.24835" lon="0.76294">
        <ele>196</ele>
        <time>2014-05-04T08:02:48Z</time>
      </trkpt>
      <trkpt lat="45.24844" lon="0.76331">
        <ele>195</ele>
        <time>2014-05-04T08:02:55Z</time>
      </trkpt>
      <trkpt lat="45.24858" lon="0.76365">
        <ele>196</ele>
        <time>2014-05-04T08:03:02Z</time>
      </trkpt>
      <trkpt lat="45.24878" lon="0.76418">
        <ele>197</ele>
        <time>2014-05-04T08:03:09Z</time>
      </trkpt>
      <trkpt lat="45.24883" lon="0.76458">
        <ele>197</ele>
        <time>2014-05-04T08:03:14Z</time>
      </trkpt>
      <trkpt lat="45.24888" lon="0.76486">
        <ele>197</ele>
        <time>2014-05-04T08:03:18Z</time>
      </trkpt>
      <trkpt lat="45.24895" lon="0.7651">
        <ele>197</ele>
        <time>2014-05-04T08:03:23Z</time>
      </trkpt>
      <trkpt lat="45.24901" lon="0.76531">
        <ele>196</ele>
        <time>2014-05-04T08:03:29Z</time>
      </trkpt>
      <trkpt lat="45.24906" lon="0.76559">
        <ele>195</ele>
        <time>2014-05-04T08:03:37Z</time>
      </trkpt>
      <trkpt lat="45.24909" lon="0.76575">
        <ele>195</ele>
        <time>2014-05-04T08:03:42Z</time>
      </trkpt>
      <trkpt lat="45.24918" lon="0.76602">
        <ele>194</ele>
        <time>2014-05-04T08:03:50Z</time>
      </trkpt>
      <trkpt lat="45.24927" lon="0.76634">
        <ele>193</ele>
        <time>2014-05-04T08:04:00Z</time>
      </trkpt>
      <trkpt lat="45.24932" lon="0.76655">
        <ele>193</ele>
        <time>2014-05-04T08:04:06Z</time>
      </trkpt>
      <trkpt lat="45.24934" lon="0.76683">
        <ele>192</ele>
        <time>2014-05-04T08:04:15Z</time>
      </trkpt>
      <trkpt lat="45.24936" lon="0.76711">
        <ele>191</ele>
        <time>2014-05-04T08:04:25Z</time>
      </trkpt>
      <trkpt lat="45.24939" lon="0.76721">
        <ele>191</ele>
        <time>2014-05-04T08:04:28Z</time>
      </trkpt>
      <trkpt lat="45.24953" lon="0.76737">
        <ele>189</ele>
        <time>2014-05-04T08:04:35Z</time>
      </trkpt>
      <trkpt lat="45.24974" lon="0.76766">
        <ele>185</ele>
        <time>2014-05-04T08:04:43Z</time>
      </trkpt>
      <trkpt lat="45.24982" lon="0.76777">
        <ele>183</ele>
        <time>2014-05-04T08:04:46Z</time>
      </trkpt>
      <trkpt lat="45.25" lon="0.76802">
        <ele>181</ele>
        <time>2014-05-04T08:04:52Z</time>
      </trkpt>
      <trkpt lat="45.25016" lon="0.76832">
        <ele>181</ele>
        <time>2014-05-04T08:04:58Z</time>
      </trkpt>
      <trkpt lat="45.25024" lon="0.76846">
        <ele>181</ele>
        <time>2014-05-04T08:05:01Z</time>
      </trkpt>
      <trkpt lat="45.25029" lon="0.76869">
        <ele>180</ele>
        <time>2014-05-04T08:05:06Z</time>
      </trkpt>
      <trkpt lat="45.25038" lon="0.76905">
        <ele>180</ele>
        <time>2014-05-04T08:05:13Z</time>
      </trkpt>
      <trkpt lat="45.2505" lon="0.76938">
        <ele>180</ele>
        <time>2014-05-04T08:05:18Z</time>
      </trkpt>
      <trkpt lat="45.25057" lon="0.76961">
        <ele>181</ele>
        <time>2014-05-04T08:05:22Z</time>
      </trkpt>
      <trkpt lat="45.25065" lon="0.7699">
        <ele>182</ele>
        <time>2014-05-04T08:05:29Z</time>
      </trkpt>
      <trkpt lat="45.25073" lon="0.77007">
        <ele>182</ele>
        <time>2014-05-04T08:05:35Z</time>
      </trkpt>
      <trkpt lat="45.25077" lon="0.7703">
        <ele>183</ele>
        <time>2014-05-04T08:05:44Z</time>
      </trkpt>
      <trkpt lat="45.25077" lon="0.77064">
        <ele>184</ele>
        <time>2014-05-04T08:05:54Z</time>
      </trkpt>
      <trkpt lat="45.25075" lon="0.77084">
        <ele>184</ele>
        <time>2014-05-04T08:06:00Z</time>
      </trkpt>
      <trkpt lat="45.25066" lon="0.77116">
        <ele>183</ele>
        <time>2014-05-04T08:06:07Z</time>
      </trkpt>
      <trkpt lat="45.25055" lon="0.77164">
        <ele>182</ele>
        <time>2014-05-04T08:06:13Z</time>
      </trkpt>
      <trkpt lat="45.25054" lon="0.77218">
        <ele>180</ele>
        <time>2014-05-04T08:06:19Z</time>
      </trkpt>
      <trkpt lat="45.25018" lon="0.77273">
        <ele>176</ele>
        <time>2014-05-04T08:06:26Z</time>
      </trkpt>
      <trkpt lat="45.2498" lon="0.77325">
        <ele>172</ele>
        <time>2014-05-04T08:06:32Z</time>
      </trkpt>
      <trkpt lat="45.24949" lon="0.77371">
        <ele>168</ele>
        <time>2014-05-04T08:06:37Z</time>
      </trkpt>
      <trkpt lat="45.24921" lon="0.77416">
        <ele>164</ele>
        <time>2014-05-04T08:06:42Z</time>
      </trkpt>
      <trkpt lat="45.24893" lon="0.77456">
        <ele>163</ele>
        <time>2014-05-04T08:06:48Z</time>
      </trkpt>
      <trkpt lat="45.24867" lon="0.77459">
        <ele>162</ele>
        <time>2014-05-04T08:06:55Z</time>
      </trkpt>
      <trkpt lat="45.24849" lon="0.77446">
        <ele>162</ele>
        <time>2014-05-04T08:07:02Z</time>
      </trkpt>
      <trkpt lat="45.24837" lon="0.77435">
        <ele>162</ele>
        <time>2014-05-04T08:07:11Z</time>
      </trkpt>
      <trkpt lat="45.24817" lon="0.77452">
        <ele>162</ele>
        <time>2014-05-04T08:07:20Z</time>
      </trkpt>
      <trkpt lat="45.24801" lon="0.77465">
        <ele>163</ele>
        <time>2014-05-04T08:07:28Z</time>
      </trkpt>
      <trkpt lat="45.24795" lon="0.77471">
        <ele>164</ele>
        <time>2014-05-04T08:07:32Z</time>
      </trkpt>
      <trkpt lat="45.24777" lon="0.77485">
        <ele>166</ele>
        <time>2014-05-04T08:07:43Z</time>
      </trkpt>
      <trkpt lat="45.24757" lon="0.77501">
        <ele>168</ele>
        <time>2014-05-04T08:07:56Z</time>
      </trkpt>
      <trkpt lat="45.24743" lon="0.77514">
        <ele>169</ele>
        <time>2014-05-04T08:08:08Z</time>
      </trkpt>
      <trkpt lat="45.24727" lon="0.77527">
        <ele>169</ele>
        <time>2014-05-04T08:08:23Z</time>
      </trkpt>
      <trkpt lat="45.24719" lon="0.77534">
        <ele>170</ele>
        <time>2014-05-04T08:08:31Z</time>
      </trkpt>
      <trkpt lat="45.24709" lon="0.77541">
        <ele>170</ele>
        <time>2014-05-04T08:08:41Z</time>
      </trkpt>
      <trkpt lat="45.24692" lon="0.77554">
        <ele>170</ele>
        <time>2014-05-04T08:08:58Z</time>
      </trkpt>
      <trkpt lat="45.24674" lon="0.77564">
        <ele>171</ele>
        <time>2014-05-04T08:09:15Z</time>
      </trkpt>
      <trkpt lat="45.24653" lon="0.77573">
        <ele>172</ele>
        <time>2014-05-04T08:09:31Z</time>
      </trkpt>
      <trkpt lat="45.24644" lon="0.77577">
        <ele>173</ele>
        <time>2014-05-04T08:09:38Z</time>
      </trkpt>
      <trkpt lat="45.24632" lon="0.77583">
        <ele>175</ele>
        <time>2014-05-04T08:09:47Z</time>
      </trkpt>
      <trkpt lat="45.24615" lon="0.77593">
        <ele>177</ele>
        <time>2014-05-04T08:09:59Z</time>
      </trkpt>
      <trkpt lat="45.24592" lon="0.77605">
        <ele>179</ele>
        <time>2014-05-04T08:10:13Z</time>
      </trkpt>
      <trkpt lat="45.24581" lon="0.77611">
        <ele>180</ele>
        <time>2014-05-04T08:10:20Z</time>
      </trkpt>
      <trkpt lat="45.24566" lon="0.77626">
        <ele>181</ele>
        <time>2014-05-04T08:10:31Z</time>
      </trkpt>
      <trkpt lat="45.24555" lon="0.77646">
        <ele>182</ele>
        <time>2014-05-04T08:10:41Z</time>
      </trkpt>
      <trkpt lat="45.24544" lon="0.77674">
        <ele>183</ele>
        <time>2014-05-04T08:10:54Z</time>
      </trkpt>
      <trkpt lat="45.24536" lon="0.77689">
        <ele>184</ele>
        <time>2014-05-04T08:11:02Z</time>
      </trkpt>
      <trkpt lat="45.24514" lon="0.77705">
        <ele>186</ele>
        <time>2014-05-04T08:11:13Z</time>
      </trkpt>
      <trkpt lat="45.24506" lon="0.77716">
        <ele>186</ele>
        <time>2014-05-04T08:11:18Z</time>
      </trkpt>
      <trkpt lat="45.24495" lon="0.77733">
        <ele>187</ele>
        <time>2014-05-04T08:11:27Z</time>
      </trkpt>
      <trkpt lat="45.24483" lon="0.77745">
        <ele>189</ele>
        <time>2014-05-04T08:11:34Z</time>
      </trkpt>
      <trkpt lat="45.24476" lon="0.77759">
        <ele>189</ele>
        <time>2014-05-04T08:11:40Z</time>
      </trkpt>
      <trkpt lat="45.24478" lon="0.77782">
        <ele>190</ele>
        <time>2014-05-04T08:11:47Z</time>
      </trkpt>
      <trkpt lat="45.2448" lon="0.77809">
        <ele>190</ele>
        <time>2014-05-04T08:11:55Z</time>
      </trkpt>
      <trkpt lat="45.24481" lon="0.77842">
        <ele>190</ele>
        <time>2014-05-04T08:12:03Z</time>
      </trkpt>
      <trkpt lat="45.24478" lon="0.77869">
        <ele>191</ele>
        <time>2014-05-04T08:12:09Z</time>
      </trkpt>
      <trkpt lat="45.24473" lon="0.77899">
        <ele>191</ele>
        <time>2014-05-04T08:12:17Z</time>
      </trkpt>
      <trkpt lat="45.24466" lon="0.77927">
        <ele>192</ele>
        <time>2014-05-04T08:12:24Z</time>
      </trkpt>
      <trkpt lat="45.24463" lon="0.77944">
        <ele>192</ele>
        <time>2014-05-04T08:12:28Z</time>
      </trkpt>
      <trkpt lat="45.2446" lon="0.7796">
        <ele>192</ele>
        <time>2014-05-04T08:12:32Z</time>
      </trkpt>
      <trkpt lat="45.24458" lon="0.77986">
        <ele>192</ele>
        <time>2014-05-04T08:12:38Z</time>
      </trkpt>
      <trkpt lat="45.24457" lon="0.77998">
        <ele>192</ele>
        <time>2014-05-04T08:12:41Z</time>
      </trkpt>
      <trkpt lat="45.24458" lon="0.7801">
        <ele>192</ele>
        <time>2014-05-04T08:12:44Z</time>
      </trkpt>
      <trkpt lat="45.2446" lon="0.78028">
        <ele>192</ele>
        <time>2014-05-04T08:12:48Z</time>
      </trkpt>
      <trkpt lat="45.24463" lon="0.78061">
        <ele>191</ele>
        <time>2014-05-04T08:12:54Z</time>
      </trkpt>
      <trkpt lat="45.24464" lon="0.78088">
        <ele>191</ele>
        <time>2014-05-04T08:12:58Z</time>
      </trkpt>
      <trkpt lat="45.24463" lon="0.78111">
        <ele>191</ele>
        <time>2014-05-04T08:13:01Z</time>
      </trkpt>
      <trkpt lat="45.24466" lon="0.78141">
        <ele>191</ele>
        <time>2014-05-04T08:13:05Z</time>
      </trkpt>
      <trkpt lat="45.24466" lon="0.78159">
        <ele>191</ele>
        <time>2014-05-04T08:13:08Z</time>
      </trkpt>
      <trkpt lat="45.24468" lon="0.782">
        <ele>191</ele>
        <time>2014-05-04T08:13:15Z</time>
      </trkpt>
      <trkpt lat="45.24471" lon="0.78228">
        <ele>190</ele>
        <time>2014-05-04T08:13:20Z</time>
      </trkpt>
      <trkpt lat="45.24488" lon="0.78242">
        <ele>190</ele>
        <time>2014-05-04T08:13:27Z</time>
      </trkpt>
      <trkpt lat="45.24517" lon="0.7823">
        <ele>189</ele>
        <time>2014-05-04T08:13:33Z</time>
      </trkpt>
      <trkpt lat="45.2454" lon="0.78221">
        <ele>189</ele>
        <time>2014-05-04T08:13:38Z</time>
      </trkpt>
      <trkpt lat="45.24567" lon="0.78212">
        <ele>188</ele>
        <time>2014-05-04T08:13:44Z</time>
      </trkpt>
      <trkpt lat="45.24593" lon="0.7821">
        <ele>186</ele>
        <time>2014-05-04T08:13:50Z</time>
      </trkpt>
      <trkpt lat="45.2462" lon="0.78214">
        <ele>185</ele>
        <time>2014-05-04T08:13:55Z</time>
      </trkpt>
      <trkpt lat="45.24643" lon="0.78221">
        <ele>183</ele>
        <time>2014-05-04T08:13:59Z</time>
      </trkpt>
      <trkpt lat="45.24668" lon="0.78228">
        <ele>181</ele>
        <time>2014-05-04T08:14:03Z</time>
      </trkpt>
      <trkpt lat="45.247" lon="0.7824">
        <ele>178</ele>
        <time>2014-05-04T08:14:08Z</time>
      </trkpt>
      <trkpt lat="45.24734" lon="0.78255">
        <ele>175</ele>
        <time>2014-05-04T08:14:13Z</time>
      </trkpt>
      <trkpt lat="45.24757" lon="0.78279">
        <ele>174</ele>
        <time>2014-05-04T08:14:17Z</time>
      </trkpt>
      <trkpt lat="45.24775" lon="0.78325">
        <ele>175</ele>
        <time>2014-05-04T08:14:23Z</time>
      </trkpt>
      <trkpt lat="45.24795" lon="0.78363">
        <ele>177</ele>
        <time>2014-05-04T08:14:29Z</time>
      </trkpt>
      <trkpt lat="45.24812" lon="0.78384">
        <ele>178</ele>
        <time>2014-05-04T08:14:34Z</time>
      </trkpt>
      <trkpt lat="45.24831" lon="0.78402">
        <ele>179</ele>
        <time>2014-05-04T08:14:40Z</time>
      </trkpt>
      <trkpt lat="45.24847" lon="0.7842">
        <ele>181</ele>
        <time>2014-05-04T08:14:47Z</time>
      </trkpt>
      <trkpt lat="45.24858" lon="0.78441">
        <ele>183</ele>
        <time>2014-05-04T08:14:55Z</time>
      </trkpt>
      <trkpt lat="45.24871" lon="0.78464">
        <ele>185</ele>
        <time>2014-05-04T08:15:04Z</time>
      </trkpt>
      <trkpt lat="45.24876" lon="0.78475">
        <ele>185</ele>
        <time>2014-05-04T08:15:08Z</time>
      </trkpt>
      <trkpt lat="45.24889" lon="0.78499">
        <ele>187</ele>
        <time>2014-05-04T08:15:18Z</time>
      </trkpt>
      <trkpt lat="45.24903" lon="0.78524">
        <ele>190</ele>
        <time>2014-05-04T08:15:28Z</time>
      </trkpt>
      <trkpt lat="45.24913" lon="0.78538">
        <ele>192</ele>
        <time>2014-05-04T08:15:34Z</time>
      </trkpt>
      <trkpt lat="45.2493" lon="0.78554">
        <ele>195</ele>
        <time>2014-05-04T08:15:42Z</time>
      </trkpt>
      <trkpt lat="45.24951" lon="0.78561">
        <ele>197</ele>
        <time>2014-05-04T08:15:49Z</time>
      </trkpt>
      <trkpt lat="45.24961" lon="0.7856">
        <ele>198</ele>
        <time>2014-05-04T08:15:53Z</time>
      </trkpt>
      <trkpt lat="45.24984" lon="0.78549">
        <ele>198</ele>
        <time>2014-05-04T08:16:00Z</time>
      </trkpt>
      <trkpt lat="45.25003" lon="0.78532">
        <ele>198</ele>
        <time>2014-05-04T08:16:07Z</time>
      </trkpt>
      <trkpt lat="45.2502" lon="0.78514">
        <ele>196</ele>
        <time>2014-05-04T08:16:15Z</time>
      </trkpt>
      <trkpt lat="45.25039" lon="0.78495">
        <ele>194</ele>
        <time>2014-05-04T08:16:24Z</time>
      </trkpt>
      <trkpt lat="45.25056" lon="0.78477">
        <ele>193</ele>
        <time>2014-05-04T08:16:32Z</time>
      </trkpt>
      <trkpt lat="45.2507" lon="0.78458">
        <ele>191</ele>
        <time>2014-05-04T08:16:40Z</time>
      </trkpt>
      <trkpt lat="45.25095" lon="0.78438">
        <ele>190</ele>
        <time>2014-05-04T08:16:50Z</time>
      </trkpt>
      <trkpt lat="45.25114" lon="0.78453">
        <ele>192</ele>
        <time>2014-05-04T08:16:56Z</time>
      </trkpt>
      <trkpt lat="45.25129" lon="0.78469">
        <ele>193</ele>
        <time>2014-05-04T08:17:01Z</time>
      </trkpt>
      <trkpt lat="45.2515" lon="0.78493">
        <ele>195</ele>
        <time>2014-05-04T08:17:09Z</time>
      </trkpt>
      <trkpt lat="45.25164" lon="0.78508">
        <ele>196</ele>
        <time>2014-05-04T08:17:15Z</time>
      </trkpt>
      <trkpt lat="45.25181" lon="0.78522">
        <ele>196</ele>
        <time>2014-05-04T08:17:22Z</time>
      </trkpt>
      <trkpt lat="45.25197" lon="0.78541">
        <ele>195</ele>
        <time>2014-05-04T08:17:32Z</time>
      </trkpt>
      <trkpt lat="45.25181" lon="0.78572">
        <ele>194</ele>
        <time>2014-05-04T08:17:42Z</time>
      </trkpt>
      <trkpt lat="45.25176" lon="0.78584">
        <ele>194</ele>
        <time>2014-05-04T08:17:45Z</time>
      </trkpt>
      <trkpt lat="45.25165" lon="0.78609">
        <ele>193</ele>
        <time>2014-05-04T08:17:51Z</time>
      </trkpt>
      <trkpt lat="45.25152" lon="0.78633">
        <ele>192</ele>
        <time>2014-05-04T08:17:57Z</time>
      </trkpt>
      <trkpt lat="45.25138" lon="0.78657">
        <ele>192</ele>
        <time>2014-05-04T08:18:03Z</time>
      </trkpt>
      <trkpt lat="45.25119" lon="0.78685">
        <ele>191</ele>
        <time>2014-05-04T08:18:10Z</time>
      </trkpt>
      <trkpt lat="45.25101" lon="0.78715">
        <ele>190</ele>
        <time>2014-05-04T08:18:17Z</time>
      </trkpt>
      <trkpt lat="45.25087" lon="0.78734">
        <ele>189</ele>
        <time>2014-05-04T08:18:22Z</time>
      </trkpt>
      <trkpt lat="45.25074" lon="0.7876">
        <ele>189</ele>
        <time>2014-05-04T08:18:30Z</time>
      </trkpt>
      <trkpt lat="45.25049" lon="0.78802">
        <ele>191</ele>
        <time>2014-05-04T08:18:37Z</time>
      </trkpt>
      <trkpt lat="45.25029" lon="0.78832">
        <ele>193</ele>
        <time>2014-05-04T08:18:43Z</time>
      </trkpt>
      <trkpt lat="45.25015" lon="0.78854">
        <ele>195</ele>
        <time>2014-05-04T08:18:48Z</time>
      </trkpt>
      <trkpt lat="45.25011" lon="0.78861">
        <ele>196</ele>
        <time>2014-05-04T08:18:51Z</time>
      </trkpt>
      <trkpt lat="45.25002" lon="0.78872">
        <ele>197</ele>
        <time>2014-05-04T08:18:57Z</time>
      </trkpt>
      <trkpt lat="45.24993" lon="0.7889">
        <ele>198</ele>
        <time>2014-05-04T08:19:07Z</time>
      </trkpt>
      <trkpt lat="45.2499" lon="0.78906">
        <ele>198</ele>
        <time>2014-05-04T08:19:15Z</time>
      </trkpt>
      <trkpt lat="45.24977" lon="0.78938">
        <ele>199</ele>
        <time>2014-05-04T08:19:31Z</time>
      </trkpt>
      <trkpt lat="45.24976" lon="0.78977">
        <ele>200</ele>
        <time>2014-05-04T08:19:40Z</time>
      </trkpt>
      <trkpt lat="45.24977" lon="0.78991">
        <ele>199</ele>
        <time>2014-05-04T08:19:43Z</time>
      </trkpt>
      <trkpt lat="45.24973" lon="0.79027">
        <ele>200</ele>
        <time>2014-05-04T08:19:50Z</time>
      </trkpt>
      <trkpt lat="45.24969" lon="0.79057">
        <ele>201</ele>
        <time>2014-05-04T08:19:55Z</time>
      </trkpt>
      <trkpt lat="45.24966" lon="0.79094">
        <ele>202</ele>
        <time>2014-05-04T08:20:01Z</time>
      </trkpt>
      <trkpt lat="45.24964" lon="0.79131">
        <ele>202</ele>
        <time>2014-05-04T08:20:06Z</time>
      </trkpt>
      <trkpt lat="45.2496" lon="0.79167">
        <ele>202</ele>
        <time>2014-05-04T08:20:12Z</time>
      </trkpt>
      <trkpt lat="45.24977" lon="0.79178">
        <ele>201</ele>
        <time>2014-05-04T08:20:20Z</time>
      </trkpt>
      <trkpt lat="45.25004" lon="0.79189">
        <ele>200</ele>
        <time>2014-05-04T08:20:30Z</time>
      </trkpt>
      <trkpt lat="45.25026" lon="0.79195">
        <ele>198</ele>
        <time>2014-05-04T08:20:36Z</time>
      </trkpt>
      <trkpt lat="45.25042" lon="0.79197">
        <ele>196</ele>
        <time>2014-05-04T08:20:43Z</time>
      </trkpt>
      <trkpt lat="45.25058" lon="0.79202">
        <ele>195</ele>
        <time>2014-05-04T08:20:48Z</time>
      </trkpt>
      <trkpt lat="45.25076" lon="0.79209">
        <ele>193</ele>
        <time>2014-05-04T08:20:55Z</time>
      </trkpt>
      <trkpt lat="45.25097" lon="0.79231">
        <ele>192</ele>
        <time>2014-05-04T08:21:09Z</time>
      </trkpt>
      <trkpt lat="45.25101" lon="0.79257">
        <ele>192</ele>
        <time>2014-05-04T08:21:16Z</time>
      </trkpt>
      <trkpt lat="45.2511" lon="0.79281">
        <ele>191</ele>
        <time>2014-05-04T08:21:22Z</time>
      </trkpt>
      <trkpt lat="45.2512" lon="0.79308">
        <ele>191</ele>
        <time>2014-05-04T08:21:29Z</time>
      </trkpt>
      <trkpt lat="45.25125" lon="0.79334">
        <ele>191</ele>
        <time>2014-05-04T08:21:36Z</time>
      </trkpt>
      <trkpt lat="45.25131" lon="0.79358">
        <ele>191</ele>
        <time>2014-05-04T08:21:43Z</time>
      </trkpt>
      <trkpt lat="45.2514" lon="0.79373">
        <ele>191</ele>
        <time>2014-05-04T08:21:48Z</time>
      </trkpt>
      <trkpt lat="45.25149" lon="0.79389">
        <ele>190</ele>
        <time>2014-05-04T08:21:54Z</time>
      </trkpt>
      <trkpt lat="45.25154" lon="0.79408">
        <ele>190</ele>
        <time>2014-05-04T08:21:59Z</time>
      </trkpt>
      <trkpt lat="45.25157" lon="0.79418">
        <ele>190</ele>
        <time>2014-05-04T08:22:02Z</time>
      </trkpt>
      <trkpt lat="45.25163" lon="0.7944">
        <ele>191</ele>
        <time>2014-05-04T08:22:08Z</time>
      </trkpt>
      <trkpt lat="45.25171" lon="0.79467">
        <ele>193</ele>
        <time>2014-05-04T08:22:13Z</time>
      </trkpt>
      <trkpt lat="45.25183" lon="0.79497">
        <ele>193</ele>
        <time>2014-05-04T08:22:18Z</time>
      </trkpt>
      <trkpt lat="45.25197" lon="0.79537">
        <ele>191</ele>
        <time>2014-05-04T08:22:24Z</time>
      </trkpt>
      <trkpt lat="45.25208" lon="0.79572">
        <ele>190</ele>
        <time>2014-05-04T08:22:29Z</time>
      </trkpt>
      <trkpt lat="45.25221" lon="0.7961">
        <ele>189</ele>
        <time>2014-05-04T08:22:35Z</time>
      </trkpt>
      <trkpt lat="45.25234" lon="0.79656">
        <ele>188</ele>
        <time>2014-05-04T08:22:41Z</time>
      </trkpt>
      <trkpt lat="45.25232" lon="0.797">
        <ele>186</ele>
        <time>2014-05-04T08:22:46Z</time>
      </trkpt>
      <trkpt lat="45.25228" lon="0.79738">
        <ele>183</ele>
        <time>2014-05-04T08:22:51Z</time>
      </trkpt>
      <trkpt lat="45.25215" lon="0.79787">
        <ele>180</ele>
        <time>2014-05-04T08:22:57Z</time>
      </trkpt>
      <trkpt lat="45.25205" lon="0.79808">
        <ele>179</ele>
        <time>2014-05-04T08:23:00Z</time>
      </trkpt>
      <trkpt lat="45.25194" lon="0.79848">
        <ele>177</ele>
        <time>2014-05-04T08:23:06Z</time>
      </trkpt>
      <trkpt lat="45.25192" lon="0.79883">
        <ele>175</ele>
        <time>2014-05-04T08:23:12Z</time>
      </trkpt>
      <trkpt lat="45.25182" lon="0.79888">
        <ele>174</ele>
        <time>2014-05-04T08:23:19Z</time>
      </trkpt>
      <trkpt lat="45.25175" lon="0.7989">
        <ele>174</ele>
        <time>2014-05-04T08:23:22Z</time>
      </trkpt>
      <trkpt lat="45.25175" lon="0.7989">
        <ele>174</ele>
        <time>2014-05-04T08:23:27Z</time>
      </trkpt>
      <trkpt lat="45.25175" lon="0.7989">
        <ele>174</ele>
        <time>2014-05-04T08:23:51Z</time>
      </trkpt>
      <trkpt lat="45.25203" lon="0.79931">
        <ele>173</ele>
        <time>2014-05-04T08:23:57Z</time>
      </trkpt>
      <trkpt lat="45.25213" lon="0.79978">
        <ele>173</ele>
        <time>2014-05-04T08:24:03Z</time>
      </trkpt>
      <trkpt lat="45.2522" lon="0.80022">
        <ele>172</ele>
        <time>2014-05-04T08:24:08Z</time>
      </trkpt>
      <trkpt lat="45.2523" lon="0.80082">
        <ele>169</ele>
        <time>2014-05-04T08:24:14Z</time>
      </trkpt>
      <trkpt lat="45.2524" lon="0.80129">
        <ele>169</ele>
        <time>2014-05-04T08:24:20Z</time>
      </trkpt>
      <trkpt lat="45.25238" lon="0.80144">
        <ele>168</ele>
        <time>2014-05-04T08:24:25Z</time>
      </trkpt>
      <trkpt lat="45.2522" lon="0.80145">
        <ele>166</ele>
        <time>2014-05-04T08:24:33Z</time>
      </trkpt>
      <trkpt lat="45.25208" lon="0.8014">
        <ele>165</ele>
        <time>2014-05-04T08:24:38Z</time>
      </trkpt>
      <trkpt lat="45.25203" lon="0.80138">
        <ele>165</ele>
        <time>2014-05-04T08:24:41Z</time>
      </trkpt>
      <trkpt lat="45.25197" lon="0.80135">
        <ele>164</ele>
        <time>2014-05-04T08:24:44Z</time>
      </trkpt>
      <trkpt lat="45.25177" lon="0.80132">
        <ele>163</ele>
        <time>2014-05-04T08:24:52Z</time>
      </trkpt>
      <trkpt lat="45.25158" lon="0.80124">
        <ele>162</ele>
        <time>2014-05-04T08:25:04Z</time>
      </trkpt>
      <trkpt lat="45.25141" lon="0.80147">
        <ele>160</ele>
        <time>2014-05-04T08:25:21Z</time>
      </trkpt>
      <trkpt lat="45.25122" lon="0.80176">
        <ele>159</ele>
        <time>2014-05-04T08:25:33Z</time>
      </trkpt>
      <trkpt lat="45.25116" lon="0.80191">
        <ele>160</ele>
        <time>2014-05-04T08:25:40Z</time>
      </trkpt>
      <trkpt lat="45.25112" lon="0.80214">
        <ele>161</ele>
        <time>2014-05-04T08:25:49Z</time>
      </trkpt>
      <trkpt lat="45.25115" lon="0.80234">
        <ele>162</ele>
        <time>2014-05-04T08:25:55Z</time>
      </trkpt>
      <trkpt lat="45.25119" lon="0.80265">
        <ele>164</ele>
        <time>2014-05-04T08:26:06Z</time>
      </trkpt>
      <trkpt lat="45.25115" lon="0.80294">
        <ele>166</ele>
        <time>2014-05-04T08:26:17Z</time>
      </trkpt>
      <trkpt lat="45.25119" lon="0.80319">
        <ele>168</ele>
        <time>2014-05-04T08:26:25Z</time>
      </trkpt>
      <trkpt lat="45.25126" lon="0.80353">
        <ele>169</ele>
        <time>2014-05-04T08:26:35Z</time>
      </trkpt>
      <trkpt lat="45.25125" lon="0.80378">
        <ele>170</ele>
        <time>2014-05-04T08:26:43Z</time>
      </trkpt>
      <trkpt lat="45.25123" lon="0.80403">
        <ele>171</ele>
        <time>2014-05-04T08:26:50Z</time>
      </trkpt>
      <trkpt lat="45.2512" lon="0.80432">
        <ele>171</ele>
        <time>2014-05-04T08:26:59Z</time>
      </trkpt>
      <trkpt lat="45.25128" lon="0.80462">
        <ele>169</ele>
        <time>2014-05-04T08:27:05Z</time>
      </trkpt>
      <trkpt lat="45.25137" lon="0.80493">
        <ele>166</ele>
        <time>2014-05-04T08:27:11Z</time>
      </trkpt>
      <trkpt lat="45.25137" lon="0.80532">
        <ele>164</ele>
        <time>2014-05-04T08:27:18Z</time>
      </trkpt>
      <trkpt lat="45.25134" lon="0.80566">
        <ele>163</ele>
        <time>2014-05-04T08:27:23Z</time>
      </trkpt>
      <trkpt lat="45.25132" lon="0.80606">
        <ele>160</ele>
        <time>2014-05-04T08:27:29Z</time>
      </trkpt>
      <trkpt lat="45.25133" lon="0.80648">
        <ele>158</ele>
        <time>2014-05-04T08:27:37Z</time>
      </trkpt>
      <trkpt lat="45.2514" lon="0.80672">
        <ele>157</ele>
        <time>2014-05-04T08:27:44Z</time>
      </trkpt>
      <trkpt lat="45.25149" lon="0.80708">
        <ele>155</ele>
        <time>2014-05-04T08:27:56Z</time>
      </trkpt>
      <trkpt lat="45.25154" lon="0.80732">
        <ele>154</ele>
        <time>2014-05-04T08:28:04Z</time>
      </trkpt>
      <trkpt lat="45.25156" lon="0.80762">
        <ele>153</ele>
        <time>2014-05-04T08:28:14Z</time>
      </trkpt>
      <trkpt lat="45.25157" lon="0.80772">
        <ele>152</ele>
        <time>2014-05-04T08:28:17Z</time>
      </trkpt>
      <trkpt lat="45.25157" lon="0.80801">
        <ele>151</ele>
        <time>2014-05-04T08:28:26Z</time>
      </trkpt>
      <trkpt lat="45.25141" lon="0.80826">
        <ele>153</ele>
        <time>2014-05-04T08:28:36Z</time>
      </trkpt>
      <trkpt lat="45.25135" lon="0.8084">
        <ele>153</ele>
        <time>2014-05-04T08:28:41Z</time>
      </trkpt>
      <trkpt lat="45.25136" lon="0.80882">
        <ele>152</ele>
        <time>2014-05-04T08:28:49Z</time>
      </trkpt>
      <trkpt lat="45.25135" lon="0.80899">
        <ele>152</ele>
        <time>2014-05-04T08:28:52Z</time>
      </trkpt>
      <trkpt lat="45.25132" lon="0.80923">
        <ele>152</ele>
        <time>2014-05-04T08:28:55Z</time>
      </trkpt>
      <trkpt lat="45.25123" lon="0.80963">
        <ele>151</ele>
        <time>2014-05-04T08:29:00Z</time>
      </trkpt>
      <trkpt lat="45.25107" lon="0.80997">
        <ele>151</ele>
        <time>2014-05-04T08:29:05Z</time>
      </trkpt>
      <trkpt lat="45.25092" lon="0.81006">
        <ele>152</ele>
        <time>2014-05-04T08:29:12Z</time>
      </trkpt>
      <trkpt lat="45.25081" lon="0.80992">
        <ele>153</ele>
        <time>2014-05-04T08:29:19Z</time>
      </trkpt>
      <trkpt lat="45.25065" lon="0.80978">
        <ele>155</ele>
        <time>2014-05-04T08:29:28Z</time>
      </trkpt>
      <trkpt lat="45.25057" lon="0.8097">
        <ele>156</ele>
        <time>2014-05-04T08:29:33Z</time>
      </trkpt>
      <trkpt lat="45.2504" lon="0.80955">
        <ele>157</ele>
        <time>2014-05-04T08:29:44Z</time>
      </trkpt>
      <trkpt lat="45.25024" lon="0.80939">
        <ele>159</ele>
        <time>2014-05-04T08:29:54Z</time>
      </trkpt>
      <trkpt lat="45.25009" lon="0.80923">
        <ele>161</ele>
        <time>2014-05-04T08:30:04Z</time>
      </trkpt>
      <trkpt lat="45.24991" lon="0.80906">
        <ele>164</ele>
        <time>2014-05-04T08:30:16Z</time>
      </trkpt>
      <trkpt lat="45.24974" lon="0.80889">
        <ele>167</ele>
        <time>2014-05-04T08:30:28Z</time>
      </trkpt>
      <trkpt lat="45.24967" lon="0.80882">
        <ele>168</ele>
        <time>2014-05-04T08:30:33Z</time>
      </trkpt>
      <trkpt lat="45.24949" lon="0.80868">
        <ele>170</ele>
        <time>2014-05-04T08:30:43Z</time>
      </trkpt>
      <trkpt lat="45.24943" lon="0.80862">
        <ele>170</ele>
        <time>2014-05-04T08:30:46Z</time>
      </trkpt>
      <trkpt lat="45.24938" lon="0.80856">
        <ele>171</ele>
        <time>2014-05-04T08:30:49Z</time>
      </trkpt>
      <trkpt lat="45.24918" lon="0.80836">
        <ele>173</ele>
        <time>2014-05-04T08:30:58Z</time>
      </trkpt>
      <trkpt lat="45.24908" lon="0.80826">
        <ele>173</ele>
        <time>2014-05-04T08:31:02Z</time>
      </trkpt>
      <trkpt lat="45.24901" lon="0.80819">
        <ele>174</ele>
        <time>2014-05-04T08:31:05Z</time>
      </trkpt>
      <trkpt lat="45.24893" lon="0.80811">
        <ele>174</ele>
        <time>2014-05-04T08:31:08Z</time>
      </trkpt>
      <trkpt lat="45.2488" lon="0.80789">
        <ele>174</ele>
        <time>2014-05-04T08:31:14Z</time>
      </trkpt>
      <trkpt lat="45.24876" lon="0.80778">
        <ele>174</ele>
        <time>2014-05-04T08:31:18Z</time>
      </trkpt>
      <trkpt lat="45.24872" lon="0.80768">
        <ele>175</ele>
        <time>2014-05-04T08:31:21Z</time>
      </trkpt>
      <trkpt lat="45.24867" lon="0.80758">
        <ele>175</ele>
        <time>2014-05-04T08:31:24Z</time>
      </trkpt>
      <trkpt lat="45.24854" lon="0.80734">
        <ele>174</ele>
        <time>2014-05-04T08:31:31Z</time>
      </trkpt>
      <trkpt lat="45.24848" lon="0.80723">
        <ele>174</ele>
        <time>2014-05-04T08:31:34Z</time>
      </trkpt>
      <trkpt lat="45.24841" lon="0.8071">
        <ele>173</ele>
        <time>2014-05-04T08:31:38Z</time>
      </trkpt>
      <trkpt lat="45.24828" lon="0.80683">
        <ele>173</ele>
        <time>2014-05-04T08:31:47Z</time>
      </trkpt>
      <trkpt lat="45.24818" lon="0.80668">
        <ele>174</ele>
        <time>2014-05-04T08:31:52Z</time>
      </trkpt>
      <trkpt lat="45.2481" lon="0.80657">
        <ele>175</ele>
        <time>2014-05-04T08:31:56Z</time>
      </trkpt>
      <trkpt lat="45.24793" lon="0.80633">
        <ele>176</ele>
        <time>2014-05-04T08:32:04Z</time>
      </trkpt>
      <trkpt lat="45.24775" lon="0.80609">
        <ele>177</ele>
        <time>2014-05-04T08:32:12Z</time>
      </trkpt>
      <trkpt lat="45.24759" lon="0.80585">
        <ele>178</ele>
        <time>2014-05-04T08:32:20Z</time>
      </trkpt>
      <trkpt lat="45.24752" lon="0.80577">
        <ele>179</ele>
        <time>2014-05-04T08:32:23Z</time>
      </trkpt>
      <trkpt lat="45.24738" lon="0.80553">
        <ele>180</ele>
        <time>2014-05-04T08:32:31Z</time>
      </trkpt>
      <trkpt lat="45.24719" lon="0.80526">
        <ele>182</ele>
        <time>2014-05-04T08:32:40Z</time>
      </trkpt>
      <trkpt lat="45.24703" lon="0.80503">
        <ele>183</ele>
        <time>2014-05-04T08:32:47Z</time>
      </trkpt>
      <trkpt lat="45.24684" lon="0.80483">
        <ele>184</ele>
        <time>2014-05-04T08:32:53Z</time>
      </trkpt>
      <trkpt lat="45.24675" lon="0.80472">
        <ele>185</ele>
        <time>2014-05-04T08:32:56Z</time>
      </trkpt>
      <trkpt lat="45.24665" lon="0.80461">
        <ele>185</ele>
        <time>2014-05-04T08:32:59Z</time>
      </trkpt>
      <trkpt lat="45.24649" lon="0.80441">
        <ele>185</ele>
        <time>2014-05-04T08:33:04Z</time>
      </trkpt>
      <trkpt lat="45.24631" lon="0.80414">
        <ele>185</ele>
        <time>2014-05-04T08:33:09Z</time>
      </trkpt>
      <trkpt lat="45.24615" lon="0.80376">
        <ele>184</ele>
        <time>2014-05-04T08:33:15Z</time>
      </trkpt>
      <trkpt lat="45.24606" lon="0.80357">
        <ele>184</ele>
        <time>2014-05-04T08:33:18Z</time>
      </trkpt>
      <trkpt lat="45.24597" lon="0.80333">
        <ele>184</ele>
        <time>2014-05-04T08:33:22Z</time>
      </trkpt>
      <trkpt lat="45.24586" lon="0.80305">
        <ele>185</ele>
        <time>2014-05-04T08:33:27Z</time>
      </trkpt>
      <trkpt lat="45.24575" lon="0.80276">
        <ele>184</ele>
        <time>2014-05-04T08:33:32Z</time>
      </trkpt>
      <trkpt lat="45.24568" lon="0.80259">
        <ele>184</ele>
        <time>2014-05-04T08:33:35Z</time>
      </trkpt>
      <trkpt lat="45.24561" lon="0.80242">
        <ele>184</ele>
        <time>2014-05-04T08:33:38Z</time>
      </trkpt>
      <trkpt lat="45.2455" lon="0.80211">
        <ele>184</ele>
        <time>2014-05-04T08:33:43Z</time>
      </trkpt>
      <trkpt lat="45.24542" lon="0.80172">
        <ele>182</ele>
        <time>2014-05-04T08:33:49Z</time>
      </trkpt>
      <trkpt lat="45.24535" lon="0.80136">
        <ele>183</ele>
        <time>2014-05-04T08:33:55Z</time>
      </trkpt>
      <trkpt lat="45.24533" lon="0.80107">
        <ele>183</ele>
        <time>2014-05-04T08:34:00Z</time>
      </trkpt>
      <trkpt lat="45.24529" lon="0.80073">
        <ele>184</ele>
        <time>2014-05-04T08:34:06Z</time>
      </trkpt>
      <trkpt lat="45.24525" lon="0.80043">
        <ele>186</ele>
        <time>2014-05-04T08:34:12Z</time>
      </trkpt>
      <trkpt lat="45.24523" lon="0.80015">
        <ele>187</ele>
        <time>2014-05-04T08:34:17Z</time>
      </trkpt>
      <trkpt lat="45.24519" lon="0.79976">
        <ele>189</ele>
        <time>2014-05-04T08:34:24Z</time>
      </trkpt>
      <trkpt lat="45.24515" lon="0.79949">
        <ele>190</ele>
        <time>2014-05-04T08:34:29Z</time>
      </trkpt>
      <trkpt lat="45.24513" lon="0.79931">
        <ele>190</ele>
        <time>2014-05-04T08:34:32Z</time>
      </trkpt>
      <trkpt lat="45.2451" lon="0.799">
        <ele>191</ele>
        <time>2014-05-04T08:34:38Z</time>
      </trkpt>
      <trkpt lat="45.24508" lon="0.79884">
        <ele>191</ele>
        <time>2014-05-04T08:34:41Z</time>
      </trkpt>
      <trkpt lat="45.24506" lon="0.79869">
        <ele>191</ele>
        <time>2014-05-04T08:34:44Z</time>
      </trkpt>
      <trkpt lat="45.24504" lon="0.79856">
        <ele>192</ele>
        <time>2014-05-04T08:34:47Z</time>
      </trkpt>
      <trkpt lat="45.24502" lon="0.79843">
        <ele>192</ele>
        <time>2014-05-04T08:34:50Z</time>
      </trkpt>
      <trkpt lat="45.24499" lon="0.79832">
        <ele>192</ele>
        <time>2014-05-04T08:34:53Z</time>
      </trkpt>
      <trkpt lat="45.24497" lon="0.79821">
        <ele>193</ele>
        <time>2014-05-04T08:34:56Z</time>
      </trkpt>
      <trkpt lat="45.24496" lon="0.79809">
        <ele>194</ele>
        <time>2014-05-04T08:34:59Z</time>
      </trkpt>
      <trkpt lat="45.24494" lon="0.79798">
        <ele>195</ele>
        <time>2014-05-04T08:35:02Z</time>
      </trkpt>
      <trkpt lat="45.24489" lon="0.79772">
        <ele>197</ele>
        <time>2014-05-04T08:35:09Z</time>
      </trkpt>
      <trkpt lat="45.24484" lon="0.79743">
        <ele>199</ele>
        <time>2014-05-04T08:35:17Z</time>
      </trkpt>
      <trkpt lat="45.24483" lon="0.79731">
        <ele>200</ele>
        <time>2014-05-04T08:35:20Z</time>
      </trkpt>
      <trkpt lat="45.24481" lon="0.79705">
        <ele>202</ele>
        <time>2014-05-04T08:35:27Z</time>
      </trkpt>
      <trkpt lat="45.24477" lon="0.79677">
        <ele>204</ele>
        <time>2014-05-04T08:35:34Z</time>
      </trkpt>
      <trkpt lat="45.24474" lon="0.79654">
        <ele>205</ele>
        <time>2014-05-04T08:35:40Z</time>
      </trkpt>
      <trkpt lat="45.2447" lon="0.7962">
        <ele>206</ele>
        <time>2014-05-04T08:35:48Z</time>
      </trkpt>
      <trkpt lat="45.24468" lon="0.79607">
        <ele>207</ele>
        <time>2014-05-04T08:35:51Z</time>
      </trkpt>
      <trkpt lat="45.24465" lon="0.79577">
        <ele>207</ele>
        <time>2014-05-04T08:35:58Z</time>
      </trkpt>
      <trkpt lat="45.24461" lon="0.79548">
        <ele>206</ele>
        <time>2014-05-04T08:36:05Z</time>
      </trkpt>
      <trkpt lat="45.24452" lon="0.79519">
        <ele>206</ele>
        <time>2014-05-04T08:36:13Z</time>
      </trkpt>
      <trkpt lat="45.24442" lon="0.79497">
        <ele>206</ele>
        <time>2014-05-04T08:36:19Z</time>
      </trkpt>
      <trkpt lat="45.24437" lon="0.79488">
        <ele>205</ele>
        <time>2014-05-04T08:36:22Z</time>
      </trkpt>
      <trkpt lat="45.24425" lon="0.79467">
        <ele>205</ele>
        <time>2014-05-04T08:36:29Z</time>
      </trkpt>
      <trkpt lat="45.24421" lon="0.79456">
        <ele>205</ele>
        <time>2014-05-04T08:36:32Z</time>
      </trkpt>
      <trkpt lat="45.24415" lon="0.79443">
        <ele>204</ele>
        <time>2014-05-04T08:36:36Z</time>
      </trkpt>
      <trkpt lat="45.24411" lon="0.79429">
        <ele>204</ele>
        <time>2014-05-04T08:36:40Z</time>
      </trkpt>
      <trkpt lat="45.24401" lon="0.79407">
        <ele>204</ele>
        <time>2014-05-04T08:36:47Z</time>
      </trkpt>
      <trkpt lat="45.24386" lon="0.79385">
        <ele>206</ele>
        <time>2014-05-04T08:36:55Z</time>
      </trkpt>
      <trkpt lat="45.24366" lon="0.79369">
        <ele>208</ele>
        <time>2014-05-04T08:37:03Z</time>
      </trkpt>
      <trkpt lat="45.24348" lon="0.79354">
        <ele>211</ele>
        <time>2014-05-04T08:37:10Z</time>
      </trkpt>
      <trkpt lat="45.24328" lon="0.79337">
        <ele>213</ele>
        <time>2014-05-04T08:37:18Z</time>
      </trkpt>
      <trkpt lat="45.2432" lon="0.79331">
        <ele>213</ele>
        <time>2014-05-04T08:37:21Z</time>
      </trkpt>
      <trkpt lat="45.24301" lon="0.79316">
        <ele>213</ele>
        <time>2014-05-04T08:37:29Z</time>
      </trkpt>
      <trkpt lat="45.24284" lon="0.79301">
        <ele>214</ele>
        <time>2014-05-04T08:37:36Z</time>
      </trkpt>
      <trkpt lat="45.24275" lon="0.79294">
        <ele>214</ele>
        <time>2014-05-04T08:37:39Z</time>
      </trkpt>
      <trkpt lat="45.24248" lon="0.79271">
        <ele>215</ele>
        <time>2014-05-04T08:37:46Z</time>
      </trkpt>
      <trkpt lat="45.24223" lon="0.79254">
        <ele>216</ele>
        <time>2014-05-04T08:37:51Z</time>
      </trkpt>
      <trkpt lat="45.24209" lon="0.7924">
        <ele>215</ele>
        <time>2014-05-04T08:37:54Z</time>
      </trkpt>
      <trkpt lat="45.24184" lon="0.79213">
        <ele>214</ele>
        <time>2014-05-04T08:37:59Z</time>
      </trkpt>
      <trkpt lat="45.24156" lon="0.79175">
        <ele>214</ele>
        <time>2014-05-04T08:38:05Z</time>
      </trkpt>
      <trkpt lat="45.24128" lon="0.79147">
        <ele>212</ele>
        <time>2014-05-04T08:38:11Z</time>
      </trkpt>
      <trkpt lat="45.24098" lon="0.79127">
        <ele>211</ele>
        <time>2014-05-04T08:38:17Z</time>
      </trkpt>
      <trkpt lat="45.24084" lon="0.79117">
        <ele>211</ele>
        <time>2014-05-04T08:38:20Z</time>
      </trkpt>
      <trkpt lat="45.24071" lon="0.79107">
        <ele>211</ele>
        <time>2014-05-04T08:38:23Z</time>
      </trkpt>
      <trkpt lat="45.24059" lon="0.79097">
        <ele>212</ele>
        <time>2014-05-04T08:38:26Z</time>
      </trkpt>
      <trkpt lat="45.24035" lon="0.7908">
        <ele>213</ele>
        <time>2014-05-04T08:38:32Z</time>
      </trkpt>
      <trkpt lat="45.24012" lon="0.79064">
        <ele>213</ele>
        <time>2014-05-04T08:38:38Z</time>
      </trkpt>
      <trkpt lat="45.23992" lon="0.79051">
        <ele>213</ele>
        <time>2014-05-04T08:38:43Z</time>
      </trkpt>
      <trkpt lat="45.2398" lon="0.79042">
        <ele>213</ele>
        <time>2014-05-04T08:38:46Z</time>
      </trkpt>
      <trkpt lat="45.23966" lon="0.7903">
        <ele>214</ele>
        <time>2014-05-04T08:38:49Z</time>
      </trkpt>
      <trkpt lat="45.23955" lon="0.79018">
        <ele>214</ele>
        <time>2014-05-04T08:38:52Z</time>
      </trkpt>
      <trkpt lat="45.23934" lon="0.78994">
        <ele>215</ele>
        <time>2014-05-04T08:38:57Z</time>
      </trkpt>
      <trkpt lat="45.23911" lon="0.7896">
        <ele>214</ele>
        <time>2014-05-04T08:39:03Z</time>
      </trkpt>
      <trkpt lat="45.23883" lon="0.78923">
        <ele>212</ele>
        <time>2014-05-04T08:39:09Z</time>
      </trkpt>
      <trkpt lat="45.23865" lon="0.78895">
        <ele>211</ele>
        <time>2014-05-04T08:39:14Z</time>
      </trkpt>
      <trkpt lat="45.23845" lon="0.78868">
        <ele>211</ele>
        <time>2014-05-04T08:39:21Z</time>
      </trkpt>
      <trkpt lat="45.2383" lon="0.7885">
        <ele>211</ele>
        <time>2014-05-04T08:39:27Z</time>
      </trkpt>
      <trkpt lat="45.2381" lon="0.78823">
        <ele>213</ele>
        <time>2014-05-04T08:39:34Z</time>
      </trkpt>
      <trkpt lat="45.23793" lon="0.78796">
        <ele>215</ele>
        <time>2014-05-04T08:39:39Z</time>
      </trkpt>
      <trkpt lat="45.23767" lon="0.78758">
        <ele>217</ele>
        <time>2014-05-04T08:39:45Z</time>
      </trkpt>
      <trkpt lat="45.23735" lon="0.78718">
        <ele>218</ele>
        <time>2014-05-04T08:39:51Z</time>
      </trkpt>
      <trkpt lat="45.23709" lon="0.78686">
        <ele>217</ele>
        <time>2014-05-04T08:39:56Z</time>
      </trkpt>
      <trkpt lat="45.23675" lon="0.78652">
        <ele>217</ele>
        <time>2014-05-04T08:40:02Z</time>
      </trkpt>
      <trkpt lat="45.23651" lon="0.78626">
        <ele>216</ele>
        <time>2014-05-04T08:40:07Z</time>
      </trkpt>
      <trkpt lat="45.23628" lon="0.78601">
        <ele>215</ele>
        <time>2014-05-04T08:40:12Z</time>
      </trkpt>
      <trkpt lat="45.23611" lon="0.7858">
        <ele>215</ele>
        <time>2014-05-04T08:40:17Z</time>
      </trkpt>
      <trkpt lat="45.23593" lon="0.7856">
        <ele>215</ele>
        <time>2014-05-04T08:40:23Z</time>
      </trkpt>
      <trkpt lat="45.23585" lon="0.78551">
        <ele>216</ele>
        <time>2014-05-04T08:40:26Z</time>
      </trkpt>
      <trkpt lat="45.23577" lon="0.78542">
        <ele>216</ele>
        <time>2014-05-04T08:40:29Z</time>
      </trkpt>
      <trkpt lat="45.23568" lon="0.78533">
        <ele>217</ele>
        <time>2014-05-04T08:40:32Z</time>
      </trkpt>
      <trkpt lat="45.23548" lon="0.78512">
        <ele>218</ele>
        <time>2014-05-04T08:40:40Z</time>
      </trkpt>
      <trkpt lat="45.23539" lon="0.78499">
        <ele>218</ele>
        <time>2014-05-04T08:40:48Z</time>
      </trkpt>
      <trkpt lat="45.23539" lon="0.78499">
        <ele>218</ele>
        <time>2014-05-04T08:40:55Z</time>
      </trkpt>
      <trkpt lat="45.23539" lon="0.78499">
        <ele>218</ele>
        <time>2014-05-04T08:41:12Z</time>
      </trkpt>
      <trkpt lat="45.23526" lon="0.78514">
        <ele>218</ele>
        <time>2014-05-04T08:41:12Z</time>
      </trkpt>
      <trkpt lat="45.23498" lon="0.78533">
        <ele>217</ele>
        <time>2014-05-04T08:41:19Z</time>
      </trkpt>
      <trkpt lat="45.23474" lon="0.78536">
        <ele>218</ele>
        <time>2014-05-04T08:41:24Z</time>
      </trkpt>
      <trkpt lat="45.2346" lon="0.78541">
        <ele>218</ele>
        <time>2014-05-04T08:41:27Z</time>
      </trkpt>
      <trkpt lat="45.23441" lon="0.78559">
        <ele>219</ele>
        <time>2014-05-04T08:41:32Z</time>
      </trkpt>
      <trkpt lat="45.23429" lon="0.78576">
        <ele>219</ele>
        <time>2014-05-04T08:41:36Z</time>
      </trkpt>
      <trkpt lat="45.23419" lon="0.78593">
        <ele>219</ele>
        <time>2014-05-04T08:41:40Z</time>
      </trkpt>
      <trkpt lat="45.23396" lon="0.78624">
        <ele>219</ele>
        <time>2014-05-04T08:41:47Z</time>
      </trkpt>
      <trkpt lat="45.23376" lon="0.7865">
        <ele>219</ele>
        <time>2014-05-04T08:41:53Z</time>
      </trkpt>
      <trkpt lat="45.23357" lon="0.78675">
        <ele>218</ele>
        <time>2014-05-04T08:41:59Z</time>
      </trkpt>
      <trkpt lat="45.23336" lon="0.78708">
        <ele>216</ele>
        <time>2014-05-04T08:42:04Z</time>
      </trkpt>
      <trkpt lat="45.23305" lon="0.78752">
        <ele>212</ele>
        <time>2014-05-04T08:42:10Z</time>
      </trkpt>
      <trkpt lat="45.23278" lon="0.78791">
        <ele>211</ele>
        <time>2014-05-04T08:42:15Z</time>
      </trkpt>
      <trkpt lat="45.23247" lon="0.78834">
        <ele>211</ele>
        <time>2014-05-04T08:42:20Z</time>
      </trkpt>
      <trkpt lat="45.2323" lon="0.78858">
        <ele>209</ele>
        <time>2014-05-04T08:42:23Z</time>
      </trkpt>
      <trkpt lat="45.23214" lon="0.78882">
        <ele>208</ele>
        <time>2014-05-04T08:42:26Z</time>
      </trkpt>
      <trkpt lat="45.23193" lon="0.78893">
        <ele>208</ele>
        <time>2014-05-04T08:42:34Z</time>
      </trkpt>
      <trkpt lat="45.2319" lon="0.78817">
        <ele>210</ele>
        <time>2014-05-04T08:42:44Z</time>
      </trkpt>
      <trkpt lat="45.23188" lon="0.78787">
        <ele>210</ele>
        <time>2014-05-04T08:42:48Z</time>
      </trkpt>
      <trkpt lat="45.23186" lon="0.7873">
        <ele>210</ele>
        <time>2014-05-04T08:42:54Z</time>
      </trkpt>
      <trkpt lat="45.23177" lon="0.78677">
        <ele>210</ele>
        <time>2014-05-04T08:42:59Z</time>
      </trkpt>
      <trkpt lat="45.2318" lon="0.78626">
        <ele>209</ele>
        <time>2014-05-04T08:43:05Z</time>
      </trkpt>
      <trkpt lat="45.23183" lon="0.78604">
        <ele>209</ele>
        <time>2014-05-04T08:43:10Z</time>
      </trkpt>
      <trkpt lat="45.2318" lon="0.78587">
        <ele>208</ele>
        <time>2014-05-04T08:43:14Z</time>
      </trkpt>
      <trkpt lat="45.2318" lon="0.78587">
        <ele>208</ele>
        <time>2014-05-04T08:43:21Z</time>
      </trkpt>
      <trkpt lat="45.2318" lon="0.78587">
        <ele>208</ele>
        <time>2014-05-04T08:43:24Z</time>
      </trkpt>
      <trkpt lat="45.23168" lon="0.78613">
        <ele>207</ele>
        <time>2014-05-04T08:43:24Z</time>
      </trkpt>
      <trkpt lat="45.23153" lon="0.78645">
        <ele>206</ele>
        <time>2014-05-04T08:43:30Z</time>
      </trkpt>
      <trkpt lat="45.23145" lon="0.78669">
        <ele>206</ele>
        <time>2014-05-04T08:43:35Z</time>
      </trkpt>
      <trkpt lat="45.23131" lon="0.78697">
        <ele>203</ele>
        <time>2014-05-04T08:43:40Z</time>
      </trkpt>
      <trkpt lat="45.23122" lon="0.78713">
        <ele>202</ele>
        <time>2014-05-04T08:43:43Z</time>
      </trkpt>
      <trkpt lat="45.23085" lon="0.78731">
        <ele>197</ele>
        <time>2014-05-04T08:43:49Z</time>
      </trkpt>
      <trkpt lat="45.23063" lon="0.78713">
        <ele>195</ele>
        <time>2014-05-04T08:43:53Z</time>
      </trkpt>
      <trkpt lat="45.23035" lon="0.78681">
        <ele>193</ele>
        <time>2014-05-04T08:43:59Z</time>
      </trkpt>
      <trkpt lat="45.23013" lon="0.78657">
        <ele>193</ele>
        <time>2014-05-04T08:44:04Z</time>
      </trkpt>
      <trkpt lat="45.22982" lon="0.78634">
        <ele>193</ele>
        <time>2014-05-04T08:44:10Z</time>
      </trkpt>
      <trkpt lat="45.22964" lon="0.78619">
        <ele>193</ele>
        <time>2014-05-04T08:44:16Z</time>
      </trkpt>
      <trkpt lat="45.22941" lon="0.78624">
        <ele>191</ele>
        <time>2014-05-04T08:44:21Z</time>
      </trkpt>
      <trkpt lat="45.22922" lon="0.78595">
        <ele>192</ele>
        <time>2014-05-04T08:44:27Z</time>
      </trkpt>
      <trkpt lat="45.22907" lon="0.78559">
        <ele>194</ele>
        <time>2014-05-04T08:44:33Z</time>
      </trkpt>
      <trkpt lat="45.22879" lon="0.78514">
        <ele>194</ele>
        <time>2014-05-04T08:44:39Z</time>
      </trkpt>
      <trkpt lat="45.22871" lon="0.78481">
        <ele>195</ele>
        <time>2014-05-04T08:44:45Z</time>
      </trkpt>
      <trkpt lat="45.22861" lon="0.78444">
        <ele>195</ele>
        <time>2014-05-04T08:44:50Z</time>
      </trkpt>
      <trkpt lat="45.22838" lon="0.78405">
        <ele>193</ele>
        <time>2014-05-04T08:44:55Z</time>
      </trkpt>
      <trkpt lat="45.22827" lon="0.78366">
        <ele>193</ele>
        <time>2014-05-04T08:45:01Z</time>
      </trkpt>
      <trkpt lat="45.22817" lon="0.78326">
        <ele>193</ele>
        <time>2014-05-04T08:45:07Z</time>
      </trkpt>
      <trkpt lat="45.22814" lon="0.78276">
        <ele>192</ele>
        <time>2014-05-04T08:45:14Z</time>
      </trkpt>
      <trkpt lat="45.22806" lon="0.78239">
        <ele>191</ele>
        <time>2014-05-04T08:45:19Z</time>
      </trkpt>
      <trkpt lat="45.22793" lon="0.78201">
        <ele>190</ele>
        <time>2014-05-04T08:45:25Z</time>
      </trkpt>
      <trkpt lat="45.22767" lon="0.78162">
        <ele>188</ele>
        <time>2014-05-04T08:45:31Z</time>
      </trkpt>
      <trkpt lat="45.22744" lon="0.78147">
        <ele>187</ele>
        <time>2014-05-04T08:45:35Z</time>
      </trkpt>
      <trkpt lat="45.22728" lon="0.78138">
        <ele>186</ele>
        <time>2014-05-04T08:45:38Z</time>
      </trkpt>
      <trkpt lat="45.227" lon="0.78134">
        <ele>182</ele>
        <time>2014-05-04T08:45:44Z</time>
      </trkpt>
      <trkpt lat="45.22669" lon="0.78119">
        <ele>179</ele>
        <time>2014-05-04T08:45:50Z</time>
      </trkpt>
      <trkpt lat="45.22635" lon="0.78091">
        <ele>176</ele>
        <time>2014-05-04T08:45:56Z</time>
      </trkpt>
      <trkpt lat="45.22614" lon="0.78056">
        <ele>176</ele>
        <time>2014-05-04T08:46:01Z</time>
      </trkpt>
      <trkpt lat="45.22592" lon="0.78017">
        <ele>175</ele>
        <time>2014-05-04T08:46:07Z</time>
      </trkpt>
      <trkpt lat="45.22569" lon="0.77985">
        <ele>175</ele>
        <time>2014-05-04T08:46:13Z</time>
      </trkpt>
      <trkpt lat="45.22542" lon="0.77961">
        <ele>174</ele>
        <time>2014-05-04T08:46:19Z</time>
      </trkpt>
      <trkpt lat="45.22516" lon="0.77956">
        <ele>171</ele>
        <time>2014-05-04T08:46:24Z</time>
      </trkpt>
      <trkpt lat="45.22483" lon="0.77942">
        <ele>169</ele>
        <time>2014-05-04T08:46:30Z</time>
      </trkpt>
      <trkpt lat="45.22456" lon="0.77931">
        <ele>167</ele>
        <time>2014-05-04T08:46:35Z</time>
      </trkpt>
      <trkpt lat="45.22442" lon="0.77921">
        <ele>167</ele>
        <time>2014-05-04T08:46:38Z</time>
      </trkpt>
      <trkpt lat="45.22416" lon="0.77887">
        <ele>168</ele>
        <time>2014-05-04T08:46:44Z</time>
      </trkpt>
      <trkpt lat="45.22389" lon="0.7786">
        <ele>169</ele>
        <time>2014-05-04T08:46:50Z</time>
      </trkpt>
      <trkpt lat="45.2237" lon="0.7785">
        <ele>170</ele>
        <time>2014-05-04T08:46:54Z</time>
      </trkpt>
      <trkpt lat="45.22337" lon="0.77854">
        <ele>168</ele>
        <time>2014-05-04T08:46:59Z</time>
      </trkpt>
      <trkpt lat="45.22299" lon="0.77853">
        <ele>166</ele>
        <time>2014-05-04T08:47:06Z</time>
      </trkpt>
      <trkpt lat="45.22266" lon="0.77832">
        <ele>166</ele>
        <time>2014-05-04T08:47:12Z</time>
      </trkpt>
      <trkpt lat="45.22234" lon="0.77822">
        <ele>166</ele>
        <time>2014-05-04T08:47:17Z</time>
      </trkpt>
      <trkpt lat="45.2221" lon="0.77818">
        <ele>167</ele>
        <time>2014-05-04T08:47:21Z</time>
      </trkpt>
      <trkpt lat="45.22189" lon="0.77801">
        <ele>168</ele>
        <time>2014-05-04T08:47:25Z</time>
      </trkpt>
      <trkpt lat="45.22158" lon="0.77777">
        <ele>169</ele>
        <time>2014-05-04T08:47:31Z</time>
      </trkpt>
      <trkpt lat="45.22131" lon="0.77767">
        <ele>168</ele>
        <time>2014-05-04T08:47:36Z</time>
      </trkpt>
      <trkpt lat="45.22092" lon="0.77764">
        <ele>165</ele>
        <time>2014-05-04T08:47:43Z</time>
      </trkpt>
      <trkpt lat="45.2206" lon="0.77759">
        <ele>163</ele>
        <time>2014-05-04T08:47:48Z</time>
      </trkpt>
      <trkpt lat="45.22028" lon="0.77738">
        <ele>160</ele>
        <time>2014-05-04T08:47:55Z</time>
      </trkpt>
      <trkpt lat="45.22015" lon="0.77704">
        <ele>159</ele>
        <time>2014-05-04T08:48:01Z</time>
      </trkpt>
      <trkpt lat="45.22" lon="0.77659">
        <ele>158</ele>
        <time>2014-05-04T08:48:06Z</time>
      </trkpt>
      <trkpt lat="45.21976" lon="0.77615">
        <ele>159</ele>
        <time>2014-05-04T08:48:12Z</time>
      </trkpt>
      <trkpt lat="45.21961" lon="0.77584">
        <ele>159</ele>
        <time>2014-05-04T08:48:17Z</time>
      </trkpt>
      <trkpt lat="45.21932" lon="0.7755">
        <ele>161</ele>
        <time>2014-05-04T08:48:23Z</time>
      </trkpt>
      <trkpt lat="45.2191" lon="0.77508">
        <ele>165</ele>
        <time>2014-05-04T08:48:29Z</time>
      </trkpt>
      <trkpt lat="45.21881" lon="0.77468">
        <ele>164</ele>
        <time>2014-05-04T08:48:36Z</time>
      </trkpt>
      <trkpt lat="45.21862" lon="0.77435">
        <ele>165</ele>
        <time>2014-05-04T08:48:42Z</time>
      </trkpt>
      <trkpt lat="45.21839" lon="0.77425">
        <ele>164</ele>
        <time>2014-05-04T08:48:47Z</time>
      </trkpt>
      <trkpt lat="45.21813" lon="0.77412">
        <ele>161</ele>
        <time>2014-05-04T08:48:53Z</time>
      </trkpt>
      <trkpt lat="45.21783" lon="0.77404">
        <ele>156</ele>
        <time>2014-05-04T08:48:59Z</time>
      </trkpt>
      <trkpt lat="45.21768" lon="0.77405">
        <ele>153</ele>
        <time>2014-05-04T08:49:03Z</time>
      </trkpt>
      <trkpt lat="45.21736" lon="0.77392">
        <ele>150</ele>
        <time>2014-05-04T08:49:10Z</time>
      </trkpt>
      <trkpt lat="45.21708" lon="0.77376">
        <ele>150</ele>
        <time>2014-05-04T08:49:16Z</time>
      </trkpt>
      <trkpt lat="45.21678" lon="0.77357">
        <ele>148</ele>
        <time>2014-05-04T08:49:23Z</time>
      </trkpt>
      <trkpt lat="45.21655" lon="0.77332">
        <ele>148</ele>
        <time>2014-05-04T08:49:28Z</time>
      </trkpt>
      <trkpt lat="45.21622" lon="0.77284">
        <ele>149</ele>
        <time>2014-05-04T08:49:35Z</time>
      </trkpt>
      <trkpt lat="45.21584" lon="0.77249">
        <ele>151</ele>
        <time>2014-05-04T08:49:42Z</time>
      </trkpt>
      <trkpt lat="45.21554" lon="0.77234">
        <ele>151</ele>
        <time>2014-05-04T08:49:47Z</time>
      </trkpt>
      <trkpt lat="45.21522" lon="0.77224">
        <ele>150</ele>
        <time>2014-05-04T08:49:52Z</time>
      </trkpt>
      <trkpt lat="45.21483" lon="0.7722">
        <ele>149</ele>
        <time>2014-05-04T08:49:58Z</time>
      </trkpt>
      <trkpt lat="45.21464" lon="0.77213">
        <ele>149</ele>
        <time>2014-05-04T08:50:01Z</time>
      </trkpt>
      <trkpt lat="45.21447" lon="0.77202">
        <ele>149</ele>
        <time>2014-05-04T08:50:04Z</time>
      </trkpt>
      <trkpt lat="45.21418" lon="0.77188">
        <ele>148</ele>
        <time>2014-05-04T08:50:09Z</time>
      </trkpt>
      <trkpt lat="45.21381" lon="0.77173">
        <ele>146</ele>
        <time>2014-05-04T08:50:15Z</time>
      </trkpt>
      <trkpt lat="45.2135" lon="0.7717">
        <ele>143</ele>
        <time>2014-05-04T08:50:20Z</time>
      </trkpt>
      <trkpt lat="45.21304" lon="0.77166">
        <ele>141</ele>
        <time>2014-05-04T08:50:27Z</time>
      </trkpt>
      <trkpt lat="45.21268" lon="0.77148">
        <ele>140</ele>
        <time>2014-05-04T08:50:33Z</time>
      </trkpt>
      <trkpt lat="45.2125" lon="0.77124">
        <ele>139</ele>
        <time>2014-05-04T08:50:39Z</time>
      </trkpt>
      <trkpt lat="45.21228" lon="0.77089">
        <ele>137</ele>
        <time>2014-05-04T08:50:45Z</time>
      </trkpt>
      <trkpt lat="45.21206" lon="0.77046">
        <ele>137</ele>
        <time>2014-05-04T08:50:51Z</time>
      </trkpt>
      <trkpt lat="45.21177" lon="0.77012">
        <ele>135</ele>
        <time>2014-05-04T08:50:57Z</time>
      </trkpt>
      <trkpt lat="45.21152" lon="0.76977">
        <ele>138</ele>
        <time>2014-05-04T08:51:02Z</time>
      </trkpt>
      <trkpt lat="45.2112" lon="0.76947">
        <ele>141</ele>
        <time>2014-05-04T08:51:08Z</time>
      </trkpt>
      <trkpt lat="45.21086" lon="0.76924">
        <ele>142</ele>
        <time>2014-05-04T08:51:14Z</time>
      </trkpt>
      <trkpt lat="45.21063" lon="0.76909">
        <ele>141</ele>
        <time>2014-05-04T08:51:18Z</time>
      </trkpt>
      <trkpt lat="45.21026" lon="0.76909">
        <ele>137</ele>
        <time>2014-05-04T08:51:24Z</time>
      </trkpt>
      <trkpt lat="45.20998" lon="0.76926">
        <ele>133</ele>
        <time>2014-05-04T08:51:30Z</time>
      </trkpt>
      <trkpt lat="45.2097" lon="0.76932">
        <ele>133</ele>
        <time>2014-05-04T08:51:35Z</time>
      </trkpt>
      <trkpt lat="45.20941" lon="0.76932">
        <ele>132</ele>
        <time>2014-05-04T08:51:40Z</time>
      </trkpt>
      <trkpt lat="45.20903" lon="0.76926">
        <ele>132</ele>
        <time>2014-05-04T08:51:46Z</time>
      </trkpt>
      <trkpt lat="45.20875" lon="0.76921">
        <ele>131</ele>
        <time>2014-05-04T08:51:51Z</time>
      </trkpt>
      <trkpt lat="45.20843" lon="0.76918">
        <ele>131</ele>
        <time>2014-05-04T08:51:56Z</time>
      </trkpt>
      <trkpt lat="45.20804" lon="0.76909">
        <ele>131</ele>
        <time>2014-05-04T08:52:02Z</time>
      </trkpt>
      <trkpt lat="45.20776" lon="0.76908">
        <ele>131</ele>
        <time>2014-05-04T08:52:07Z</time>
      </trkpt>
      <trkpt lat="45.20742" lon="0.76899">
        <ele>131</ele>
        <time>2014-05-04T08:52:13Z</time>
      </trkpt>
      <trkpt lat="45.20703" lon="0.76882">
        <ele>130</ele>
        <time>2014-05-04T08:52:20Z</time>
      </trkpt>
      <trkpt lat="45.20678" lon="0.76867">
        <ele>130</ele>
        <time>2014-05-04T08:52:25Z</time>
      </trkpt>
      <trkpt lat="45.20642" lon="0.76858">
        <ele>131</ele>
        <time>2014-05-04T08:52:31Z</time>
      </trkpt>
      <trkpt lat="45.20606" lon="0.7685">
        <ele>133</ele>
        <time>2014-05-04T08:52:37Z</time>
      </trkpt>
      <trkpt lat="45.20583" lon="0.76839">
        <ele>134</ele>
        <time>2014-05-04T08:52:42Z</time>
      </trkpt>
      <trkpt lat="45.2056" lon="0.76823">
        <ele>135</ele>
        <time>2014-05-04T08:52:47Z</time>
      </trkpt>
      <trkpt lat="45.2053" lon="0.76804">
        <ele>137</ele>
        <time>2014-05-04T08:52:54Z</time>
      </trkpt>
      <trkpt lat="45.20492" lon="0.76793">
        <ele>136</ele>
        <time>2014-05-04T08:53:01Z</time>
      </trkpt>
      <trkpt lat="45.2047" lon="0.76799">
        <ele>133</ele>
        <time>2014-05-04T08:53:06Z</time>
      </trkpt>
      <trkpt lat="45.20439" lon="0.7681">
        <ele>129</ele>
        <time>2014-05-04T08:53:12Z</time>
      </trkpt>
      <trkpt lat="45.20421" lon="0.76815">
        <ele>127</ele>
        <time>2014-05-04T08:53:16Z</time>
      </trkpt>
      <trkpt lat="45.20398" lon="0.76824">
        <ele>125</ele>
        <time>2014-05-04T08:53:21Z</time>
      </trkpt>
      <trkpt lat="45.20376" lon="0.76832">
        <ele>124</ele>
        <time>2014-05-04T08:53:26Z</time>
      </trkpt>
      <trkpt lat="45.20356" lon="0.76843">
        <ele>125</ele>
        <time>2014-05-04T08:53:32Z</time>
      </trkpt>
      <trkpt lat="45.20332" lon="0.7684">
        <ele>124</ele>
        <time>2014-05-04T08:53:37Z</time>
      </trkpt>
      <trkpt lat="45.20309" lon="0.76813">
        <ele>121</ele>
        <time>2014-05-04T08:53:42Z</time>
      </trkpt>
      <trkpt lat="45.20289" lon="0.7678">
        <ele>120</ele>
        <time>2014-05-04T08:53:49Z</time>
      </trkpt>
      <trkpt lat="45.20276" lon="0.76771">
        <ele>119</ele>
        <time>2014-05-04T08:53:57Z</time>
      </trkpt>
      <trkpt lat="45.20226" lon="0.76808">
        <ele>116</ele>
        <time>2014-05-04T08:54:10Z</time>
      </trkpt>
      <trkpt lat="45.20197" lon="0.76831">
        <ele>117</ele>
        <time>2014-05-04T08:54:16Z</time>
      </trkpt>
      <trkpt lat="45.20182" lon="0.76836">
        <ele>117</ele>
        <time>2014-05-04T08:54:20Z</time>
      </trkpt>
      <trkpt lat="45.20169" lon="0.76838">
        <ele>118</ele>
        <time>2014-05-04T08:54:25Z</time>
      </trkpt>
      <trkpt lat="45.2015" lon="0.76838">
        <ele>118</ele>
        <time>2014-05-04T08:54:35Z</time>
      </trkpt>
      <trkpt lat="45.20138" lon="0.76837">
        <ele>117</ele>
        <time>2014-05-04T08:54:44Z</time>
      </trkpt>
      <trkpt lat="45.20118" lon="0.76837">
        <ele>118</ele>
        <time>2014-05-04T08:54:57Z</time>
      </trkpt>
      <trkpt lat="45.20099" lon="0.7684">
        <ele>118</ele>
        <time>2014-05-04T08:55:10Z</time>
      </trkpt>
      <trkpt lat="45.2008" lon="0.7685">
        <ele>120</ele>
        <time>2014-05-04T08:55:23Z</time>
      </trkpt>
      <trkpt lat="45.20064" lon="0.76868">
        <ele>123</ele>
        <time>2014-05-04T08:55:36Z</time>
      </trkpt>
      <trkpt lat="45.20053" lon="0.76877">
        <ele>125</ele>
        <time>2014-05-04T08:55:44Z</time>
      </trkpt>
      <trkpt lat="45.20053" lon="0.76877">
        <ele>125</ele>
        <time>2014-05-04T08:55:52Z</time>
      </trkpt>
      <trkpt lat="45.20053" lon="0.76877">
        <ele>125</ele>
        <time>2014-05-04T08:56:21Z</time>
      </trkpt>
      <trkpt lat="45.20041" lon="0.76895">
        <ele>128</ele>
        <time>2014-05-04T08:56:21Z</time>
      </trkpt>
      <trkpt lat="45.2002" lon="0.76913">
        <ele>130</ele>
        <time>2014-05-04T08:56:28Z</time>
      </trkpt>
      <trkpt lat="45.20006" lon="0.76922">
        <ele>131</ele>
        <time>2014-05-04T08:56:34Z</time>
      </trkpt>
      <trkpt lat="45.19992" lon="0.76935">
        <ele>132</ele>
        <time>2014-05-04T08:56:44Z</time>
      </trkpt>
      <trkpt lat="45.19969" lon="0.76918">
        <ele>132</ele>
        <time>2014-05-04T08:56:59Z</time>
      </trkpt>
      <trkpt lat="45.19952" lon="0.76878">
        <ele>129</ele>
        <time>2014-05-04T08:57:04Z</time>
      </trkpt>
      <trkpt lat="45.19912" lon="0.76841">
        <ele>127</ele>
        <time>2014-05-04T08:57:10Z</time>
      </trkpt>
      <trkpt lat="45.19893" lon="0.76836">
        <ele>127</ele>
        <time>2014-05-04T08:57:13Z</time>
      </trkpt>
      <trkpt lat="45.19866" lon="0.76833">
        <ele>128</ele>
        <time>2014-05-04T08:57:18Z</time>
      </trkpt>
      <trkpt lat="45.19843" lon="0.7683">
        <ele>128</ele>
        <time>2014-05-04T08:57:24Z</time>
      </trkpt>
      <trkpt lat="45.19827" lon="0.76825">
        <ele>129</ele>
        <time>2014-05-04T08:57:29Z</time>
      </trkpt>
      <trkpt lat="45.19806" lon="0.76817">
        <ele>129</ele>
        <time>2014-05-04T08:57:37Z</time>
      </trkpt>
      <trkpt lat="45.19785" lon="0.76804">
        <ele>129</ele>
        <time>2014-05-04T08:57:44Z</time>
      </trkpt>
      <trkpt lat="45.19767" lon="0.76795">
        <ele>129</ele>
        <time>2014-05-04T08:57:50Z</time>
      </trkpt>
      <trkpt lat="45.19745" lon="0.76782">
        <ele>129</ele>
        <time>2014-05-04T08:57:58Z</time>
      </trkpt>
      <trkpt lat="45.1973" lon="0.76775">
        <ele>130</ele>
        <time>2014-05-04T08:58:03Z</time>
      </trkpt>
      <trkpt lat="45.19712" lon="0.76766">
        <ele>130</ele>
        <time>2014-05-04T08:58:09Z</time>
      </trkpt>
      <trkpt lat="45.19693" lon="0.76755">
        <ele>130</ele>
        <time>2014-05-04T08:58:15Z</time>
      </trkpt>
      <trkpt lat="45.19679" lon="0.76746">
        <ele>130</ele>
        <time>2014-05-04T08:58:18Z</time>
      </trkpt>
      <trkpt lat="45.1966" lon="0.76736">
        <ele>130</ele>
        <time>2014-05-04T08:58:22Z</time>
      </trkpt>
      <trkpt lat="45.19629" lon="0.76721">
        <ele>131</ele>
        <time>2014-05-04T08:58:27Z</time>
      </trkpt>
      <trkpt lat="45.19591" lon="0.76698">
        <ele>130</ele>
        <time>2014-05-04T08:58:32Z</time>
      </trkpt>
      <trkpt lat="45.19561" lon="0.76682">
        <ele>128</ele>
        <time>2014-05-04T08:58:36Z</time>
      </trkpt>
      <trkpt lat="45.19532" lon="0.7668">
        <ele>128</ele>
        <time>2014-05-04T08:58:40Z</time>
      </trkpt>
      <trkpt lat="45.19496" lon="0.76694">
        <ele>131</ele>
        <time>2014-05-04T08:58:45Z</time>
      </trkpt>
      <trkpt lat="45.19454" lon="0.76708">
        <ele>130</ele>
        <time>2014-05-04T08:58:51Z</time>
      </trkpt>
      <trkpt lat="45.19411" lon="0.76724">
        <ele>129</ele>
        <time>2014-05-04T08:58:57Z</time>
      </trkpt>
      <trkpt lat="45.19389" lon="0.76732">
        <ele>128</ele>
        <time>2014-05-04T08:59:00Z</time>
      </trkpt>
      <trkpt lat="45.19353" lon="0.76744">
        <ele>128</ele>
        <time>2014-05-04T08:59:05Z</time>
      </trkpt>
      <trkpt lat="45.19332" lon="0.76754">
        <ele>128</ele>
        <time>2014-05-04T08:59:08Z</time>
      </trkpt>
      <trkpt lat="45.19292" lon="0.76768">
        <ele>127</ele>
        <time>2014-05-04T08:59:14Z</time>
      </trkpt>
      <trkpt lat="45.19256" lon="0.76781">
        <ele>126</ele>
        <time>2014-05-04T08:59:20Z</time>
      </trkpt>
      <trkpt lat="45.19225" lon="0.76791">
        <ele>125</ele>
        <time>2014-05-04T08:59:26Z</time>
      </trkpt>
      <trkpt lat="45.19198" lon="0.76802">
        <ele>125</ele>
        <time>2014-05-04T08:59:31Z</time>
      </trkpt>
      <trkpt lat="45.19182" lon="0.76808">
        <ele>124</ele>
        <time>2014-05-04T08:59:34Z</time>
      </trkpt>
      <trkpt lat="45.19165" lon="0.76815">
        <ele>124</ele>
        <time>2014-05-04T08:59:37Z</time>
      </trkpt>
      <trkpt lat="45.19129" lon="0.76827">
        <ele>122</ele>
        <time>2014-05-04T08:59:44Z</time>
      </trkpt>
      <trkpt lat="45.19089" lon="0.76844">
        <ele>121</ele>
        <time>2014-05-04T08:59:51Z</time>
      </trkpt>
      <trkpt lat="45.19062" lon="0.76879">
        <ele>123</ele>
        <time>2014-05-04T08:59:57Z</time>
      </trkpt>
      <trkpt lat="45.19047" lon="0.76932">
        <ele>126</ele>
        <time>2014-05-04T09:00:03Z</time>
      </trkpt>
      <trkpt lat="45.1906" lon="0.76977">
        <ele>131</ele>
        <time>2014-05-04T09:00:09Z</time>
      </trkpt>
      <trkpt lat="45.19073" lon="0.77002">
        <ele>137</ele>
        <time>2014-05-04T09:00:13Z</time>
      </trkpt>
      <trkpt lat="45.19083" lon="0.77021">
        <ele>138</ele>
        <time>2014-05-04T09:00:16Z</time>
      </trkpt>
      <trkpt lat="45.19106" lon="0.7706">
        <ele>141</ele>
        <time>2014-05-04T09:00:23Z</time>
      </trkpt>
      <trkpt lat="45.19124" lon="0.77081">
        <ele>145</ele>
        <time>2014-05-04T09:00:28Z</time>
      </trkpt>
      <trkpt lat="45.19144" lon="0.77112">
        <ele>146</ele>
        <time>2014-05-04T09:00:34Z</time>
      </trkpt>
      <trkpt lat="45.19168" lon="0.77141">
        <ele>147</ele>
        <time>2014-05-04T09:00:40Z</time>
      </trkpt>
      <trkpt lat="45.192" lon="0.77183">
        <ele>143</ele>
        <time>2014-05-04T09:00:47Z</time>
      </trkpt>
      <trkpt lat="45.19225" lon="0.77208">
        <ele>140</ele>
        <time>2014-05-04T09:00:53Z</time>
      </trkpt>
      <trkpt lat="45.1925" lon="0.7724">
        <ele>135</ele>
        <time>2014-05-04T09:00:59Z</time>
      </trkpt>
      <trkpt lat="45.19272" lon="0.77249">
        <ele>135</ele>
        <time>2014-05-04T09:01:04Z</time>
      </trkpt>
      <trkpt lat="45.19293" lon="0.77262">
        <ele>134</ele>
        <time>2014-05-04T09:01:11Z</time>
      </trkpt>
      <trkpt lat="45.1931" lon="0.77271">
        <ele>135</ele>
        <time>2014-05-04T09:01:16Z</time>
      </trkpt>
      <trkpt lat="45.19329" lon="0.77283">
        <ele>135</ele>
        <time>2014-05-04T09:01:22Z</time>
      </trkpt>
      <trkpt lat="45.19347" lon="0.7729">
        <ele>134</ele>
        <time>2014-05-04T09:01:27Z</time>
      </trkpt>
      <trkpt lat="45.1937" lon="0.77311">
        <ele>130</ele>
        <time>2014-05-04T09:01:33Z</time>
      </trkpt>
      <trkpt lat="45.19404" lon="0.77347">
        <ele>123</ele>
        <time>2014-05-04T09:01:40Z</time>
      </trkpt>
      <trkpt lat="45.19428" lon="0.77387">
        <ele>117</ele>
        <time>2014-05-04T09:01:46Z</time>
      </trkpt>
      <trkpt lat="45.19421" lon="0.77425">
        <ele>110</ele>
        <time>2014-05-04T09:01:51Z</time>
      </trkpt>
      <trkpt lat="45.19409" lon="0.77463">
        <ele>103</ele>
        <time>2014-05-04T09:01:57Z</time>
      </trkpt>
      <trkpt lat="45.194" lon="0.77488">
        <ele>99</ele>
        <time>2014-05-04T09:02:02Z</time>
      </trkpt>
      <trkpt lat="45.19394" lon="0.77509">
        <ele>97</ele>
        <time>2014-05-04T09:02:09Z</time>
      </trkpt>
      <trkpt lat="45.19353" lon="0.7748">
        <ele>99</ele>
        <time>2014-05-04T09:02:18Z</time>
      </trkpt>
      <trkpt lat="45.1933" lon="0.7745">
        <ele>102</ele>
        <time>2014-05-04T09:02:25Z</time>
      </trkpt>
      <trkpt lat="45.19309" lon="0.77421">
        <ele>103</ele>
        <time>2014-05-04T09:02:31Z</time>
      </trkpt>
      <trkpt lat="45.19297" lon="0.77405">
        <ele>105</ele>
        <time>2014-05-04T09:02:34Z</time>
      </trkpt>
      <trkpt lat="45.19279" lon="0.77379">
        <ele>108</ele>
        <time>2014-05-04T09:02:39Z</time>
      </trkpt>
      <trkpt lat="45.19256" lon="0.77349">
        <ele>110</ele>
        <time>2014-05-04T09:02:45Z</time>
      </trkpt>
      <trkpt lat="45.19235" lon="0.77321">
        <ele>112</ele>
        <time>2014-05-04T09:02:50Z</time>
      </trkpt>
      <trkpt lat="45.19222" lon="0.77304">
        <ele>115</ele>
        <time>2014-05-04T09:02:53Z</time>
      </trkpt>
      <trkpt lat="45.19208" lon="0.77287">
        <ele>117</ele>
        <time>2014-05-04T09:02:56Z</time>
      </trkpt>
      <trkpt lat="45.19185" lon="0.77254">
        <ele>122</ele>
        <time>2014-05-04T09:03:01Z</time>
      </trkpt>
      <trkpt lat="45.19171" lon="0.77235">
        <ele>125</ele>
        <time>2014-05-04T09:03:04Z</time>
      </trkpt>
      <trkpt lat="45.19145" lon="0.77201">
        <ele>128</ele>
        <time>2014-05-04T09:03:09Z</time>
      </trkpt>
      <trkpt lat="45.19113" lon="0.77155">
        <ele>128</ele>
        <time>2014-05-04T09:03:15Z</time>
      </trkpt>
      <trkpt lat="45.19087" lon="0.77105">
        <ele>130</ele>
        <time>2014-05-04T09:03:20Z</time>
      </trkpt>
      <trkpt lat="45.19066" lon="0.77056">
        <ele>130</ele>
        <time>2014-05-04T09:03:25Z</time>
      </trkpt>
      <trkpt lat="45.19041" lon="0.76994">
        <ele>127</ele>
        <time>2014-05-04T09:03:31Z</time>
      </trkpt>
      <trkpt lat="45.19024" lon="0.76949">
        <ele>121</ele>
        <time>2014-05-04T09:03:36Z</time>
      </trkpt>
      <trkpt lat="45.19009" lon="0.76905">
        <ele>117</ele>
        <time>2014-05-04T09:03:41Z</time>
      </trkpt>
      <trkpt lat="45.18997" lon="0.7685">
        <ele>109</ele>
        <time>2014-05-04T09:03:47Z</time>
      </trkpt>
      <trkpt lat="45.18986" lon="0.76805">
        <ele>104</ele>
        <time>2014-05-04T09:03:52Z</time>
      </trkpt>
      <trkpt lat="45.18975" lon="0.76759">
        <ele>101</ele>
        <time>2014-05-04T09:03:57Z</time>
      </trkpt>
      <trkpt lat="45.18963" lon="0.76705">
        <ele>100</ele>
        <time>2014-05-04T09:04:03Z</time>
      </trkpt>
      <trkpt lat="45.18956" lon="0.7668">
        <ele>100</ele>
        <time>2014-05-04T09:04:06Z</time>
      </trkpt>
      <trkpt lat="45.1895" lon="0.76656">
        <ele>99</ele>
        <time>2014-05-04T09:04:09Z</time>
      </trkpt>
      <trkpt lat="45.18945" lon="0.76632">
        <ele>99</ele>
        <time>2014-05-04T09:04:12Z</time>
      </trkpt>
      <trkpt lat="45.18934" lon="0.76592">
        <ele>99</ele>
        <time>2014-05-04T09:04:17Z</time>
      </trkpt>
      <trkpt lat="45.18925" lon="0.76556">
        <ele>99</ele>
        <time>2014-05-04T09:04:22Z</time>
      </trkpt>
      <trkpt lat="45.18916" lon="0.76524">
        <ele>98</ele>
        <time>2014-05-04T09:04:27Z</time>
      </trkpt>
      <trkpt lat="45.18912" lon="0.7649">
        <ele>98</ele>
        <time>2014-05-04T09:04:33Z</time>
      </trkpt>
      <trkpt lat="45.18917" lon="0.76461">
        <ele>98</ele>
        <time>2014-05-04T09:04:40Z</time>
      </trkpt>
      <trkpt lat="45.1892" lon="0.76425">
        <ele>99</ele>
        <time>2014-05-04T09:04:46Z</time>
      </trkpt>
      <trkpt lat="45.18903" lon="0.76399">
        <ele>98</ele>
        <time>2014-05-04T09:04:51Z</time>
      </trkpt>
      <trkpt lat="45.18875" lon="0.76398">
        <ele>97</ele>
        <time>2014-05-04T09:04:56Z</time>
      </trkpt>
      <trkpt lat="45.18848" lon="0.76401">
        <ele>96</ele>
        <time>2014-05-04T09:05:01Z</time>
      </trkpt>
      <trkpt lat="45.18822" lon="0.76419">
        <ele>96</ele>
        <time>2014-05-04T09:05:07Z</time>
      </trkpt>
      <trkpt lat="45.18816" lon="0.76443">
        <ele>96</ele>
        <time>2014-05-04T09:05:16Z</time>
      </trkpt>
      <trkpt lat="45.18802" lon="0.76434">
        <ele>95</ele>
        <time>2014-05-04T09:05:25Z</time>
      </trkpt>
      <trkpt lat="45.18799" lon="0.76401">
        <ele>95</ele>
        <time>2014-05-04T09:05:30Z</time>
      </trkpt>
      <trkpt lat="45.18796" lon="0.76373">
        <ele>94</ele>
        <time>2014-05-04T09:05:35Z</time>
      </trkpt>
      <trkpt lat="45.1879" lon="0.76346">
        <ele>94</ele>
        <time>2014-05-04T09:05:40Z</time>
      </trkpt>
      <trkpt lat="45.18785" lon="0.76322">
        <ele>94</ele>
        <time>2014-05-04T09:05:45Z</time>
      </trkpt>
      <trkpt lat="45.18779" lon="0.76304">
        <ele>93</ele>
        <time>2014-05-04T09:05:49Z</time>
      </trkpt>
      <trkpt lat="45.18772" lon="0.76289">
        <ele>93</ele>
        <time>2014-05-04T09:05:52Z</time>
      </trkpt>
      <trkpt lat="45.18762" lon="0.76261">
        <ele>92</ele>
        <time>2014-05-04T09:05:57Z</time>
      </trkpt>
      <trkpt lat="45.18747" lon="0.76227">
        <ele>92</ele>
        <time>2014-05-04T09:06:03Z</time>
      </trkpt>
      <trkpt lat="45.18732" lon="0.76195">
        <ele>92</ele>
        <time>2014-05-04T09:06:08Z</time>
      </trkpt>
      <trkpt lat="45.18715" lon="0.7616">
        <ele>91</ele>
        <time>2014-05-04T09:06:14Z</time>
      </trkpt>
      <trkpt lat="45.18699" lon="0.76122">
        <ele>92</ele>
        <time>2014-05-04T09:06:20Z</time>
      </trkpt>
      <trkpt lat="45.18684" lon="0.76089">
        <ele>92</ele>
        <time>2014-05-04T09:06:25Z</time>
      </trkpt>
      <trkpt lat="45.18666" lon="0.76053">
        <ele>92</ele>
        <time>2014-05-04T09:06:31Z</time>
      </trkpt>
      <trkpt lat="45.18642" lon="0.76043">
        <ele>91</ele>
        <time>2014-05-04T09:06:37Z</time>
      </trkpt>
      <trkpt lat="45.18617" lon="0.7603">
        <ele>89</ele>
        <time>2014-05-04T09:06:43Z</time>
      </trkpt>
      <trkpt lat="45.18602" lon="0.76006">
        <ele>88</ele>
        <time>2014-05-04T09:06:48Z</time>
      </trkpt>
      <trkpt lat="45.18582" lon="0.75973">
        <ele>87</ele>
        <time>2014-05-04T09:06:54Z</time>
      </trkpt>
      <trkpt lat="45.18564" lon="0.75933">
        <ele>86</ele>
        <time>2014-05-04T09:07:00Z</time>
      </trkpt>
      <trkpt lat="45.18552" lon="0.75909">
        <ele>86</ele>
        <time>2014-05-04T09:07:04Z</time>
      </trkpt>
      <trkpt lat="45.18535" lon="0.75867">
        <ele>87</ele>
        <time>2014-05-04T09:07:10Z</time>
      </trkpt>
      <trkpt lat="45.18522" lon="0.75817">
        <ele>88</ele>
        <time>2014-05-04T09:07:16Z</time>
      </trkpt>
      <trkpt lat="45.18503" lon="0.7577">
        <ele>88</ele>
        <time>2014-05-04T09:07:22Z</time>
      </trkpt>
      <trkpt lat="45.18481" lon="0.75738">
        <ele>87</ele>
        <time>2014-05-04T09:07:27Z</time>
      </trkpt>
      <trkpt lat="45.18458" lon="0.75707">
        <ele>86</ele>
        <time>2014-05-04T09:07:32Z</time>
      </trkpt>
      <trkpt lat="45.1843" lon="0.75667">
        <ele>84</ele>
        <time>2014-05-04T09:07:38Z</time>
      </trkpt>
      <trkpt lat="45.18416" lon="0.75648">
        <ele>85</ele>
        <time>2014-05-04T09:07:41Z</time>
      </trkpt>
      <trkpt lat="45.18391" lon="0.75611">
        <ele>86</ele>
        <time>2014-05-04T09:07:47Z</time>
      </trkpt>
      <trkpt lat="45.18362" lon="0.75574">
        <ele>86</ele>
        <time>2014-05-04T09:07:53Z</time>
      </trkpt>
      <trkpt lat="45.18339" lon="0.75543">
        <ele>86</ele>
        <time>2014-05-04T09:07:58Z</time>
      </trkpt>
      <trkpt lat="45.18315" lon="0.75507">
        <ele>86</ele>
        <time>2014-05-04T09:08:04Z</time>
      </trkpt>
      <trkpt lat="45.18295" lon="0.75469">
        <ele>86</ele>
        <time>2014-05-04T09:08:09Z</time>
      </trkpt>
      <trkpt lat="45.18274" lon="0.75424">
        <ele>86</ele>
        <time>2014-05-04T09:08:15Z</time>
      </trkpt>
      <trkpt lat="45.18257" lon="0.75379">
        <ele>87</ele>
        <time>2014-05-04T09:08:21Z</time>
      </trkpt>
      <trkpt lat="45.18249" lon="0.75349">
        <ele>88</ele>
        <time>2014-05-04T09:08:24Z</time>
      </trkpt>
      <trkpt lat="45.18248" lon="0.75309">
        <ele>88</ele>
        <time>2014-05-04T09:08:29Z</time>
      </trkpt>
      <trkpt lat="45.18245" lon="0.75258">
        <ele>88</ele>
        <time>2014-05-04T09:08:35Z</time>
      </trkpt>
      <trkpt lat="45.18254" lon="0.75203">
        <ele>87</ele>
        <time>2014-05-04T09:08:41Z</time>
      </trkpt>
      <trkpt lat="45.18258" lon="0.75162">
        <ele>87</ele>
        <time>2014-05-04T09:08:46Z</time>
      </trkpt>
      <trkpt lat="45.18267" lon="0.75121">
        <ele>88</ele>
        <time>2014-05-04T09:08:52Z</time>
      </trkpt>
      <trkpt lat="45.18291" lon="0.75072">
        <ele>88</ele>
        <time>2014-05-04T09:08:58Z</time>
      </trkpt>
      <trkpt lat="45.18312" lon="0.75025">
        <ele>88</ele>
        <time>2014-05-04T09:09:04Z</time>
      </trkpt>
      <trkpt lat="45.18333" lon="0.74984">
        <ele>87</ele>
        <time>2014-05-04T09:09:10Z</time>
      </trkpt>
      <trkpt lat="45.18359" lon="0.74951">
        <ele>89</ele>
        <time>2014-05-04T09:09:16Z</time>
      </trkpt>
      <trkpt lat="45.18382" lon="0.7492">
        <ele>89</ele>
        <time>2014-05-04T09:09:21Z</time>
      </trkpt>
      <trkpt lat="45.18402" lon="0.74899">
        <ele>89</ele>
        <time>2014-05-04T09:09:25Z</time>
      </trkpt>
      <trkpt lat="45.18426" lon="0.74869">
        <ele>88</ele>
        <time>2014-05-04T09:09:31Z</time>
      </trkpt>
      <trkpt lat="45.18455" lon="0.7485">
        <ele>88</ele>
        <time>2014-05-04T09:09:37Z</time>
      </trkpt>
      <trkpt lat="45.18486" lon="0.74834">
        <ele>88</ele>
        <time>2014-05-04T09:09:43Z</time>
      </trkpt>
      <trkpt lat="45.1851" lon="0.74819">
        <ele>88</ele>
        <time>2014-05-04T09:09:48Z</time>
      </trkpt>
      <trkpt lat="45.18535" lon="0.74804">
        <ele>89</ele>
        <time>2014-05-04T09:09:53Z</time>
      </trkpt>
      <trkpt lat="45.18565" lon="0.74779">
        <ele>90</ele>
        <time>2014-05-04T09:09:59Z</time>
      </trkpt>
      <trkpt lat="45.18584" lon="0.74765">
        <ele>90</ele>
        <time>2014-05-04T09:10:04Z</time>
      </trkpt>
      <trkpt lat="45.186" lon="0.74751">
        <ele>90</ele>
        <time>2014-05-04T09:10:12Z</time>
      </trkpt>
      <trkpt lat="45.18638" lon="0.74698">
        <ele>89</ele>
        <time>2014-05-04T09:10:23Z</time>
      </trkpt>
      <trkpt lat="45.18655" lon="0.74672">
        <ele>89</ele>
        <time>2014-05-04T09:10:28Z</time>
      </trkpt>
      <trkpt lat="45.18676" lon="0.74645">
        <ele>89</ele>
        <time>2014-05-04T09:10:32Z</time>
      </trkpt>
      <trkpt lat="45.18689" lon="0.74624">
        <ele>90</ele>
        <time>2014-05-04T09:10:35Z</time>
      </trkpt>
      <trkpt lat="45.18705" lon="0.74583">
        <ele>90</ele>
        <time>2014-05-04T09:10:41Z</time>
      </trkpt>
      <trkpt lat="45.18724" lon="0.74541">
        <ele>89</ele>
        <time>2014-05-04T09:10:47Z</time>
      </trkpt>
      <trkpt lat="45.18734" lon="0.7451">
        <ele>89</ele>
        <time>2014-05-04T09:10:52Z</time>
      </trkpt>
      <trkpt lat="45.18749" lon="0.74472">
        <ele>88</ele>
        <time>2014-05-04T09:10:58Z</time>
      </trkpt>
      <trkpt lat="45.18756" lon="0.7445">
        <ele>88</ele>
        <time>2014-05-04T09:11:01Z</time>
      </trkpt>
      <trkpt lat="45.18772" lon="0.74408">
        <ele>87</ele>
        <time>2014-05-04T09:11:07Z</time>
      </trkpt>
      <trkpt lat="45.18777" lon="0.74384">
        <ele>88</ele>
        <time>2014-05-04T09:11:10Z</time>
      </trkpt>
      <trkpt lat="45.18789" lon="0.74354">
        <ele>89</ele>
        <time>2014-05-04T09:11:16Z</time>
      </trkpt>
      <trkpt lat="45.18801" lon="0.74309">
        <ele>89</ele>
        <time>2014-05-04T09:11:23Z</time>
      </trkpt>
      <trkpt lat="45.18812" lon="0.74293">
        <ele>89</ele>
        <time>2014-05-04T09:11:26Z</time>
      </trkpt>
      <trkpt lat="45.18828" lon="0.74271">
        <ele>89</ele>
        <time>2014-05-04T09:11:32Z</time>
      </trkpt>
      <trkpt lat="45.1884" lon="0.74243">
        <ele>89</ele>
        <time>2014-05-04T09:11:39Z</time>
      </trkpt>
      <trkpt lat="45.18848" lon="0.74223">
        <ele>89</ele>
        <time>2014-05-04T09:11:45Z</time>
      </trkpt>
      <trkpt lat="45.18859" lon="0.74186">
        <ele>89</ele>
        <time>2014-05-04T09:11:53Z</time>
      </trkpt>
      <trkpt lat="45.18865" lon="0.74154">
        <ele>89</ele>
        <time>2014-05-04T09:11:59Z</time>
      </trkpt>
      <trkpt lat="45.18871" lon="0.74122">
        <ele>89</ele>
        <time>2014-05-04T09:12:04Z</time>
      </trkpt>
      <trkpt lat="45.18878" lon="0.74091">
        <ele>89</ele>
        <time>2014-05-04T09:12:09Z</time>
      </trkpt>
      <trkpt lat="45.18883" lon="0.74061">
        <ele>89</ele>
        <time>2014-05-04T09:12:14Z</time>
      </trkpt>
      <trkpt lat="45.18882" lon="0.74026">
        <ele>89</ele>
        <time>2014-05-04T09:12:20Z</time>
      </trkpt>
      <trkpt lat="45.18867" lon="0.74002">
        <ele>89</ele>
        <time>2014-05-04T09:12:24Z</time>
      </trkpt>
      <trkpt lat="45.18856" lon="0.73982">
        <ele>89</ele>
        <time>2014-05-04T09:12:27Z</time>
      </trkpt>
      <trkpt lat="45.18834" lon="0.73956">
        <ele>88</ele>
        <time>2014-05-04T09:12:32Z</time>
      </trkpt>
      <trkpt lat="45.18817" lon="0.73922">
        <ele>87</ele>
        <time>2014-05-04T09:12:37Z</time>
      </trkpt>
      <trkpt lat="45.18811" lon="0.73882">
        <ele>88</ele>
        <time>2014-05-04T09:12:42Z</time>
      </trkpt>
      <trkpt lat="45.18803" lon="0.73833">
        <ele>88</ele>
        <time>2014-05-04T09:12:48Z</time>
      </trkpt>
      <trkpt lat="45.18808" lon="0.73784">
        <ele>88</ele>
        <time>2014-05-04T09:12:54Z</time>
      </trkpt>
      <trkpt lat="45.18817" lon="0.73746">
        <ele>88</ele>
        <time>2014-05-04T09:12:59Z</time>
      </trkpt>
      <trkpt lat="45.18828" lon="0.73701">
        <ele>87</ele>
        <time>2014-05-04T09:13:05Z</time>
      </trkpt>
      <trkpt lat="45.1884" lon="0.73661">
        <ele>87</ele>
        <time>2014-05-04T09:13:11Z</time>
      </trkpt>
      <trkpt lat="45.18836" lon="0.73639">
        <ele>87</ele>
        <time>2014-05-04T09:13:18Z</time>
      </trkpt>
      <trkpt lat="45.18816" lon="0.7363">
        <ele>87</ele>
        <time>2014-05-04T09:13:26Z</time>
      </trkpt>
      <trkpt lat="45.18809" lon="0.73628">
        <ele>87</ele>
        <time>2014-05-04T09:13:29Z</time>
      </trkpt>
      <trkpt lat="45.18808" lon="0.73602">
        <ele>86</ele>
        <time>2014-05-04T09:13:37Z</time>
      </trkpt>
      <trkpt lat="45.18815" lon="0.73558">
        <ele>87</ele>
        <time>2014-05-04T09:13:43Z</time>
      </trkpt>
      <trkpt lat="45.18821" lon="0.73528">
        <ele>87</ele>
        <time>2014-05-04T09:13:47Z</time>
      </trkpt>
      <trkpt lat="45.1883" lon="0.73496">
        <ele>87</ele>
        <time>2014-05-04T09:13:52Z</time>
      </trkpt>
      <trkpt lat="45.18832" lon="0.7345">
        <ele>88</ele>
        <time>2014-05-04T09:13:58Z</time>
      </trkpt>
      <trkpt lat="45.18833" lon="0.73427">
        <ele>89</ele>
        <time>2014-05-04T09:14:01Z</time>
      </trkpt>
      <trkpt lat="45.18836" lon="0.73391">
        <ele>89</ele>
        <time>2014-05-04T09:14:07Z</time>
      </trkpt>
      <trkpt lat="45.18834" lon="0.73357">
        <ele>88</ele>
        <time>2014-05-04T09:14:12Z</time>
      </trkpt>
      <trkpt lat="45.18832" lon="0.73312">
        <ele>89</ele>
        <time>2014-05-04T09:14:18Z</time>
      </trkpt>
      <trkpt lat="45.18829" lon="0.73275">
        <ele>90</ele>
        <time>2014-05-04T09:14:23Z</time>
      </trkpt>
      <trkpt lat="45.18824" lon="0.73229">
        <ele>93</ele>
        <time>2014-05-04T09:14:29Z</time>
      </trkpt>
      <trkpt lat="45.18814" lon="0.73173">
        <ele>97</ele>
        <time>2014-05-04T09:14:36Z</time>
      </trkpt>
      <trkpt lat="45.18811" lon="0.73136">
        <ele>101</ele>
        <time>2014-05-04T09:14:41Z</time>
      </trkpt>
      <trkpt lat="45.18798" lon="0.73103">
        <ele>101</ele>
        <time>2014-05-04T09:14:47Z</time>
      </trkpt>
      <trkpt lat="45.18786" lon="0.73078">
        <ele>100</ele>
        <time>2014-05-04T09:14:52Z</time>
      </trkpt>
      <trkpt lat="45.18773" lon="0.73055">
        <ele>97</ele>
        <time>2014-05-04T09:14:57Z</time>
      </trkpt>
      <trkpt lat="45.1875" lon="0.7302">
        <ele>93</ele>
        <time>2014-05-04T09:15:04Z</time>
      </trkpt>
      <trkpt lat="45.18726" lon="0.72988">
        <ele>94</ele>
        <time>2014-05-04T09:15:10Z</time>
      </trkpt>
      <trkpt lat="45.18706" lon="0.72954">
        <ele>96</ele>
        <time>2014-05-04T09:15:16Z</time>
      </trkpt>
      <trkpt lat="45.18691" lon="0.72926">
        <ele>97</ele>
        <time>2014-05-04T09:15:21Z</time>
      </trkpt>
      <trkpt lat="45.18677" lon="0.72904">
        <ele>96</ele>
        <time>2014-05-04T09:15:26Z</time>
      </trkpt>
      <trkpt lat="45.1866" lon="0.7287">
        <ele>97</ele>
        <time>2014-05-04T09:15:32Z</time>
      </trkpt>
      <trkpt lat="45.18638" lon="0.72834">
        <ele>97</ele>
        <time>2014-05-04T09:15:38Z</time>
      </trkpt>
      <trkpt lat="45.18624" lon="0.72816">
        <ele>98</ele>
        <time>2014-05-04T09:15:42Z</time>
      </trkpt>
      <trkpt lat="45.18604" lon="0.72792">
        <ele>98</ele>
        <time>2014-05-04T09:15:47Z</time>
      </trkpt>
      <trkpt lat="45.18581" lon="0.72757">
        <ele>97</ele>
        <time>2014-05-04T09:15:53Z</time>
      </trkpt>
      <trkpt lat="45.18568" lon="0.72742">
        <ele>97</ele>
        <time>2014-05-04T09:15:56Z</time>
      </trkpt>
      <trkpt lat="45.18557" lon="0.72727">
        <ele>97</ele>
        <time>2014-05-04T09:15:59Z</time>
      </trkpt>
      <trkpt lat="45.18534" lon="0.72699">
        <ele>96</ele>
        <time>2014-05-04T09:16:06Z</time>
      </trkpt>
      <trkpt lat="45.18522" lon="0.72686">
        <ele>95</ele>
        <time>2014-05-04T09:16:13Z</time>
      </trkpt>
      <trkpt lat="45.18511" lon="0.72671">
        <ele>94</ele>
        <time>2014-05-04T09:16:18Z</time>
      </trkpt>
      <trkpt lat="45.18504" lon="0.72661">
        <ele>94</ele>
        <time>2014-05-04T09:16:21Z</time>
      </trkpt>
      <trkpt lat="45.18481" lon="0.72643">
        <ele>94</ele>
        <time>2014-05-04T09:16:28Z</time>
      </trkpt>
      <trkpt lat="45.1846" lon="0.72623">
        <ele>94</ele>
        <time>2014-05-04T09:16:34Z</time>
      </trkpt>
      <trkpt lat="45.18438" lon="0.72604">
        <ele>94</ele>
        <time>2014-05-04T09:16:40Z</time>
      </trkpt>
      <trkpt lat="45.18412" lon="0.7258">
        <ele>93</ele>
        <time>2014-05-04T09:16:47Z</time>
      </trkpt>
      <trkpt lat="45.18395" lon="0.72564">
        <ele>94</ele>
        <time>2014-05-04T09:16:52Z</time>
      </trkpt>
      <trkpt lat="45.18378" lon="0.72551">
        <ele>94</ele>
        <time>2014-05-04T09:16:57Z</time>
      </trkpt>
      <trkpt lat="45.18361" lon="0.72547">
        <ele>93</ele>
        <time>2014-05-04T09:17:02Z</time>
      </trkpt>
      <trkpt lat="45.18342" lon="0.72536">
        <ele>92</ele>
        <time>2014-05-04T09:17:10Z</time>
      </trkpt>
      <trkpt lat="45.18324" lon="0.72551">
        <ele>91</ele>
        <time>2014-05-04T09:17:21Z</time>
      </trkpt>
      <trkpt lat="45.18307" lon="0.72552">
        <ele>90</ele>
        <time>2014-05-04T09:17:26Z</time>
      </trkpt>
      <trkpt lat="45.18278" lon="0.72537">
        <ele>90</ele>
        <time>2014-05-04T09:17:31Z</time>
      </trkpt>
      <trkpt lat="45.18258" lon="0.72535">
        <ele>89</ele>
        <time>2014-05-04T09:17:34Z</time>
      </trkpt>
      <trkpt lat="45.18233" lon="0.7253">
        <ele>89</ele>
        <time>2014-05-04T09:17:39Z</time>
      </trkpt>
      <trkpt lat="45.18216" lon="0.72525">
        <ele>89</ele>
        <time>2014-05-04T09:17:42Z</time>
      </trkpt>
      <trkpt lat="45.18194" lon="0.72515">
        <ele>89</ele>
        <time>2014-05-04T09:17:47Z</time>
      </trkpt>
      <trkpt lat="45.18167" lon="0.72498">
        <ele>89</ele>
        <time>2014-05-04T09:17:53Z</time>
      </trkpt>
      <trkpt lat="45.1814" lon="0.72474">
        <ele>89</ele>
        <time>2014-05-04T09:17:59Z</time>
      </trkpt>
      <trkpt lat="45.18118" lon="0.72457">
        <ele>89</ele>
        <time>2014-05-04T09:18:04Z</time>
      </trkpt>
      <trkpt lat="45.18094" lon="0.72434">
        <ele>89</ele>
        <time>2014-05-04T09:18:10Z</time>
      </trkpt>
      <trkpt lat="45.18083" lon="0.72423">
        <ele>89</ele>
        <time>2014-05-04T09:18:13Z</time>
      </trkpt>
      <trkpt lat="45.18068" lon="0.72414">
        <ele>89</ele>
        <time>2014-05-04T09:18:18Z</time>
      </trkpt>
      <trkpt lat="45.18067" lon="0.72406">
        <ele>89</ele>
        <time>2014-05-04T09:18:22Z</time>
      </trkpt>
      <trkpt lat="45.18067" lon="0.72406">
        <ele>89</ele>
        <time>2014-05-04T09:18:28Z</time>
      </trkpt>
      <trkpt lat="45.18067" lon="0.72406">
        <ele>89</ele>
        <time>2014-05-04T09:18:51Z</time>
      </trkpt>
      <trkpt lat="45.1806" lon="0.72391">
        <ele>89</ele>
        <time>2014-05-04T09:18:51Z</time>
      </trkpt>
      <trkpt lat="45.18048" lon="0.72381">
        <ele>88</ele>
        <time>2014-05-04T09:18:54Z</time>
      </trkpt>
      <trkpt lat="45.18029" lon="0.72367">
        <ele>88</ele>
        <time>2014-05-04T09:19:00Z</time>
      </trkpt>
      <trkpt lat="45.18017" lon="0.72347">
        <ele>87</ele>
        <time>2014-05-04T09:19:08Z</time>
      </trkpt>
      <trkpt lat="45.17994" lon="0.72332">
        <ele>86</ele>
        <time>2014-05-04T09:19:17Z</time>
      </trkpt>
      <trkpt lat="45.17977" lon="0.72324">
        <ele>87</ele>
        <time>2014-05-04T09:19:24Z</time>
      </trkpt>
      <trkpt lat="45.17969" lon="0.7232">
        <ele>87</ele>
        <time>2014-05-04T09:19:27Z</time>
      </trkpt>
      <trkpt lat="45.1796" lon="0.72316">
        <ele>88</ele>
        <time>2014-05-04T09:19:30Z</time>
      </trkpt>
      <trkpt lat="45.1795" lon="0.72311">
        <ele>88</ele>
        <time>2014-05-04T09:19:33Z</time>
      </trkpt>
      <trkpt lat="45.17929" lon="0.72302">
        <ele>88</ele>
        <time>2014-05-04T09:19:40Z</time>
      </trkpt>
      <trkpt lat="45.17921" lon="0.72299">
        <ele>88</ele>
        <time>2014-05-04T09:19:44Z</time>
      </trkpt>
      <trkpt lat="45.17906" lon="0.72291">
        <ele>89</ele>
        <time>2014-05-04T09:19:50Z</time>
      </trkpt>
      <trkpt lat="45.17893" lon="0.72283">
        <ele>89</ele>
        <time>2014-05-04T09:19:56Z</time>
      </trkpt>
      <trkpt lat="45.17882" lon="0.72276">
        <ele>89</ele>
        <time>2014-05-04T09:20:04Z</time>
      </trkpt>
      <trkpt lat="45.17854" lon="0.72282">
        <ele>89</ele>
        <time>2014-05-04T09:20:21Z</time>
      </trkpt>
      <trkpt lat="45.17858" lon="0.72311">
        <ele>89</ele>
        <time>2014-05-04T09:20:31Z</time>
      </trkpt>
      <trkpt lat="45.17858" lon="0.72311">
        <ele>89</ele>
        <time>2014-05-04T09:20:39Z</time>
      </trkpt>
      <trkpt lat="45.17858" lon="0.72311">
        <ele>89</ele>
        <time>2014-05-04T09:20:40Z</time>
      </trkpt>
      <trkpt lat="45.17858" lon="0.72311">
        <ele>89</ele>
        <time>2014-05-04T09:20:41Z</time>
      </trkpt>
      <trkpt lat="45.1786" lon="0.72288">
        <ele>89</ele>
        <time>2014-05-04T09:20:41Z</time>
      </trkpt>
      <trkpt lat="45.1786" lon="0.72276">
        <ele>89</ele>
        <time>2014-05-04T09:20:44Z</time>
      </trkpt>
      <trkpt lat="45.17862" lon="0.72246">
        <ele>89</ele>
        <time>2014-05-04T09:20:54Z</time>
      </trkpt>
      <trkpt lat="45.17862" lon="0.72218">
        <ele>89</ele>
        <time>2014-05-04T09:21:05Z</time>
      </trkpt>
      <trkpt lat="45.17845" lon="0.72193">
        <ele>89</ele>
        <time>2014-05-04T09:21:15Z</time>
      </trkpt>
      <trkpt lat="45.17824" lon="0.72181">
        <ele>89</ele>
        <time>2014-05-04T09:21:20Z</time>
      </trkpt>
      <trkpt lat="45.17809" lon="0.72177">
        <ele>88</ele>
        <time>2014-05-04T09:21:23Z</time>
      </trkpt>
      <trkpt lat="45.17796" lon="0.72174">
        <ele>88</ele>
        <time>2014-05-04T09:21:26Z</time>
      </trkpt>
      <trkpt lat="45.1778" lon="0.72171">
        <ele>87</ele>
        <time>2014-05-04T09:21:31Z</time>
      </trkpt>
      <trkpt lat="45.17764" lon="0.72163">
        <ele>87</ele>
        <time>2014-05-04T09:21:41Z</time>
      </trkpt>
      <trkpt lat="45.17735" lon="0.72138">
        <ele>87</ele>
        <time>2014-05-04T09:21:57Z</time>
      </trkpt>
      <trkpt lat="45.17713" lon="0.72123">
        <ele>87</ele>
        <time>2014-05-04T09:22:04Z</time>
      </trkpt>
      <trkpt lat="45.17687" lon="0.72095">
        <ele>87</ele>
        <time>2014-05-04T09:22:11Z</time>
      </trkpt>
      <trkpt lat="45.17683" lon="0.72066">
        <ele>88</ele>
        <time>2014-05-04T09:22:17Z</time>
      </trkpt>
      <trkpt lat="45.17672" lon="0.72053">
        <ele>88</ele>
        <time>2014-05-04T09:22:23Z</time>
      </trkpt>
      <trkpt lat="45.17654" lon="0.72049">
        <ele>88</ele>
        <time>2014-05-04T09:22:29Z</time>
      </trkpt>
      <trkpt lat="45.1764" lon="0.7208">
        <ele>87</ele>
        <time>2014-05-04T09:22:37Z</time>
      </trkpt>
      <trkpt lat="45.17627" lon="0.72091">
        <ele>87</ele>
        <time>2014-05-04T09:22:42Z</time>
      </trkpt>
      <trkpt lat="45.17607" lon="0.7207">
        <ele>86</ele>
        <time>2014-05-04T09:22:47Z</time>
      </trkpt>
      <trkpt lat="45.17584" lon="0.7205">
        <ele>86</ele>
        <time>2014-05-04T09:22:53Z</time>
      </trkpt>
      <trkpt lat="45.17556" lon="0.72019">
        <ele>87</ele>
        <time>2014-05-04T09:23:00Z</time>
      </trkpt>
      <trkpt lat="45.17542" lon="0.71991">
        <ele>87</ele>
        <time>2014-05-04T09:23:05Z</time>
      </trkpt>
      <trkpt lat="45.17528" lon="0.71954">
        <ele>87</ele>
        <time>2014-05-04T09:23:11Z</time>
      </trkpt>
      <trkpt lat="45.1752" lon="0.71913">
        <ele>87</ele>
        <time>2014-05-04T09:23:17Z</time>
      </trkpt>
      <trkpt lat="45.17516" lon="0.71869">
        <ele>88</ele>
        <time>2014-05-04T09:23:23Z</time>
      </trkpt>
      <trkpt lat="45.17513" lon="0.71829">
        <ele>88</ele>
        <time>2014-05-04T09:23:29Z</time>
      </trkpt>
      <trkpt lat="45.1751" lon="0.71787">
        <ele>87</ele>
        <time>2014-05-04T09:23:35Z</time>
      </trkpt>
      <trkpt lat="45.17504" lon="0.7174">
        <ele>87</ele>
        <time>2014-05-04T09:23:42Z</time>
      </trkpt>
      <trkpt lat="45.175" lon="0.71705">
        <ele>88</ele>
        <time>2014-05-04T09:23:48Z</time>
      </trkpt>
      <trkpt lat="45.17498" lon="0.71679">
        <ele>88</ele>
        <time>2014-05-04T09:23:54Z</time>
      </trkpt>
      <trkpt lat="45.17494" lon="0.71623">
        <ele>88</ele>
        <time>2014-05-04T09:24:03Z</time>
      </trkpt>
      <trkpt lat="45.17493" lon="0.71591">
        <ele>88</ele>
        <time>2014-05-04T09:24:08Z</time>
      </trkpt>
      <trkpt lat="45.17496" lon="0.71555">
        <ele>88</ele>
        <time>2014-05-04T09:24:14Z</time>
      </trkpt>
      <trkpt lat="45.175" lon="0.71533">
        <ele>87</ele>
        <time>2014-05-04T09:24:17Z</time>
      </trkpt>
      <trkpt lat="45.17503" lon="0.71513">
        <ele>87</ele>
        <time>2014-05-04T09:24:20Z</time>
      </trkpt>
      <trkpt lat="45.17509" lon="0.71493">
        <ele>87</ele>
        <time>2014-05-04T09:24:23Z</time>
      </trkpt>
      <trkpt lat="45.17516" lon="0.7147">
        <ele>88</ele>
        <time>2014-05-04T09:24:27Z</time>
      </trkpt>
      <trkpt lat="45.17522" lon="0.71438">
        <ele>89</ele>
        <time>2014-05-04T09:24:32Z</time>
      </trkpt>
      <trkpt lat="45.17532" lon="0.71396">
        <ele>89</ele>
        <time>2014-05-04T09:24:39Z</time>
      </trkpt>
      <trkpt lat="45.17541" lon="0.7136">
        <ele>89</ele>
        <time>2014-05-04T09:24:45Z</time>
      </trkpt>
      <trkpt lat="45.17554" lon="0.71319">
        <ele>89</ele>
        <time>2014-05-04T09:24:51Z</time>
      </trkpt>
      <trkpt lat="45.17568" lon="0.71272">
        <ele>88</ele>
        <time>2014-05-04T09:24:58Z</time>
      </trkpt>
      <trkpt lat="45.17579" lon="0.71226">
        <ele>88</ele>
        <time>2014-05-04T09:25:05Z</time>
      </trkpt>
      <trkpt lat="45.17588" lon="0.712">
        <ele>89</ele>
        <time>2014-05-04T09:25:10Z</time>
      </trkpt>
      <trkpt lat="45.17595" lon="0.71168">
        <ele>90</ele>
        <time>2014-05-04T09:25:15Z</time>
      </trkpt>
      <trkpt lat="45.17602" lon="0.71135">
        <ele>90</ele>
        <time>2014-05-04T09:25:20Z</time>
      </trkpt>
      <trkpt lat="45.17608" lon="0.71116">
        <ele>90</ele>
        <time>2014-05-04T09:25:23Z</time>
      </trkpt>
      <trkpt lat="45.17619" lon="0.71078">
        <ele>90</ele>
        <time>2014-05-04T09:25:29Z</time>
      </trkpt>
      <trkpt lat="45.17635" lon="0.71039">
        <ele>88</ele>
        <time>2014-05-04T09:25:36Z</time>
      </trkpt>
      <trkpt lat="45.17652" lon="0.70999">
        <ele>86</ele>
        <time>2014-05-04T09:25:43Z</time>
      </trkpt>
      <trkpt lat="45.17666" lon="0.70971">
        <ele>86</ele>
        <time>2014-05-04T09:25:48Z</time>
      </trkpt>
      <trkpt lat="45.17682" lon="0.70943">
        <ele>86</ele>
        <time>2014-05-04T09:25:53Z</time>
      </trkpt>
      <trkpt lat="45.17693" lon="0.70929">
        <ele>86</ele>
        <time>2014-05-04T09:25:56Z</time>
      </trkpt>
      <trkpt lat="45.17718" lon="0.70896">
        <ele>86</ele>
        <time>2014-05-04T09:26:03Z</time>
      </trkpt>
      <trkpt lat="45.17739" lon="0.7087">
        <ele>87</ele>
        <time>2014-05-04T09:26:09Z</time>
      </trkpt>
      <trkpt lat="45.17762" lon="0.70849">
        <ele>87</ele>
        <time>2014-05-04T09:26:15Z</time>
      </trkpt>
      <trkpt lat="45.17787" lon="0.70828">
        <ele>86</ele>
        <time>2014-05-04T09:26:21Z</time>
      </trkpt>
      <trkpt lat="45.17809" lon="0.70811">
        <ele>86</ele>
        <time>2014-05-04T09:26:26Z</time>
      </trkpt>
      <trkpt lat="45.17836" lon="0.7079">
        <ele>86</ele>
        <time>2014-05-04T09:26:32Z</time>
      </trkpt>
      <trkpt lat="45.1786" lon="0.70768">
        <ele>86</ele>
        <time>2014-05-04T09:26:38Z</time>
      </trkpt>
      <trkpt lat="45.1788" lon="0.70749">
        <ele>85</ele>
        <time>2014-05-04T09:26:45Z</time>
      </trkpt>
      <trkpt lat="45.179" lon="0.70735">
        <ele>85</ele>
        <time>2014-05-04T09:26:51Z</time>
      </trkpt>
      <trkpt lat="45.17908" lon="0.70728">
        <ele>85</ele>
        <time>2014-05-04T09:26:57Z</time>
      </trkpt>
      <trkpt lat="45.17929" lon="0.70713">
        <ele>85</ele>
        <time>2014-05-04T09:27:06Z</time>
      </trkpt>
      <trkpt lat="45.17945" lon="0.70699">
        <ele>85</ele>
        <time>2014-05-04T09:27:10Z</time>
      </trkpt>
      <trkpt lat="45.17971" lon="0.70679">
        <ele>85</ele>
        <time>2014-05-04T09:27:16Z</time>
      </trkpt>
      <trkpt lat="45.17998" lon="0.70656">
        <ele>85</ele>
        <time>2014-05-04T09:27:23Z</time>
      </trkpt>
      <trkpt lat="45.18016" lon="0.70642">
        <ele>86</ele>
        <time>2014-05-04T09:27:28Z</time>
      </trkpt>
      <trkpt lat="45.18036" lon="0.70623">
        <ele>86</ele>
        <time>2014-05-04T09:27:35Z</time>
      </trkpt>
      <trkpt lat="45.18056" lon="0.70608">
        <ele>85</ele>
        <time>2014-05-04T09:27:43Z</time>
      </trkpt>
      <trkpt lat="45.18083" lon="0.70585">
        <ele>84</ele>
        <time>2014-05-04T09:27:49Z</time>
      </trkpt>
      <trkpt lat="45.18104" lon="0.70568">
        <ele>85</ele>
        <time>2014-05-04T09:27:54Z</time>
      </trkpt>
      <trkpt lat="45.18125" lon="0.7055">
        <ele>85</ele>
        <time>2014-05-04T09:27:59Z</time>
      </trkpt>
      <trkpt lat="45.18149" lon="0.70528">
        <ele>86</ele>
        <time>2014-05-04T09:28:05Z</time>
      </trkpt>
      <trkpt lat="45.18165" lon="0.70516">
        <ele>86</ele>
        <time>2014-05-04T09:28:09Z</time>
      </trkpt>
      <trkpt lat="45.18185" lon="0.70499">
        <ele>86</ele>
        <time>2014-05-04T09:28:14Z</time>
      </trkpt>
      <trkpt lat="45.18205" lon="0.70482">
        <ele>86</ele>
        <time>2014-05-04T09:28:19Z</time>
      </trkpt>
      <trkpt lat="45.1823" lon="0.70462">
        <ele>87</ele>
        <time>2014-05-04T09:28:25Z</time>
      </trkpt>
      <trkpt lat="45.18249" lon="0.70445">
        <ele>86</ele>
        <time>2014-05-04T09:28:30Z</time>
      </trkpt>
      <trkpt lat="45.18271" lon="0.70427">
        <ele>86</ele>
        <time>2014-05-04T09:28:36Z</time>
      </trkpt>
      <trkpt lat="45.18297" lon="0.70404">
        <ele>86</ele>
        <time>2014-05-04T09:28:43Z</time>
      </trkpt>
      <trkpt lat="45.18314" lon="0.70389">
        <ele>86</ele>
        <time>2014-05-04T09:28:48Z</time>
      </trkpt>
      <trkpt lat="45.18329" lon="0.70372">
        <ele>86</ele>
        <time>2014-05-04T09:28:55Z</time>
      </trkpt>
      <trkpt lat="45.1835" lon="0.70356">
        <ele>86</ele>
        <time>2014-05-04T09:29:03Z</time>
      </trkpt>
      <trkpt lat="45.18361" lon="0.7038">
        <ele>86</ele>
        <time>2014-05-04T09:29:11Z</time>
      </trkpt>
      <trkpt lat="45.18392" lon="0.70365">
        <ele>86</ele>
        <time>2014-05-04T09:29:20Z</time>
      </trkpt>
      <trkpt lat="45.18408" lon="0.70347">
        <ele>86</ele>
        <time>2014-05-04T09:29:25Z</time>
      </trkpt>
      <trkpt lat="45.18428" lon="0.70325">
        <ele>86</ele>
        <time>2014-05-04T09:29:32Z</time>
      </trkpt>
      <trkpt lat="45.18444" lon="0.70307">
        <ele>86</ele>
        <time>2014-05-04T09:29:37Z</time>
      </trkpt>
      <trkpt lat="45.18456" lon="0.70288">
        <ele>86</ele>
        <time>2014-05-04T09:29:41Z</time>
      </trkpt>
      <trkpt lat="45.18476" lon="0.70256">
        <ele>86</ele>
        <time>2014-05-04T09:29:48Z</time>
      </trkpt>
      <trkpt lat="45.18488" lon="0.70234">
        <ele>86</ele>
        <time>2014-05-04T09:29:53Z</time>
      </trkpt>
      <trkpt lat="45.18496" lon="0.7022">
        <ele>86</ele>
        <time>2014-05-04T09:29:56Z</time>
      </trkpt>
      <trkpt lat="45.18508" lon="0.70199">
        <ele>86</ele>
        <time>2014-05-04T09:30:00Z</time>
      </trkpt>
      <trkpt lat="45.18519" lon="0.70171">
        <ele>86</ele>
        <time>2014-05-04T09:30:05Z</time>
      </trkpt>
      <trkpt lat="45.18528" lon="0.70141">
        <ele>85</ele>
        <time>2014-05-04T09:30:10Z</time>
      </trkpt>
      <trkpt lat="45.18537" lon="0.70122">
        <ele>84</ele>
        <time>2014-05-04T09:30:13Z</time>
      </trkpt>
      <trkpt lat="45.18551" lon="0.70102">
        <ele>83</ele>
        <time>2014-05-04T09:30:17Z</time>
      </trkpt>
      <trkpt lat="45.18576" lon="0.70071">
        <ele>82</ele>
        <time>2014-05-04T09:30:23Z</time>
      </trkpt>
      <trkpt lat="45.18593" lon="0.70057">
        <ele>82</ele>
        <time>2014-05-04T09:30:27Z</time>
      </trkpt>
      <trkpt lat="45.18619" lon="0.70036">
        <ele>82</ele>
        <time>2014-05-04T09:30:33Z</time>
      </trkpt>
      <trkpt lat="45.18643" lon="0.70023">
        <ele>82</ele>
        <time>2014-05-04T09:30:38Z</time>
      </trkpt>
      <trkpt lat="45.18676" lon="0.70013">
        <ele>82</ele>
        <time>2014-05-04T09:30:44Z</time>
      </trkpt>
      <trkpt lat="45.1869" lon="0.70009">
        <ele>82</ele>
        <time>2014-05-04T09:30:47Z</time>
      </trkpt>
      <trkpt lat="45.18711" lon="0.70004">
        <ele>82</ele>
        <time>2014-05-04T09:30:52Z</time>
      </trkpt>
      <trkpt lat="45.18739" lon="0.7">
        <ele>82</ele>
        <time>2014-05-04T09:30:57Z</time>
      </trkpt>
      <trkpt lat="45.18765" lon="0.69992">
        <ele>82</ele>
        <time>2014-05-04T09:31:02Z</time>
      </trkpt>
      <trkpt lat="45.18795" lon="0.69985">
        <ele>82</ele>
        <time>2014-05-04T09:31:07Z</time>
      </trkpt>
      <trkpt lat="45.1881" lon="0.69983">
        <ele>81</ele>
        <time>2014-05-04T09:31:10Z</time>
      </trkpt>
      <trkpt lat="45.18826" lon="0.69981">
        <ele>81</ele>
        <time>2014-05-04T09:31:13Z</time>
      </trkpt>
      <trkpt lat="45.18842" lon="0.69976">
        <ele>81</ele>
        <time>2014-05-04T09:31:16Z</time>
      </trkpt>
      <trkpt lat="45.18864" lon="0.69968">
        <ele>81</ele>
        <time>2014-05-04T09:31:21Z</time>
      </trkpt>
      <trkpt lat="45.18892" lon="0.69962">
        <ele>81</ele>
        <time>2014-05-04T09:31:26Z</time>
      </trkpt>
      <trkpt lat="45.18915" lon="0.6995">
        <ele>81</ele>
        <time>2014-05-04T09:31:31Z</time>
      </trkpt>
      <trkpt lat="45.18939" lon="0.69941">
        <ele>82</ele>
        <time>2014-05-04T09:31:36Z</time>
      </trkpt>
      <trkpt lat="45.18956" lon="0.69935">
        <ele>83</ele>
        <time>2014-05-04T09:31:39Z</time>
      </trkpt>
      <trkpt lat="45.18986" lon="0.69925">
        <ele>84</ele>
        <time>2014-05-04T09:31:45Z</time>
      </trkpt>
      <trkpt lat="45.19006" lon="0.69919">
        <ele>85</ele>
        <time>2014-05-04T09:31:50Z</time>
      </trkpt>
      <trkpt lat="45.19039" lon="0.69901">
        <ele>85</ele>
        <time>2014-05-04T09:31:57Z</time>
      </trkpt>
      <trkpt lat="45.19071" lon="0.6989">
        <ele>86</ele>
        <time>2014-05-04T09:32:03Z</time>
      </trkpt>
      <trkpt lat="45.19096" lon="0.69881">
        <ele>86</ele>
        <time>2014-05-04T09:32:08Z</time>
      </trkpt>
      <trkpt lat="45.19128" lon="0.69867">
        <ele>84</ele>
        <time>2014-05-04T09:32:14Z</time>
      </trkpt>
      <trkpt lat="45.19158" lon="0.69855">
        <ele>83</ele>
        <time>2014-05-04T09:32:20Z</time>
      </trkpt>
      <trkpt lat="45.19182" lon="0.69848">
        <ele>83</ele>
        <time>2014-05-04T09:32:25Z</time>
      </trkpt>
      <trkpt lat="45.192" lon="0.69841">
        <ele>83</ele>
        <time>2014-05-04T09:32:29Z</time>
      </trkpt>
      <trkpt lat="45.19215" lon="0.69837">
        <ele>83</ele>
        <time>2014-05-04T09:32:34Z</time>
      </trkpt>
      <trkpt lat="45.19243" lon="0.69822">
        <ele>83</ele>
        <time>2014-05-04T09:32:43Z</time>
      </trkpt>
      <trkpt lat="45.1926" lon="0.69828">
        <ele>83</ele>
        <time>2014-05-04T09:32:50Z</time>
      </trkpt>
      <trkpt lat="45.19285" lon="0.69874">
        <ele>81</ele>
        <time>2014-05-04T09:33:05Z</time>
      </trkpt>
      <trkpt lat="45.19301" lon="0.69904">
        <ele>81</ele>
        <time>2014-05-04T09:33:10Z</time>
      </trkpt>
      <trkpt lat="45.19313" lon="0.69943">
        <ele>81</ele>
        <time>2014-05-04T09:33:16Z</time>
      </trkpt>
      <trkpt lat="45.19323" lon="0.69976">
        <ele>82</ele>
        <time>2014-05-04T09:33:21Z</time>
      </trkpt>
      <trkpt lat="45.19341" lon="0.70022">
        <ele>83</ele>
        <time>2014-05-04T09:33:28Z</time>
      </trkpt>
      <trkpt lat="45.19351" lon="0.70054">
        <ele>84</ele>
        <time>2014-05-04T09:33:33Z</time>
      </trkpt>
      <trkpt lat="45.19362" lon="0.70093">
        <ele>85</ele>
        <time>2014-05-04T09:33:39Z</time>
      </trkpt>
      <trkpt lat="45.19371" lon="0.7013">
        <ele>86</ele>
        <time>2014-05-04T09:33:45Z</time>
      </trkpt>
      <trkpt lat="45.19378" lon="0.70162">
        <ele>86</ele>
        <time>2014-05-04T09:33:52Z</time>
      </trkpt>
      <trkpt lat="45.19401" lon="0.70166">
        <ele>87</ele>
        <time>2014-05-04T09:34:00Z</time>
      </trkpt>
      <trkpt lat="45.19418" lon="0.70151">
        <ele>87</ele>
        <time>2014-05-04T09:34:05Z</time>
      </trkpt>
      <trkpt lat="45.19438" lon="0.70137">
        <ele>86</ele>
        <time>2014-05-04T09:34:11Z</time>
      </trkpt>
      <trkpt lat="45.19457" lon="0.70123">
        <ele>86</ele>
        <time>2014-05-04T09:34:18Z</time>
      </trkpt>
      <trkpt lat="45.19462" lon="0.70118">
        <ele>86</ele>
        <time>2014-05-04T09:34:21Z</time>
      </trkpt>
      <trkpt lat="45.19471" lon="0.70107">
        <ele>86</ele>
        <time>2014-05-04T09:34:29Z</time>
      </trkpt>
      <trkpt lat="45.19471" lon="0.70107">
        <ele>86</ele>
        <time>2014-05-04T09:34:37Z</time>
      </trkpt>
      <trkpt lat="45.19471" lon="0.70107">
        <ele>86</ele>
        <time>2014-05-04T09:34:38Z</time>
      </trkpt>
      <trkpt lat="45.19471" lon="0.70107">
        <ele>86</ele>
        <time>2014-05-04T09:34:51Z</time>
      </trkpt>
      <trkpt lat="45.19479" lon="0.70087">
        <ele>86</ele>
        <time>2014-05-04T09:34:51Z</time>
      </trkpt>
      <trkpt lat="45.19486" lon="0.70072">
        <ele>86</ele>
        <time>2014-05-04T09:34:54Z</time>
      </trkpt>
      <trkpt lat="45.19506" lon="0.70073">
        <ele>86</ele>
        <time>2014-05-04T09:35:00Z</time>
      </trkpt>
      <trkpt lat="45.19538" lon="0.70075">
        <ele>86</ele>
        <time>2014-05-04T09:35:07Z</time>
      </trkpt>
      <trkpt lat="45.19558" lon="0.70057">
        <ele>85</ele>
        <time>2014-05-04T09:35:12Z</time>
      </trkpt>
      <trkpt lat="45.19572" lon="0.70049">
        <ele>85</ele>
        <time>2014-05-04T09:35:15Z</time>
      </trkpt>
      <trkpt lat="45.19585" lon="0.70042">
        <ele>85</ele>
        <time>2014-05-04T09:35:18Z</time>
      </trkpt>
      <trkpt lat="45.19599" lon="0.70034">
        <ele>85</ele>
        <time>2014-05-04T09:35:21Z</time>
      </trkpt>
      <trkpt lat="45.1963" lon="0.70021">
        <ele>84</ele>
        <time>2014-05-04T09:35:27Z</time>
      </trkpt>
      <trkpt lat="45.19643" lon="0.70011">
        <ele>84</ele>
        <time>2014-05-04T09:35:30Z</time>
      </trkpt>
      <trkpt lat="45.19657" lon="0.69999">
        <ele>83</ele>
        <time>2014-05-04T09:35:33Z</time>
      </trkpt>
      <trkpt lat="45.19676" lon="0.69978">
        <ele>83</ele>
        <time>2014-05-04T09:35:39Z</time>
      </trkpt>
      <trkpt lat="45.19695" lon="0.69953">
        <ele>84</ele>
        <time>2014-05-04T09:35:46Z</time>
      </trkpt>
      <trkpt lat="45.19714" lon="0.69959">
        <ele>84</ele>
        <time>2014-05-04T09:35:51Z</time>
      </trkpt>
      <trkpt lat="45.19726" lon="0.69987">
        <ele>84</ele>
        <time>2014-05-04T09:35:56Z</time>
      </trkpt>
      <trkpt lat="45.19737" lon="0.7001">
        <ele>84</ele>
        <time>2014-05-04T09:36:02Z</time>
      </trkpt>
      <trkpt lat="45.1974" lon="0.70018">
        <ele>84</ele>
        <time>2014-05-04T09:36:06Z</time>
      </trkpt>
      <trkpt lat="45.1974" lon="0.70018">
        <ele>84</ele>
        <time>2014-05-04T09:36:12Z</time>
      </trkpt>
      <trkpt lat="45.1974" lon="0.70018">
        <ele>84</ele>
        <time>2014-05-04T09:36:15Z</time>
      </trkpt>
      <trkpt lat="45.19752" lon="0.7001">
        <ele>84</ele>
        <time>2014-05-04T09:36:15Z</time>
      </trkpt>
      <trkpt lat="45.19773" lon="0.69982">
        <ele>84</ele>
        <time>2014-05-04T09:36:21Z</time>
      </trkpt>
      <trkpt lat="45.19796" lon="0.69953">
        <ele>84</ele>
        <time>2014-05-04T09:36:27Z</time>
      </trkpt>
      <trkpt lat="45.19817" lon="0.69933">
        <ele>84</ele>
        <time>2014-05-04T09:36:32Z</time>
      </trkpt>
      <trkpt lat="45.19844" lon="0.69908">
        <ele>84</ele>
        <time>2014-05-04T09:36:38Z</time>
      </trkpt>
      <trkpt lat="45.19872" lon="0.69886">
        <ele>85</ele>
        <time>2014-05-04T09:36:44Z</time>
      </trkpt>
      <trkpt lat="45.19896" lon="0.69861">
        <ele>85</ele>
        <time>2014-05-04T09:36:50Z</time>
      </trkpt>
      <trkpt lat="45.19919" lon="0.6984">
        <ele>85</ele>
        <time>2014-05-04T09:36:56Z</time>
      </trkpt>
      <trkpt lat="45.19941" lon="0.69825">
        <ele>85</ele>
        <time>2014-05-04T09:37:02Z</time>
      </trkpt>
      <trkpt lat="45.19963" lon="0.69814">
        <ele>86</ele>
        <time>2014-05-04T09:37:10Z</time>
      </trkpt>
      <trkpt lat="45.19977" lon="0.69828">
        <ele>86</ele>
        <time>2014-05-04T09:37:18Z</time>
      </trkpt>
      <trkpt lat="45.19977" lon="0.69828">
        <ele>86</ele>
        <time>2014-05-04T09:37:25Z</time>
      </trkpt>
      <trkpt lat="45.19977" lon="0.69828">
        <ele>86</ele>
        <time>2014-05-04T09:37:26Z</time>
      </trkpt>
      <trkpt lat="45.19977" lon="0.69828">
        <ele>86</ele>
        <time>2014-05-04T09:41:03Z</time>
      </trkpt>
      <trkpt lat="45.19965" lon="0.69819">
        <ele>86</ele>
        <time>2014-05-04T09:41:03Z</time>
      </trkpt>
      <trkpt lat="45.19949" lon="0.69805">
        <ele>85</ele>
        <time>2014-05-04T09:41:10Z</time>
      </trkpt>
      <trkpt lat="45.19937" lon="0.69815">
        <ele>85</ele>
        <time>2014-05-04T09:41:15Z</time>
      </trkpt>
      <trkpt lat="45.19928" lon="0.69825">
        <ele>85</ele>
        <time>2014-05-04T09:41:18Z</time>
      </trkpt>
      <trkpt lat="45.19917" lon="0.69835">
        <ele>85</ele>
        <time>2014-05-04T09:41:21Z</time>
      </trkpt>
      <trkpt lat="45.19893" lon="0.69858">
        <ele>85</ele>
        <time>2014-05-04T09:41:27Z</time>
      </trkpt>
      <trkpt lat="45.19869" lon="0.69876">
        <ele>84</ele>
        <time>2014-05-04T09:41:33Z</time>
      </trkpt>
      <trkpt lat="45.19846" lon="0.699">
        <ele>84</ele>
        <time>2014-05-04T09:41:39Z</time>
      </trkpt>
      <trkpt lat="45.19833" lon="0.69911">
        <ele>84</ele>
        <time>2014-05-04T09:41:42Z</time>
      </trkpt>
      <trkpt lat="45.19815" lon="0.69926">
        <ele>84</ele>
        <time>2014-05-04T09:41:47Z</time>
      </trkpt>
      <trkpt lat="45.19797" lon="0.69942">
        <ele>84</ele>
        <time>2014-05-04T09:41:52Z</time>
      </trkpt>
      <trkpt lat="45.19787" lon="0.69953">
        <ele>83</ele>
        <time>2014-05-04T09:41:55Z</time>
      </trkpt>
      <trkpt lat="45.19768" lon="0.69978">
        <ele>84</ele>
        <time>2014-05-04T09:42:01Z</time>
      </trkpt>
      <trkpt lat="45.19753" lon="0.69995">
        <ele>84</ele>
        <time>2014-05-04T09:42:06Z</time>
      </trkpt>
      <trkpt lat="45.19745" lon="0.70003">
        <ele>84</ele>
        <time>2014-05-04T09:42:09Z</time>
      </trkpt>
      <trkpt lat="45.19728" lon="0.69985">
        <ele>84</ele>
        <time>2014-05-04T09:42:15Z</time>
      </trkpt>
      <trkpt lat="45.19716" lon="0.69948">
        <ele>83</ele>
        <time>2014-05-04T09:42:21Z</time>
      </trkpt>
      <trkpt lat="45.19718" lon="0.69913">
        <ele>83</ele>
        <time>2014-05-04T09:42:27Z</time>
      </trkpt>
      <trkpt lat="45.19737" lon="0.69886">
        <ele>84</ele>
        <time>2014-05-04T09:42:34Z</time>
      </trkpt>
      <trkpt lat="45.19745" lon="0.69879">
        <ele>84</ele>
        <time>2014-05-04T09:42:37Z</time>
      </trkpt>
      <trkpt lat="45.19745" lon="0.69879">
        <ele>84</ele>
        <time>2014-05-04T09:42:42Z</time>
      </trkpt>
      <trkpt lat="45.19745" lon="0.69879">
        <ele>84</ele>
        <time>2014-05-04T09:42:47Z</time>
      </trkpt>
      <trkpt lat="45.19726" lon="0.69873">
        <ele>84</ele>
        <time>2014-05-04T09:42:47Z</time>
      </trkpt>
      <trkpt lat="45.19706" lon="0.69875">
        <ele>84</ele>
        <time>2014-05-04T09:42:52Z</time>
      </trkpt>
      <trkpt lat="45.19688" lon="0.69862">
        <ele>84</ele>
        <time>2014-05-04T09:42:57Z</time>
      </trkpt>
      <trkpt lat="45.19677" lon="0.69852">
        <ele>85</ele>
        <time>2014-05-04T09:43:00Z</time>
      </trkpt>
      <trkpt lat="45.1966" lon="0.69833">
        <ele>85</ele>
        <time>2014-05-04T09:43:06Z</time>
      </trkpt>
      <trkpt lat="45.19644" lon="0.69806">
        <ele>84</ele>
        <time>2014-05-04T09:43:12Z</time>
      </trkpt>
      <trkpt lat="45.19631" lon="0.69778">
        <ele>83</ele>
        <time>2014-05-04T09:43:18Z</time>
      </trkpt>
      <trkpt lat="45.19626" lon="0.69762">
        <ele>83</ele>
        <time>2014-05-04T09:43:21Z</time>
      </trkpt>
      <trkpt lat="45.19623" lon="0.69747">
        <ele>82</ele>
        <time>2014-05-04T09:43:24Z</time>
      </trkpt>
      <trkpt lat="45.19619" lon="0.69731">
        <ele>82</ele>
        <time>2014-05-04T09:43:27Z</time>
      </trkpt>
      <trkpt lat="45.19616" lon="0.69714">
        <ele>82</ele>
        <time>2014-05-04T09:43:30Z</time>
      </trkpt>
      <trkpt lat="45.19613" lon="0.69689">
        <ele>81</ele>
        <time>2014-05-04T09:43:35Z</time>
      </trkpt>
      <trkpt lat="45.1961" lon="0.69654">
        <ele>81</ele>
        <time>2014-05-04T09:43:42Z</time>
      </trkpt>
      <trkpt lat="45.1961" lon="0.6965">
        <ele>81</ele>
        <time>2014-05-04T09:43:43Z</time>
      </trkpt>
      <trkpt lat="45.1961" lon="0.6965">
        <ele>81</ele>
        <time>2014-05-04T09:43:48Z</time>
      </trkpt>
      <trkpt lat="45.1961" lon="0.6965">
        <ele>81</ele>
        <time>2014-05-04T09:43:57Z</time>
      </trkpt>
      <trkpt lat="45.1961" lon="0.69635">
        <ele>81</ele>
        <time>2014-05-04T09:43:57Z</time>
      </trkpt>
      <trkpt lat="45.1961" lon="0.69621">
        <ele>81</ele>
        <time>2014-05-04T09:44:00Z</time>
      </trkpt>
      <trkpt lat="45.19611" lon="0.69588">
        <ele>81</ele>
        <time>2014-05-04T09:44:07Z</time>
      </trkpt>
      <trkpt lat="45.19611" lon="0.69563">
        <ele>81</ele>
        <time>2014-05-04T09:44:14Z</time>
      </trkpt>
      <trkpt lat="45.19611" lon="0.69547">
        <ele>81</ele>
        <time>2014-05-04T09:44:17Z</time>
      </trkpt>
      <trkpt lat="45.19611" lon="0.6954">
        <ele>81</ele>
        <time>2014-05-04T09:44:19Z</time>
      </trkpt>
      <trkpt lat="45.19611" lon="0.6954">
        <ele>81</ele>
        <time>2014-05-04T09:44:25Z</time>
      </trkpt>
      <trkpt lat="45.19611" lon="0.6954">
        <ele>81</ele>
        <time>2014-05-04T09:45:01Z</time>
      </trkpt>
      <trkpt lat="45.19611" lon="0.6952">
        <ele>81</ele>
        <time>2014-05-04T09:45:01Z</time>
      </trkpt>
      <trkpt lat="45.1961" lon="0.69505">
        <ele>81</ele>
        <time>2014-05-04T09:45:04Z</time>
      </trkpt>
      <trkpt lat="45.19609" lon="0.69473">
        <ele>83</ele>
        <time>2014-05-04T09:45:11Z</time>
      </trkpt>
      <trkpt lat="45.19608" lon="0.6946">
        <ele>83</ele>
        <time>2014-05-04T09:45:14Z</time>
      </trkpt>
      <trkpt lat="45.19607" lon="0.69424">
        <ele>85</ele>
        <time>2014-05-04T09:45:22Z</time>
      </trkpt>
      <trkpt lat="45.19606" lon="0.69397">
        <ele>86</ele>
        <time>2014-05-04T09:45:28Z</time>
      </trkpt>
      <trkpt lat="45.19606" lon="0.69384">
        <ele>86</ele>
        <time>2014-05-04T09:45:31Z</time>
      </trkpt>
      <trkpt lat="45.19605" lon="0.69355">
        <ele>87</ele>
        <time>2014-05-04T09:45:38Z</time>
      </trkpt>
      <trkpt lat="45.19607" lon="0.69345">
        <ele>87</ele>
        <time>2014-05-04T09:45:44Z</time>
      </trkpt>
      <trkpt lat="45.19572" lon="0.69345">
        <ele>88</ele>
        <time>2014-05-04T09:45:58Z</time>
      </trkpt>
      <trkpt lat="45.19552" lon="0.69353">
        <ele>88</ele>
        <time>2014-05-04T09:46:06Z</time>
      </trkpt>
      <trkpt lat="45.19544" lon="0.69357">
        <ele>88</ele>
        <time>2014-05-04T09:46:09Z</time>
      </trkpt>
      <trkpt lat="45.19524" lon="0.69366">
        <ele>89</ele>
        <time>2014-05-04T09:46:16Z</time>
      </trkpt>
      <trkpt lat="45.19504" lon="0.69378">
        <ele>90</ele>
        <time>2014-05-04T09:46:23Z</time>
      </trkpt>
      <trkpt lat="45.19482" lon="0.69399">
        <ele>91</ele>
        <time>2014-05-04T09:46:31Z</time>
      </trkpt>
      <trkpt lat="45.19464" lon="0.69416">
        <ele>92</ele>
        <time>2014-05-04T09:46:37Z</time>
      </trkpt>
      <trkpt lat="45.19441" lon="0.69438">
        <ele>93</ele>
        <time>2014-05-04T09:46:44Z</time>
      </trkpt>
      <trkpt lat="45.19431" lon="0.69447">
        <ele>93</ele>
        <time>2014-05-04T09:46:47Z</time>
      </trkpt>
      <trkpt lat="45.19409" lon="0.69463">
        <ele>93</ele>
        <time>2014-05-04T09:46:53Z</time>
      </trkpt>
      <trkpt lat="45.19387" lon="0.69478">
        <ele>94</ele>
        <time>2014-05-04T09:47:00Z</time>
      </trkpt>
      <trkpt lat="45.19365" lon="0.69493">
        <ele>95</ele>
        <time>2014-05-04T09:47:07Z</time>
      </trkpt>
      <trkpt lat="45.19345" lon="0.69506">
        <ele>95</ele>
        <time>2014-05-04T09:47:12Z</time>
      </trkpt>
      <trkpt lat="45.19333" lon="0.69512">
        <ele>96</ele>
        <time>2014-05-04T09:47:15Z</time>
      </trkpt>
      <trkpt lat="45.19308" lon="0.69522">
        <ele>96</ele>
        <time>2014-05-04T09:47:21Z</time>
      </trkpt>
      <trkpt lat="45.19288" lon="0.69523">
        <ele>96</ele>
        <time>2014-05-04T09:47:26Z</time>
      </trkpt>
      <trkpt lat="45.1927" lon="0.69502">
        <ele>97</ele>
        <time>2014-05-04T09:47:32Z</time>
      </trkpt>
      <trkpt lat="45.19252" lon="0.69476">
        <ele>97</ele>
        <time>2014-05-04T09:47:40Z</time>
      </trkpt>
      <trkpt lat="45.19237" lon="0.69449">
        <ele>98</ele>
        <time>2014-05-04T09:47:48Z</time>
      </trkpt>
      <trkpt lat="45.19211" lon="0.69442">
        <ele>99</ele>
        <time>2014-05-04T09:47:56Z</time>
      </trkpt>
      <trkpt lat="45.19195" lon="0.69445">
        <ele>99</ele>
        <time>2014-05-04T09:48:01Z</time>
      </trkpt>
      <trkpt lat="45.19186" lon="0.69446">
        <ele>100</ele>
        <time>2014-05-04T09:48:04Z</time>
      </trkpt>
      <trkpt lat="45.19166" lon="0.69441">
        <ele>100</ele>
        <time>2014-05-04T09:48:11Z</time>
      </trkpt>
      <trkpt lat="45.19158" lon="0.69437">
        <ele>101</ele>
        <time>2014-05-04T09:48:14Z</time>
      </trkpt>
      <trkpt lat="45.19147" lon="0.69432">
        <ele>101</ele>
        <time>2014-05-04T09:48:18Z</time>
      </trkpt>
      <trkpt lat="45.1914" lon="0.69429">
        <ele>101</ele>
        <time>2014-05-04T09:48:21Z</time>
      </trkpt>
      <trkpt lat="45.19132" lon="0.69424">
        <ele>101</ele>
        <time>2014-05-04T09:48:24Z</time>
      </trkpt>
      <trkpt lat="45.19123" lon="0.6942">
        <ele>102</ele>
        <time>2014-05-04T09:48:27Z</time>
      </trkpt>
      <trkpt lat="45.19121" lon="0.69419">
        <ele>102</ele>
        <time>2014-05-04T09:48:28Z</time>
      </trkpt>
      <trkpt lat="45.19121" lon="0.69419">
        <ele>102</ele>
        <time>2014-05-04T09:48:35Z</time>
      </trkpt>
      <trkpt lat="45.19121" lon="0.69419">
        <ele>102</ele>
        <time>2014-05-04T09:48:49Z</time>
      </trkpt>
      <trkpt lat="45.19144" lon="0.69435">
        <ele>101</ele>
        <time>2014-05-04T09:54:19Z</time>
      </trkpt>
      <trkpt lat="45.19154" lon="0.69447">
        <ele>101</ele>
        <time>2014-05-04T09:54:25Z</time>
      </trkpt>
      <trkpt lat="45.19128" lon="0.69491">
        <ele>102</ele>
        <time>2014-05-04T09:54:36Z</time>
      </trkpt>
      <trkpt lat="45.1908" lon="0.69483">
        <ele>103</ele>
        <time>2014-05-04T09:54:43Z</time>
      </trkpt>
      <trkpt lat="45.19058" lon="0.69477">
        <ele>104</ele>
        <time>2014-05-04T09:54:46Z</time>
      </trkpt>
      <trkpt lat="45.19032" lon="0.69471">
        <ele>104</ele>
        <time>2014-05-04T09:54:53Z</time>
      </trkpt>
      <trkpt lat="45.19017" lon="0.69439">
        <ele>106</ele>
        <time>2014-05-04T09:55:00Z</time>
      </trkpt>
    </trkseg>
  </trk>
</gpx>